[[{"header":{"parameterUnit":"m.s-1","parameterCategory":1,"la1":30.6,"la2":29.2853,"lo1":-89.7004,"lo2":-87.6739,"dy":0.0162,"dx":0.0183,"nx":112,"ny":82,"refTime":"2023-10-16T18:00:00:Z","depth":0,"parameterNumber":2,"parameterNumberName":"U-component_of_WINDS"},"data":[0.0,0.0,0.0,0.0,0.0,0.0,0.0,0.0,0.0,0.0,0.0,0.0,0.0,0.0,0.0,0.0,0.0,0.0,0.0,0.0,0.0,0.0,0.0,0.0,0.0,0.0,0.0,0.0,0.0,0.0,0.0,0.0,0.0,0.0,0.0,0.0,0.0,0.0,0.0,0.0,0.0,0.0,0.0,0.0,0.0,0.0,0.0,0.0,0.0,0.0,0.0,0.0,0.0,0.0,0.0,0.0,0.0,0.0,0.0,0.0,0.0,0.0,0.0,0.0,0.0,0.0,0.0,0.0,0.0,0.0,0.0,0.0,0.0,0.0,0.0,0.0,0.0,0.0,0.0,0.0,0.0,0.0,0.0,0.0,0.0,0.0,0.0,0.0,0.0,0.0,-2.2115,-2.2421,-2.4219,-2.5658,-2.6345,-2.5776,-2.4994,-2.411,0.0,0.0,0.0,0.0,0.0,0.0,0.0,0.0,0.0,0.0,0.0,0.0,0.0,0.0,0.0,0.0,0.0,0.0,0.0,0.0,0.0,0.0,0.0,0.0,0.0,0.0,0.0,0.0,0.0,0.0,0.0,0.0,0.0,0.0,0.0,0.0,0.0,0.0,0.0,0.0,0.0,0.0,0.0,0.0,0.0,0.0,0.0,0.0,0.0,0.0,0.0,0.0,0.0,0.0,0.0,0.0,0.0,0.0,0.0,0.0,0.0,0.0,0.0,0.0,0.0,0.0,0.0,0.0,0.0,0.0,0.0,0.0,0.0,0.0,0.0,0.0,0.0,0.0,0.0,0.0,0.0,0.0,0.0,0.0,0.0,0.0,0.0,0.0,0.0,0.0,0.0,0.0,0.0,0.0,0.0,0.0,0.0,0.0,0.0,0.0,0.0,0.0,0.0,0.0,-2.2705,-2.4745,-2.5172,-2.5369,-2.5497,-2.5325,-2.4853,-2.3982,0.0,0.0,0.0,0.0,0.0,0.0,0.0,0.0,0.0,0.0,0.0,0.0,0.0,0.0,0.0,0.0,0.0,0.0,0.0,0.0,0.0,0.0,0.0,0.0,0.0,0.0,0.0,0.0,0.0,0.0,0.0,0.0,0.0,0.0,0.0,0.0,0.0,0.0,0.0,0.0,0.0,0.0,0.0,0.0,0.0,0.0,0.0,0.0,0.0,0.0,0.0,0.0,0.0,0.0,0.0,0.0,0.0,0.0,0.0,0.0,0.0,0.0,0.0,0.0,0.0,0.0,0.0,0.0,0.0,0.0,0.0,0.0,0.0,0.0,0.0,0.0,0.0,0.0,0.0,0.0,0.0,0.0,0.0,0.0,0.0,0.0,0.0,0.0,0.0,0.0,0.0,0.0,0.0,0.0,0.0,0.0,0.0,0.0,0.0,0.0,0.0,0.0,0.0,-2.1772,-2.3262,-2.523,-2.4977,-2.4807,-2.5205,-2.4738,-2.4254,-2.3818,-2.381,0.0,0.0,0.0,0.0,0.0,0.0,0.0,0.0,0.0,0.0,0.0,0.0,0.0,0.0,0.0,0.0,0.0,0.0,0.0,0.0,0.0,0.0,0.0,0.0,0.0,0.0,0.0,0.0,0.0,0.0,0.0,0.0,0.0,0.0,0.0,0.0,0.0,0.0,0.0,0.0,0.0,0.0,0.0,0.0,0.0,0.0,0.0,0.0,0.0,0.0,0.0,0.0,0.0,0.0,0.0,0.0,0.0,0.0,0.0,0.0,0.0,0.0,0.0,0.0,0.0,0.0,0.0,0.0,0.0,0.0,0.0,0.0,0.0,0.0,0.0,0.0,0.0,0.0,0.0,0.0,0.0,0.0,0.0,0.0,0.0,0.0,0.0,0.0,0.0,0.0,0.0,0.0,0.0,0.0,0.0,0.0,0.0,0.0,0.0,0.0,0.0,0.0,-2.263,-2.3538,-2.4932,-2.4469,-2.4261,-2.4779,-2.4147,-2.3685,-2.36,-2.3526,0.0,0.0,0.0,0.0,0.0,0.0,0.0,0.0,0.0,0.0,0.0,0.0,0.0,0.0,0.0,0.0,0.0,0.0,0.0,0.0,0.0,0.0,0.0,0.0,0.0,0.0,0.0,0.0,0.0,0.0,0.0,0.0,0.0,0.0,0.0,0.0,0.0,0.0,0.0,0.0,0.0,0.0,0.0,0.0,0.0,0.0,0.0,0.0,0.0,0.0,0.0,0.0,0.0,0.0,0.0,0.0,0.0,0.0,0.0,0.0,0.0,0.0,0.0,0.0,0.0,0.0,0.0,0.0,0.0,0.0,0.0,0.0,0.0,0.0,0.0,0.0,0.0,0.0,0.0,0.0,0.0,0.0,0.0,0.0,0.0,0.0,0.0,0.0,0.0,0.0,0.0,0.0,0.0,0.0,0.0,0.0,0.0,0.0,0.0,0.0,0.0,0.0,-2.2969,-2.3299,-2.4103,-2.4014,-2.3863,-2.3721,-2.3589,-2.3441,-2.3253,-2.3241,0.0,0.0,0.0,0.0,0.0,0.0,0.0,0.0,0.0,0.0,0.0,0.0,0.0,0.0,0.0,0.0,0.0,0.0,0.0,0.0,0.0,0.0,0.0,0.0,0.0,0.0,0.0,0.0,0.0,0.0,0.0,0.0,0.0,0.0,0.0,0.0,0.0,0.0,0.0,0.0,0.0,0.0,0.0,0.0,0.0,0.0,0.0,0.0,0.0,0.0,0.0,0.0,0.0,0.0,0.0,0.0,0.0,0.0,0.0,0.0,0.0,0.0,0.0,0.0,0.0,0.0,0.0,0.0,0.0,0.0,0.0,0.0,0.0,0.0,0.0,0.0,0.0,0.0,0.0,0.0,0.0,0.0,0.0,0.0,0.0,0.0,0.0,0.0,0.0,0.0,0.0,0.0,0.0,0.0,0.0,0.0,0.0,0.0,0.0,0.0,0.0,0.0,-2.3305,-2.3668,-2.3949,-2.3863,-2.3509,-2.2841,-2.2654,-2.2306,-2.168,0.0,0.0,0.0,0.0,0.0,0.0,0.0,0.0,0.0,0.0,0.0,0.0,0.0,0.0,0.0,0.0,0.0,0.0,0.0,0.0,0.0,0.0,0.0,0.0,0.0,0.0,0.0,0.0,0.0,0.0,0.0,0.0,0.0,0.0,0.0,0.0,0.0,0.0,0.0,0.0,0.0,0.0,0.0,0.0,0.0,0.0,0.0,0.0,0.0,0.0,0.0,0.0,0.0,0.0,0.0,0.0,0.0,0.0,0.0,0.0,0.0,0.0,0.0,0.0,0.0,0.0,0.0,0.0,0.0,0.0,0.0,0.0,0.0,0.0,0.0,0.0,0.0,0.0,0.0,0.0,0.0,0.0,0.0,0.0,0.0,0.0,0.0,0.0,0.0,0.0,0.0,0.0,0.0,0.0,0.0,0.0,0.0,0.0,0.0,0.0,0.0,0.0,-2.3267,-2.3569,-2.3834,-2.3803,-2.3682,-2.3216,-2.2245,-2.2007,-2.1523,-2.0634,0.0,0.0,0.0,0.0,0.0,0.0,0.0,0.0,0.0,0.0,0.0,0.0,0.0,0.0,0.0,0.0,0.0,0.0,0.0,0.0,0.0,0.0,0.0,0.0,0.0,0.0,0.0,0.0,0.0,0.0,0.0,0.0,0.0,0.0,0.0,0.0,0.0,0.0,0.0,0.0,0.0,0.0,0.0,0.0,0.0,0.0,0.0,0.0,0.0,0.0,0.0,0.0,0.0,0.0,0.0,0.0,0.0,0.0,0.0,0.0,0.0,0.0,0.0,0.0,0.0,0.0,0.0,0.0,0.0,0.0,0.0,0.0,0.0,0.0,0.0,0.0,0.0,0.0,0.0,0.0,0.0,0.0,0.0,0.0,0.0,0.0,0.0,0.0,0.0,0.0,0.0,0.0,0.0,0.0,0.0,0.0,0.0,0.0,0.0,0.0,0.0,0.0,-2.3816,-2.3753,-2.3667,-2.3605,-2.3476,-2.2994,-2.1961,-2.1748,-2.1278,0.0,0.0,0.0,0.0,0.0,0.0,0.0,0.0,0.0,0.0,0.0,0.0,0.0,0.0,0.0,0.0,0.0,0.0,0.0,0.0,0.0,0.0,0.0,0.0,0.0,0.0,0.0,0.0,0.0,0.0,0.0,0.0,0.0,0.0,0.0,0.0,0.0,0.0,0.0,0.0,0.0,0.0,0.0,0.0,0.0,0.0,0.0,0.0,0.0,0.0,0.0,0.0,0.0,0.0,0.0,0.0,0.0,0.0,0.0,0.0,0.0,0.0,0.0,0.0,0.0,0.0,0.0,0.0,0.0,0.0,0.0,0.0,0.0,0.0,0.0,0.0,0.0,0.0,0.0,0.0,0.0,0.0,0.0,0.0,0.0,0.0,0.0,0.0,0.0,0.0,0.0,0.0,0.0,0.0,0.0,0.0,0.0,0.0,0.0,0.0,0.0,0.0,0.0,-2.3682,-2.3565,-2.3447,-2.3319,-2.2723,-2.1961,-2.1063,-2.0333,-1.9562,-1.8671,0.0,0.0,0.0,0.0,0.0,0.0,0.0,0.0,0.0,0.0,0.0,0.0,0.0,0.0,0.0,0.0,0.0,0.0,0.0,0.0,0.0,0.0,0.0,0.0,0.0,0.0,0.0,0.0,0.0,0.0,0.0,0.0,0.0,0.0,0.0,0.0,0.0,0.0,0.0,0.0,0.0,0.0,0.0,0.0,0.0,0.0,0.0,0.0,0.0,0.0,0.0,0.0,0.0,0.0,0.0,0.0,0.0,0.0,0.0,0.0,0.0,0.0,0.0,0.0,0.0,0.0,0.0,0.0,0.0,0.0,0.0,0.0,0.0,0.0,0.0,0.0,0.0,0.0,0.0,0.0,0.0,0.0,0.0,0.0,0.0,0.0,0.0,0.0,0.0,0.0,0.0,0.0,0.0,0.0,0.0,0.0,0.0,0.0,0.0,0.0,0.0,0.0,-2.3547,-2.3389,-2.3229,-2.3077,-2.2326,-2.148,-2.0593,-1.9671,-1.8785,-1.7912,0.0,0.0,0.0,0.0,0.0,0.0,0.0,0.0,0.0,0.0,0.0,0.0,0.0,0.0,0.0,0.0,0.0,0.0,0.0,0.0,0.0,0.0,0.0,0.0,0.0,0.0,0.0,0.0,0.0,0.0,0.0,0.0,0.0,0.0,0.0,0.0,0.0,0.0,0.0,0.0,0.0,0.0,0.0,0.0,0.0,0.0,0.0,0.0,0.0,0.0,0.0,0.0,0.0,0.0,0.0,0.0,0.0,0.0,0.0,0.0,0.0,0.0,0.0,0.0,0.0,0.0,0.0,0.0,0.0,0.0,0.0,0.0,0.0,0.0,0.0,0.0,0.0,0.0,0.0,0.0,0.0,0.0,0.0,0.0,0.0,0.0,0.0,0.0,0.0,0.0,0.0,0.0,0.0,0.0,0.0,0.0,0.0,0.0,0.0,0.0,0.0,0.0,-2.3418,-2.3217,-2.3033,-2.2893,-2.2101,-2.1236,-2.045,-1.9526,-1.8648,-1.7845,0.0,0.0,0.0,0.0,0.0,0.0,0.0,0.0,0.0,0.0,0.0,0.0,0.0,0.0,0.0,0.0,0.0,0.0,0.0,0.0,0.0,0.0,0.0,0.0,0.0,0.0,0.0,0.0,0.0,0.0,0.0,0.0,0.0,0.0,0.0,0.0,0.0,0.0,0.0,0.0,0.0,0.0,0.0,0.0,0.0,0.0,0.0,0.0,0.0,0.0,0.0,0.0,0.0,0.0,0.0,0.0,0.0,0.0,0.0,0.0,-2.312,-2.2579,0.0,0.0,0.0,0.0,0.0,0.0,0.0,0.0,0.0,0.0,0.0,0.0,0.0,0.0,0.0,0.0,0.0,0.0,0.0,0.0,0.0,0.0,0.0,0.0,0.0,0.0,0.0,0.0,0.0,0.0,0.0,0.0,0.0,0.0,0.0,0.0,0.0,0.0,0.0,0.0,-2.336,-2.3107,-2.2881,-2.2685,-2.137,-2.045,-2.0257,-1.8967,-1.8042,-1.7828,-1.9174,0.0,0.0,0.0,0.0,0.0,0.0,0.0,0.0,0.0,0.0,0.0,0.0,0.0,0.0,0.0,0.0,0.0,0.0,0.0,0.0,0.0,0.0,0.0,0.0,0.0,0.0,0.0,0.0,0.0,0.0,0.0,0.0,0.0,0.0,0.0,0.0,0.0,0.0,0.0,0.0,0.0,0.0,0.0,0.0,0.0,0.0,0.0,0.0,0.0,0.0,0.0,0.0,0.0,0.0,0.0,0.0,0.0,0.0,0.0,-2.4166,-2.33,0.0,0.0,0.0,0.0,0.0,0.0,0.0,0.0,0.0,0.0,0.0,0.0,0.0,0.0,0.0,0.0,0.0,0.0,0.0,0.0,0.0,0.0,0.0,0.0,0.0,0.0,0.0,0.0,0.0,0.0,0.0,0.0,0.0,0.0,0.0,0.0,0.0,0.0,0.0,0.0,-2.3241,-2.2982,-2.2738,-2.2582,-2.1144,-2.0201,-2.019,-1.8796,-1.8014,-1.8302,-1.9389,0.0,0.0,0.0,0.0,0.0,0.0,0.0,0.0,0.0,0.0,0.0,0.0,0.0,0.0,0.0,0.0,0.0,0.0,0.0,0.0,0.0,0.0,0.0,0.0,0.0,0.0,0.0,0.0,0.0,0.0,0.0,0.0,0.0,0.0,0.0,0.0,0.0,0.0,0.0,0.0,0.0,0.0,0.0,0.0,0.0,0.0,0.0,0.0,0.0,0.0,0.0,0.0,0.0,-2.8407,-2.8391,-2.8913,-2.8133,-2.7725,-2.7605,-2.6182,-2.4877,-2.3765,-2.363,0.0,0.0,0.0,0.0,0.0,0.0,0.0,0.0,0.0,0.0,0.0,0.0,0.0,0.0,0.0,0.0,0.0,0.0,0.0,0.0,0.0,0.0,-2.2296,-2.2296,-2.2296,-2.2296,-2.2296,0.0,0.0,0.0,0.0,0.0,0.0,0.0,0.0,0.0,0.0,0.0,-2.3132,-2.2855,-2.2619,-2.2501,-2.1212,-2.0381,-2.0365,-1.9078,-1.8495,-1.9058,-1.9794,-2.0517,0.0,0.0,0.0,0.0,0.0,0.0,0.0,0.0,0.0,0.0,0.0,0.0,0.0,0.0,0.0,0.0,0.0,0.0,0.0,0.0,0.0,0.0,0.0,0.0,0.0,0.0,0.0,0.0,0.0,0.0,0.0,0.0,-2.6285,-2.5541,0.0,0.0,0.0,0.0,0.0,0.0,0.0,0.0,0.0,0.0,0.0,0.0,0.0,-2.8729,-2.9936,-2.9932,-3.0575,-3.1859,-3.1757,-3.2055,-3.2645,-3.1921,-3.1565,-3.1481,-3.0006,0.0,-2.527,-2.4626,0.0,0.0,0.0,0.0,0.0,0.0,0.0,0.0,0.0,0.0,0.0,0.0,0.0,0.0,0.0,0.0,0.0,0.0,0.0,0.0,0.0,0.0,-2.2296,-2.2296,-2.2296,-2.2296,-2.2296,-2.2296,-2.2324,-2.2391,-2.2542,-2.2712,0.0,0.0,0.0,0.0,0.0,0.0,-2.3045,-2.2777,-2.2569,-2.2432,-2.16,-2.1081,-2.1068,-2.0242,-1.9761,-1.9862,-2.0602,-2.1089,-2.119,-2.1904,0.0,0.0,0.0,0.0,0.0,0.0,0.0,0.0,0.0,0.0,0.0,0.0,0.0,0.0,0.0,0.0,0.0,0.0,0.0,0.0,0.0,0.0,0.0,0.0,0.0,0.0,0.0,0.0,0.0,-2.7334,-2.7368,-2.7486,-2.6742,-2.6251,0.0,0.0,0.0,0.0,0.0,0.0,0.0,0.0,0.0,-3.0195,-3.1002,-3.1907,-3.2923,-3.3273,-3.3963,-3.4912,-3.4504,-3.4665,-3.5267,-3.4506,-3.3931,-3.3512,-3.2848,-3.1123,-2.8586,-2.6573,-2.5287,-2.456,0.0,0.0,0.0,0.0,-2.3543,-2.3543,-2.3543,-2.3543,-2.346,-2.3054,0.0,0.0,0.0,0.0,0.0,0.0,0.0,-2.3004,-2.3427,-2.3543,-2.3543,-2.3543,-2.3543,-2.341,-2.3004,-2.2919,-2.2815,-2.2462,-2.2487,-2.2623,-2.2855,-2.3015,0.0,0.0,0.0,-2.302,-2.2855,-2.2619,-2.2446,-2.2349,-2.1661,-2.119,-2.119,-2.0454,-2.02,-2.0653,-2.1004,-2.1393,-2.1803,-2.2141,-2.2296,0.0,0.0,0.0,0.0,0.0,0.0,0.0,0.0,0.0,0.0,0.0,0.0,0.0,0.0,0.0,0.0,0.0,0.0,0.0,0.0,0.0,0.0,0.0,0.0,0.0,0.0,0.0,0.0,-2.7976,-2.8399,-2.9196,-2.8264,-2.7858,0.0,0.0,0.0,0.0,0.0,0.0,-2.9769,-3.0883,-3.1946,-3.2903,-3.4014,-3.4933,-3.5598,-3.6156,-3.6775,-3.7437,-3.687,-3.6983,-3.7625,-3.684,-3.6079,-3.5351,-3.4945,-3.3728,-3.1799,-2.8805,-2.7012,-2.6083,-2.5338,-2.5066,-2.5066,-2.5066,-2.5066,-2.5066,-2.5066,-2.4948,-2.4694,-2.4137,-2.3833,-2.3579,-2.3038,0.0,0.0,0.0,0.0,-2.3814,-2.4355,-2.4491,-2.4491,-2.4491,-2.4491,-2.4355,-2.3814,-2.3678,-2.3422,-2.2536,-2.2432,-2.2528,-2.2699,-2.2829,0.0,-2.2995,-2.2906,-2.2777,-2.2659,-2.2501,-2.2363,-2.231,-2.1803,-2.1478,-2.1478,-2.0927,-2.0842,-2.1444,-2.1478,-2.1735,-2.2279,-2.2296,-2.2296,-2.2296,0.0,0.0,0.0,0.0,0.0,0.0,0.0,0.0,0.0,0.0,0.0,0.0,0.0,0.0,0.0,0.0,0.0,0.0,0.0,0.0,0.0,0.0,0.0,0.0,0.0,0.0,0.0,0.0,0.0,-2.9973,-2.9989,0.0,0.0,0.0,0.0,-3.1904,-3.2116,-3.2822,-3.4283,-3.4487,-3.5266,-3.6756,-3.6769,-3.7092,-3.7823,-3.7807,-3.8159,-3.8894,-3.8877,-3.9233,-3.991,-3.9157,-3.843,-3.7652,-3.6174,-3.5076,-3.41,-3.1157,-2.9041,-2.7621,-2.6877,-2.6589,-2.6589,-2.6589,-2.6589,-2.6589,-2.6589,-2.6133,-2.5541,-2.5507,-2.5017,-2.444,-2.4406,-2.4389,0.0,0.0,-2.444,-2.444,-2.4491,-2.4491,-2.4491,-2.4491,-2.4491,-2.4491,-2.444,-2.444,-2.4017,-2.2581,-2.2366,-2.2432,-2.2501,0.0,-2.2646,-2.2712,-2.2659,-2.2579,-2.2528,-2.2446,-2.2363,-2.231,-2.2262,-2.2229,-2.2229,-2.2212,-2.2195,-2.2229,-2.2229,-2.2262,-2.2296,-2.2296,-2.2296,-2.2296,-2.2296,0.0,0.0,0.0,0.0,0.0,0.0,0.0,0.0,0.0,0.0,0.0,0.0,0.0,0.0,0.0,0.0,0.0,0.0,0.0,0.0,0.0,0.0,0.0,0.0,0.0,0.0,0.0,0.0,-3.278,-3.2933,0.0,-3.3964,-3.3372,-3.3558,-3.5086,-3.5667,-3.6395,-3.7394,-3.7492,-3.7973,-3.8999,-3.8526,-3.8604,-3.9333,-3.9342,-3.9453,-3.9723,-3.9723,-3.9859,-4.0096,-3.9842,-3.9039,-3.7872,-3.733,-3.6096,-3.437,-3.2848,-3.1343,-2.9871,-2.8654,-2.818,-2.818,-2.818,-2.818,-2.818,-2.818,-2.8011,-2.7604,-2.6623,-2.6116,-2.5828,-2.5355,-2.5541,-2.5998,-2.6488,-2.6285,-2.6015,-2.6505,-2.6268,-2.5929,-2.5929,-2.5929,-2.5794,-2.5304,-2.5203,-2.4915,-2.39,-2.3354,-2.2909,-2.2504,-2.246,-2.2501,-2.2569,-2.2515,-2.246,-2.2432,-2.238,-2.2324,-2.231,-2.2296,-2.2296,-2.2296,-2.2296,-2.2296,-2.2296,-2.2296,-2.2296,-2.2296,-2.2296,-2.2296,-2.2296,-2.2296,-2.1803,0.0,0.0,0.0,0.0,0.0,0.0,0.0,0.0,0.0,0.0,0.0,0.0,0.0,0.0,0.0,0.0,0.0,0.0,0.0,0.0,0.0,0.0,0.0,0.0,0.0,-3.2324,-3.3964,-3.547,-3.5859,-3.6299,-3.706,-3.6451,-3.6637,-3.8159,-3.8734,-3.9343,-4.007,-3.9868,-3.9969,-4.0468,-3.9774,-3.9622,-4.0096,-4.0096,-4.0096,-4.0096,-4.0096,-4.0096,-4.0096,-3.9842,-3.9056,-3.7889,-3.7635,-3.6518,-3.4793,-3.3812,-3.2831,-3.1799,-3.033,-2.9738,-2.9738,-2.9738,-2.9738,-2.9721,-2.9467,-2.9364,-2.9162,-2.7893,-2.7486,-2.7368,-2.6894,-2.708,-2.7588,-2.8078,-2.7672,-2.7182,-2.7672,-2.7249,-2.6691,-2.6691,-2.6691,-2.6573,-2.6082,-2.5981,-2.5744,-2.5015,-2.4288,-2.3543,-2.2858,-2.2736,-2.2666,-2.2453,-2.2391,-2.2366,-2.2366,-2.2324,-2.2296,-2.2296,-2.2296,-2.2296,-2.2296,-2.2296,-2.2296,-2.2296,-2.2296,-2.2296,-2.2296,-2.2296,-2.2296,-2.2296,-2.2057,-2.1684,-2.119,0.0,0.0,0.0,0.0,0.0,0.0,0.0,0.0,0.0,0.0,0.0,0.0,0.0,0.0,0.0,0.0,0.0,0.0,0.0,0.0,0.0,0.0,0.0,-3.2513,-3.4336,-3.6309,-3.7855,-3.8667,-3.9394,-4.018,-3.9554,-3.9715,-4.1204,-4.1288,-4.1593,-4.232,-4.1644,-4.1238,-4.1238,-4.0519,-4.0096,-4.0096,-4.0096,-4.0096,-4.0096,-4.0096,-4.0096,-4.0045,-3.9326,-3.8582,-3.7838,-3.7094,-3.6315,-3.5447,-3.4015,-3.3389,-3.322,-3.1765,-3.119,-3.119,-3.119,-3.119,-3.1089,-3.0378,-3.0123,-3.0023,-2.9281,-2.9044,-2.9061,-2.9044,-2.9044,-2.9077,-2.9077,-2.8467,-2.7841,-2.7841,-2.7283,-2.6691,-2.6691,-2.6691,-2.6691,-2.6691,-2.6691,-2.6488,-2.5778,-2.5066,-2.4321,-2.3543,-2.3393,-2.3139,-2.2398,-2.2296,0.0,-2.2296,-2.2296,-2.2296,-2.2296,-2.2296,-2.2296,-2.2296,-2.2296,-2.2296,-2.2296,-2.2296,-2.2296,-2.2296,-2.2296,-2.2296,-2.2296,-2.1597,-2.1224,-2.1224,0.0,0.0,0.0,0.0,0.0,0.0,0.0,0.0,0.0,0.0,0.0,0.0,0.0,0.0,0.0,0.0,0.0,0.0,0.0,0.0,0.0,-3.3778,-3.4906,-3.4726,-3.7094,-3.9411,-4.0899,-4.1255,-4.1897,-4.3244,-4.2178,-4.2016,-4.3565,-4.3132,-4.3149,-4.3938,-4.2709,-4.1999,-4.1999,-4.0773,-4.0096,-4.0096,-4.0096,-4.0096,-4.0096,-4.0096,-3.9825,-3.9317,-3.9089,-3.8319,-3.7077,-3.6897,-3.6051,-3.4726,-3.3795,-3.3085,-3.2513,-3.1562,-3.119,-3.119,-3.119,-3.119,-3.1157,-3.097,-3.0903,-3.0784,-3.004,-3.0159,-3.0497,-2.9956,-3.0159,-3.0601,-3.0601,-2.9668,-2.867,-2.867,-2.7689,-2.6691,-2.6691,-2.6691,-2.6691,-2.6691,-2.6691,-2.664,-2.6437,-2.6218,-2.5523,-2.3714,-2.3393,-2.3139,-2.2398,-2.2296,-2.2296,-2.2296,-2.2296,-2.2296,-2.2296,-2.2296,-2.2296,-2.2296,-2.2296,-2.2296,-2.2296,-2.2296,-2.2296,-2.2296,-2.2296,-2.2296,-2.2296,-2.2107,-2.2006,0.0,0.0,0.0,0.0,0.0,0.0,0.0,0.0,0.0,0.0,0.0,0.0,0.0,0.0,0.0,0.0,0.0,0.0,0.0,0.0,0.0,0.0,-3.684,-3.8514,-3.8811,-4.0375,-4.1914,-4.3125,-4.3538,-4.4079,-4.4959,-4.4248,-4.4096,-4.4976,-4.4637,-4.4434,-4.4598,-4.3159,-4.2286,-4.2286,-4.0874,-4.0096,-4.0096,-4.0096,-3.9943,-3.9656,-3.9656,-3.9242,-3.8531,-3.821,-3.7625,-3.6761,-3.6118,-3.534,-3.4404,-3.3355,-3.2679,-3.2226,0.0,0.0,0.0,0.0,-3.119,-3.119,-3.119,-3.119,-3.1123,-3.07,-3.0852,-3.1123,-3.0683,-3.0852,-3.114,-3.0835,-2.9907,-2.8925,-2.8569,-2.7604,-2.6691,-2.6691,-2.6691,-2.6691,-2.6691,-2.6691,-2.6691,-2.6691,-2.6691,0.0,-2.4594,-2.4069,-2.3611,-2.2868,-2.2499,-2.2296,-2.2296,-2.2296,-2.2296,-2.2296,-2.2296,-2.2296,-2.2296,-2.2296,0.0,0.0,0.0,-2.2296,-2.2296,-2.2296,0.0,0.0,0.0,-2.2296,-2.2296,-2.2296,0.0,0.0,-2.1651,-2.1887,0.0,0.0,0.0,0.0,0.0,0.0,0.0,0.0,0.0,0.0,0.0,0.0,0.0,0.0,0.0,0.0,-4.0248,-4.2743,-4.3646,-4.3764,-4.4062,-4.4767,-4.528,-4.5652,-4.5821,-4.5669,-4.5618,-4.5703,-4.5618,-4.528,-4.4632,-4.3159,0.0,0.0,0.0,-4.0062,-3.9977,-3.9977,-3.9622,-3.887,-3.887,-3.8481,-3.7753,-3.7117,-3.6761,-3.6592,-3.5115,-3.4438,-3.4269,-3.2869,-3.2242,-3.2107,-3.1464,-3.119,-3.119,-3.119,-3.119,-3.119,-3.119,0.0,0.0,-3.119,-3.119,-3.119,-3.119,-3.119,-3.1055,-3.0311,-2.9567,-2.8824,-2.801,-2.7249,-2.6691,-2.6691,-2.6691,-2.6691,-2.6691,-2.6691,-2.6691,-2.6691,-2.6691,-2.6488,-2.5845,-2.5101,-2.4355,-2.3511,-2.2852,-2.2381,-2.2313,-2.2296,-2.2296,-2.2296,-2.2296,0.0,-2.2296,-2.2296,-2.2296,-2.2296,-2.2296,-2.2296,-2.2296,-2.2296,-2.233,-2.2415,-2.2415,-2.2448,-2.255,-2.255,-2.255,-2.2533,-2.2381,-2.2296,0.0,0.0,0.0,0.0,0.0,0.0,0.0,0.0,0.0,0.0,0.0,0.0,0.0,0.0,0.0,-4.0663,-4.2337,-4.3893,-4.5855,-4.6143,-4.6194,-4.6346,-4.5432,-4.5263,-4.6464,-4.55,-4.5043,-4.5669,-4.5145,-4.4767,-4.4615,-4.3159,-4.2286,-4.2286,-4.0874,-3.9808,-3.9208,-3.9208,-3.8836,-3.8125,-3.8125,0.0,-3.7015,-3.688,-3.6434,-3.5769,-3.4895,-3.4167,-3.3541,-3.2666,-3.1955,-3.1393,-3.1258,-3.119,-3.119,-3.119,-3.119,-3.119,-3.119,-3.119,-3.119,-3.119,-3.119,-3.119,-3.119,-3.119,0.0,-3.0311,-2.9567,-2.8824,-2.801,-2.7249,-2.6691,-2.6691,-2.6691,-2.6691,-2.6691,-2.6691,-2.6691,-2.6691,-2.6691,-2.664,-2.6505,-2.5879,-2.4932,-2.3596,-2.3274,-2.297,-2.2381,-2.2296,-2.2296,-2.2296,-2.2296,-2.2296,-2.2296,-2.2296,-2.2296,-2.2296,-2.2296,-2.2296,-2.2296,-2.2296,-2.2581,-2.3173,-2.319,-2.3477,-2.4068,-2.4068,-2.4068,-2.4051,-2.2852,-2.2296,0.0,0.0,0.0,0.0,0.0,0.0,0.0,0.0,0.0,0.0,0.0,-3.5238,0.0,0.0,-4.0536,-4.3521,-4.4621,-4.55,-4.6633,-4.6481,-4.6244,-4.6244,-4.5602,-4.5432,-4.6177,-4.5585,-4.5297,-4.5669,-4.5348,-4.4807,-4.4045,-4.2912,-4.2117,-4.1762,-4.0307,-3.9385,-3.8988,-3.8633,-3.8075,-3.7347,-3.7347,-3.6941,-3.6197,-3.6197,-3.5774,-3.5013,-3.4269,-3.3525,-3.278,-3.2056,-3.1532,-3.119,-3.119,-3.119,-3.119,-3.119,-3.119,-3.119,-3.119,-3.119,-3.119,-3.119,-3.119,-3.119,-3.119,-3.0937,-3.0497,-2.9753,-2.8991,-2.823,-2.7452,-2.6979,-2.6691,-2.6691,-2.6691,-2.6691,-2.6691,-2.6691,-2.6691,-2.6691,-2.6691,-2.6691,-2.6691,-2.6387,-2.5778,-2.4678,-2.4188,-2.3678,-2.2953,-2.2852,-2.2716,-2.233,-2.2296,-2.2296,-2.2296,-2.2296,-2.2296,-2.2296,-2.2296,-2.2465,-2.2835,-2.2852,-2.319,-2.3949,-2.3949,-2.4135,-2.4491,-2.4491,-2.4491,-2.4474,-2.3731,-2.3393,0.0,0.0,0.0,0.0,0.0,0.0,0.0,0.0,-3.5277,-3.552,-3.6789,-3.8691,-4.1373,-4.2455,-4.3656,-4.5788,-4.6515,-4.6786,-4.6786,-4.6041,-4.5432,-4.528,-4.5399,-4.5483,-4.5483,-4.5483,-4.5483,-4.5483,-4.5348,-4.4722,-4.346,-4.2557,-4.1745,-4.1018,-3.9681,-3.8853,-3.8565,-3.7973,-3.7313,-3.6575,-3.6423,-3.6011,-3.538,-3.5228,-3.4861,-3.4252,-3.3508,-3.2763,-3.2039,-3.1464,-3.119,-3.119,-3.119,-3.119,-3.119,-3.119,-3.119,-3.119,-3.119,-3.119,-3.119,-3.119,-3.119,-3.119,-3.119,-3.0784,-3.0125,-2.9247,-2.8535,-2.7824,-2.6928,-2.6691,-2.6691,-2.6691,-2.6691,-2.6691,-2.6691,-2.6691,-2.6691,-2.6691,-2.6691,-2.6691,-2.6691,-2.6691,-2.6437,-2.571,-2.5084,-2.4457,-2.3712,-2.3613,-2.3376,-2.2801,-2.2733,-2.2733,-2.2733,-2.2733,-2.2733,-2.2733,-2.2733,-2.2987,-2.3594,-2.3613,-2.3966,-2.4694,-2.4711,-2.4778,-2.4931,-2.4931,-2.4931,-2.4931,-2.4931,-2.4762,-3.079,-3.1452,-3.2202,-3.2109,-3.3458,-3.4909,0.0,0.0,-3.8031,-3.9249,-4.0663,-4.2185,-4.3921,-4.4807,-4.5838,-4.7411,-4.7175,-4.6786,-4.6786,-4.5613,-4.4451,-4.373,-4.4282,-4.4733,-4.4733,-4.4733,-4.4733,-4.4733,-4.4062,-4.3561,-4.3409,-4.2083,-4.1001,-4.0248,-3.9428,-3.8362,-3.7066,-3.6965,-3.6518,-3.5718,-3.5064,-3.4709,-3.459,-3.3947,-3.3609,-3.3491,-3.273,-3.2005,-3.1309,-3.1224,-3.119,-3.119,-3.119,-3.119,-3.119,-3.119,-3.119,-3.119,-3.119,-3.119,-3.119,-3.119,-3.119,-3.119,-3.119,-3.114,-3.0784,-2.9399,-2.8942,-2.8536,-2.708,-2.6691,-2.6691,-2.6691,-2.6691,-2.6691,-2.6691,-2.6691,-2.6691,-2.6691,-2.6691,-2.6691,-2.6691,-2.6691,-2.6437,-2.571,-2.5525,-2.5203,-2.4474,-2.4372,-2.4355,-2.4254,-2.4254,-2.4254,-2.4254,-2.4254,-2.4254,-2.4254,-2.4254,-2.4288,-2.4372,-2.4372,-2.4728,-2.5456,-2.549,-2.5795,-2.6454,-2.6454,-2.6454,-2.6454,-2.6454,-2.576,-3.2379,-3.3046,-3.4005,0.0,-3.6757,-3.7836,-3.8748,-3.9918,-4.1052,-4.2004,-4.2949,-4.4107,-4.5585,-4.5788,-4.6041,0.0,-4.6633,-4.6007,-4.5596,-4.4587,-4.347,-4.2269,-4.2422,-4.2777,-4.3227,-4.3278,-4.3278,-4.3278,-4.2946,-4.2574,-4.2151,-4.1542,-4.0679,-3.9495,-3.8751,-3.7855,-3.6812,-3.6332,-3.5723,-3.4962,-3.4641,-3.4269,-3.3846,-3.3541,-3.3169,-3.2713,-3.1989,-3.1478,-3.119,-3.119,-3.119,-3.119,-3.119,-3.119,-3.119,-3.119,-3.119,-3.119,-3.119,-3.119,-3.119,-3.119,-3.119,-3.119,-3.119,-3.0903,-3.0429,-2.9803,-2.9331,-2.8739,-2.7638,-2.7334,-2.7232,-2.6793,-2.6691,-2.6691,-2.6691,-2.6691,-2.6691,-2.6691,-2.6691,-2.6691,-2.6691,-2.6691,-2.659,-2.6285,-2.6234,-2.5964,-2.5236,-2.5135,-2.4982,-2.4541,-2.4491,-2.4491,-2.4491,-2.4491,-2.4491,-2.4491,-2.4491,-2.4694,-2.5118,-2.5135,-2.549,-2.6234,-2.6234,-2.6387,-2.6691,-2.6691,-2.6691,-2.6691,-2.6691,-2.6369,-3.3741,0.0,0.0,-3.847,-3.9711,-4.0654,-4.1591,-4.2531,-4.3348,-4.3931,-4.4391,-4.4965,-4.6003,-4.5754,-4.5635,-4.638,-4.5872,-4.5213,-4.4682,-4.3555,-4.231,-4.1052,-4.0544,-4.051,-4.1018,-4.1644,-4.1999,-4.1999,-4.1999,-4.1762,-4.1238,-4.1018,-4.0223,-3.8734,-3.8176,-3.7449,-3.6468,-3.569,-3.503,-3.4489,-3.4083,-3.3609,-3.3085,-3.2899,-3.2493,-3.1972,-3.1427,-3.119,-3.119,-3.119,-3.119,-3.119,-3.119,-3.119,-3.119,-3.119,-3.119,-3.119,-3.119,-3.119,-3.119,-3.119,-3.119,-3.119,-3.119,-3.0835,-3.0362,-3.0176,-2.9719,-2.911,-2.8349,-2.8128,-2.801,-2.7452,-2.7148,-2.6996,-2.6996,-2.6843,-2.6691,-2.6691,-2.6691,-2.6691,-2.6691,-2.6691,-2.6691,-2.6691,-2.6691,-2.6505,-2.5981,-2.5913,-2.5693,-2.5168,-2.5117,-2.5117,-2.5117,-2.5117,-2.5117,-2.5117,-2.5117,-2.5354,-2.5879,-2.5913,-2.615,-2.6691,-2.6691,-2.6691,-2.6691,-2.6691,-2.6691,-2.6691,-2.6691,-2.6691,0.0,0.0,-3.937,-3.9929,-4.1629,-4.3261,-4.3559,-4.4046,-4.4543,-4.4898,-4.4869,-4.4765,-4.4694,-4.4649,-4.4886,-4.5618,-4.5111,-4.4632,-4.4615,-4.2675,-4.0984,-4.0214,-3.8862,-3.8024,0.0,-3.9969,-4.1238,-4.1238,-4.1238,-4.1221,-4.1204,-4.051,-3.9469,-3.799,-3.7922,-3.7155,-3.565,-3.4895,-3.4506,-3.4472,-3.3055,-3.2361,-3.231,-3.1579,-3.1241,-3.1224,-3.1207,-3.119,-3.119,-3.119,-3.119,-3.119,-3.119,-3.119,-3.119,-3.119,-3.119,-3.119,-3.119,-3.119,-3.119,-3.119,-3.119,-3.119,-3.119,-3.1173,-3.1021,-3.0311,-3.0072,-2.9905,-2.9162,-2.8959,-2.8959,-2.8942,-2.8332,-2.7773,-2.7773,-2.7199,-2.6691,-2.6691,-2.6691,-2.6691,-2.6691,-2.6691,-2.6691,-2.6691,-2.6691,-2.6691,-2.6657,-2.6657,-2.6657,-2.664,-2.6623,-2.6623,-2.6623,-2.6623,-2.6623,-2.6623,-2.6623,-2.664,-2.6657,-2.6657,-2.6674,-2.6691,-2.6691,-2.6691,-2.6691,-2.6691,-2.6691,-2.6691,-2.6691,-2.6691,-3.7708,0.0,-4.2449,-4.4081,-4.5271,-4.6187,-4.6534,-4.6062,-4.5391,-4.4716,-4.3597,-4.2474,-4.1851,-4.1281,-4.1119,-4.1847,-4.2185,-4.2337,-4.2337,-4.1677,-4.0578,-3.8853,-3.821,0.0,0.0,0.0,-3.9732,-3.9732,-4.0172,-4.046,-4.046,-4.0231,-3.9436,-3.7956,-3.7905,-3.7178,-3.5616,-3.4861,-3.4252,-3.3744,-3.2273,-3.1582,-3.1546,-3.1309,-3.119,-3.119,-3.119,-3.119,-3.119,-3.119,-3.119,-3.119,-3.119,-3.119,-3.119,-3.119,-3.1151,-3.1092,-3.1171,-3.119,-3.119,-3.119,-3.119,-3.119,-3.119,-3.119,-3.114,-3.0903,-3.0835,-3.0666,-2.9922,-2.9736,-2.96,-2.9128,-2.8807,-2.8602,-2.8602,-2.7977,-2.7418,-2.7418,-2.7029,-2.6691,-2.6691,-2.6691,-2.6691,-2.6691,-2.6691,-2.6691,-2.6691,-2.6691,-2.6691,-2.6691,-2.6691,-2.6691,-2.6691,-2.6691,-2.6691,-2.6691,-2.6691,-2.6691,-2.6691,-2.6691,-2.6691,-2.6691,-2.6691,-2.6691,-2.6691,-2.6691,-2.6691,-2.6691,-2.6691,-2.6691,-4.0478,-4.2879,-4.5205,-4.7173,-4.7884,-4.807,-4.7922,-4.6699,-4.5052,-4.3304,-4.1447,-3.9747,-3.8527,-3.7814,-3.7719,-3.8759,-3.9749,-4.051,-4.0764,-4.0815,-4.0189,-3.8497,-3.8075,-3.7516,0.0,0.0,0.0,-3.8633,-3.9276,-3.9825,-4.0096,-4.0096,-3.9436,-3.7956,-3.7905,-3.7178,-3.5616,-3.4607,-3.3592,-3.2611,-3.1647,-3.119,-3.119,-3.119,-3.119,-3.119,-3.119,-3.119,-3.119,-3.119,-3.119,-3.119,-3.1151,-3.1131,-3.1131,-3.1052,-3.0972,-3.0915,-3.1055,-3.1112,-3.1092,-3.1092,-3.1092,-3.1092,-3.1052,-3.1052,-3.1092,-3.1032,-3.1072,-3.103,-3.0538,-3.0458,-3.0378,-2.9907,-2.9585,-2.9381,-2.9381,-2.8789,-2.823,-2.823,-2.7841,-2.752,-2.752,-2.752,-2.752,-2.752,-2.752,-2.7334,-2.6759,-2.6691,-2.6691,-2.6691,-2.6691,-2.6691,-2.6691,-2.6691,-2.6691,-2.6691,-2.6691,-2.6826,-2.708,-2.7097,-2.7232,-2.752,-2.752,-2.752,-2.752,-2.7232,-2.7097,-2.7097,-2.6826,-2.6691,-4.3039,-4.5461,-4.7644,-4.9104,-4.9332,-4.8894,-4.7729,-4.5889,-4.3622,-4.0748,-3.8625,-3.6698,0.0,0.0,-3.4827,-3.6389,-3.7912,-3.9165,-3.9943,-4.0087,-3.9834,0.0,0.0,0.0,0.0,0.0,0.0,-3.8024,-3.8633,-3.9343,-4.0062,-4.0062,-3.9377,-3.7956,-3.7872,-3.7104,-3.5616,-3.4163,-3.273,-3.1309,-3.1309,-3.1309,-3.1309,-3.1258,-3.1241,-3.1241,-3.1207,-3.1171,-3.1171,-3.1171,-3.1171,-3.1151,-3.1015,-3.0975,-3.0935,-3.0753,-3.0688,-3.0721,-3.0925,-3.0929,-3.0892,-3.0892,-3.0871,-3.0851,-3.0712,-3.0773,-3.0834,-3.0712,-3.0834,-3.0975,-3.0975,-3.1092,-3.119,-3.119,-3.0666,-3.0176,-3.0176,-2.9567,-2.9061,-2.9061,-2.9027,-2.8993,-2.8993,-2.8993,-2.8993,-2.8993,-2.8993,-2.8468,-2.7013,-2.681,-2.6793,-2.6759,-2.6759,-2.6742,-2.6691,-2.6691,-2.6691,-2.6691,-2.6725,-2.708,-2.7773,-2.7841,-2.823,-2.8993,-2.8993,-2.8993,-2.8993,-2.8229,-2.7858,-2.7841,-2.7148,-2.681,-4.5682,-4.7994,-4.9938,-5.034,-4.9893,-4.8928,-4.7327,-4.4504,-4.1427,-3.8704,-3.605,-3.3688,0.0,0.0,0.0,-3.4015,-3.5994,0.0,-3.9089,-3.9749,0.0,-3.9089,0.0,-3.8497,-3.7956,-3.8075,0.0,-3.8684,-3.9394,-3.991,-4.0096,-3.9588,-3.8853,-3.7939,-3.7364,-3.6603,-3.5616,-3.4675,-3.3744,-3.2848,-3.2848,-3.2848,-3.2831,-3.2256,-3.1962,-3.183,-3.1291,-3.0972,-3.0831,-3.0831,-3.0773,-3.0692,-3.0651,-3.0572,-3.0477,-3.0414,-3.057,-3.0766,-3.0832,-3.0744,-3.0609,-3.0609,-3.0514,-3.0452,-3.0414,-3.0431,-3.0452,-3.0414,-3.0576,-3.0773,-3.0773,-3.0915,-3.1055,-3.1055,-3.0979,-3.092,-3.092,-3.0345,-2.982,-2.982,-2.9382,-2.8993,-2.8993,-2.8993,-2.8993,-2.8993,-2.8993,-2.8857,-2.8468,-2.8417,-2.818,-2.757,-2.7519,-2.73,-2.6742,-2.6691,-2.6691,-2.6691,-2.7232,-2.7604,-2.779,-2.8383,-2.8807,-2.8993,-2.8993,-2.8993,-2.8993,-2.8807,-2.8687,-2.8705,-2.8502,-2.8417,-4.8268,-4.9994,-5.1334,-5.1334,-5.012,-4.8353,-4.6281,-4.2795,-3.9194,-3.6399,-3.36,0.0,-2.9711,-2.9886,0.0,0.0,0.0,0.0,-3.8311,-3.9411,-3.996,0.0,-3.9486,0.0,-3.8903,-3.887,-3.9039,-3.9445,-3.9571,-3.9622,-3.9622,-3.9208,-3.8497,-3.7449,-3.7032,-3.6096,-3.4636,-3.4539,-3.3943,-3.2812,-3.317,-3.3241,-3.3117,-3.2719,-3.2454,-3.2331,-3.1516,-3.11,-3.0978,-3.0638,-3.0443,-3.0359,-3.0236,-3.0331,-3.0489,-3.0285,-3.0512,-3.0911,-3.0792,-3.0663,-3.0619,-3.0861,-3.089,-3.0784,-3.0687,-3.0716,-3.0742,-3.0389,-3.0609,-3.0943,-3.099,-3.122,-3.1506,-3.1804,-3.1991,-3.2053,-3.1995,-3.1712,-3.1365,-3.1041,-3.0386,-2.9901,-2.9956,-2.9974,-2.9974,-2.9974,-2.9974,-2.9974,-2.9974,-2.9399,-2.884,-2.8383,-2.8332,-2.8163,-2.774,-2.7723,-2.7723,-2.7723,-2.8095,-2.8466,-2.8804,-2.9245,-2.9617,-2.9974,-2.9974,-2.9974,-2.9974,-2.9653,-2.9447,-2.9392,-2.9055,-2.8864,-5.0563,-5.1463,-5.194,-5.172,-4.9738,-4.713,-4.4474,-4.0684,-3.6859,-3.3834,0.0,-2.9118,-2.7894,-2.8235,-2.9179,-3.0666,0.0,-3.5836,-3.7381,-3.8954,-3.996,-3.996,-4.0045,-4.0096,-4.0096,-4.0096,-4.0062,-3.996,-3.9343,-3.8988,-3.8988,-3.8802,-3.8024,-3.6541,-3.6406,-3.5385,-3.3423,-3.4032,-3.3676,-3.2366,-3.2983,-3.3188,-3.3051,-3.2929,-3.2829,-3.2694,-3.1846,-3.1435,-3.1319,-3.0604,-3.0293,-3.025,-2.9996,-3.0254,-3.0708,-3.0315,-3.0562,-3.1083,-3.0855,-3.0799,-3.0923,-3.1288,-3.1372,-3.1323,-3.1092,-3.1216,-3.1245,-3.0585,-3.081,-3.1312,-3.1451,-3.1774,-3.2252,-3.2832,-3.3069,-3.3156,-3.3009,-3.3053,-3.2971,-3.2333,-3.1648,-3.1187,-3.1323,-3.1258,-3.119,-3.119,-3.119,-3.119,-3.119,-3.0093,-2.9247,-2.9162,-2.9145,-2.9111,-2.901,-2.8993,-2.8993,-2.8993,-2.9094,-2.9431,-3.0074,-3.0192,-3.0548,-3.119,-3.119,-3.119,-3.119,-3.0545,-3.015,-3.0022,-2.9362,-2.8963,-5.1701,-5.1885,-5.1665,-5.0363,-4.7645,-4.449,-4.1342,-3.779,0.0,0.0,-2.8911,-2.7319,-2.5743,-2.6364,-2.7605,-2.9128,0.0,0.0,0.0,0.0,-3.9174,0.0,0.0,0.0,-4.0096,-4.0096,0.0,-3.9225,-3.9056,-3.8988,-3.8988,-3.7821,-3.6491,-3.4967,-3.4303,-3.3795,-3.3406,-3.3474,-3.3602,-3.3756,-3.3706,-3.3945,-3.4343,-3.3623,-3.3172,-3.2901,-3.214,-3.1557,-3.1133,-3.0997,-3.0828,-3.0616,-3.0566,-3.0545,-3.0528,-3.0468,-3.0737,-3.1194,-3.1125,-3.1411,-3.1671,-3.1047,-3.075,-3.0664,-3.0613,-3.0715,-3.0836,-3.0867,-3.1237,-3.1652,-3.1848,-3.2239,-3.2625,-3.2718,-3.2912,-3.3009,-3.2862,-3.284,-3.285,-3.2859,-3.2341,-3.1941,-3.2104,-3.1616,-3.119,-3.119,-3.119,-3.119,-3.119,-3.097,-3.0581,-2.9973,-2.9922,-2.9651,-2.9044,-2.8993,-2.8993,-2.8993,-2.9567,-2.9973,-3.0089,-3.0683,-3.1072,-3.119,-3.119,-3.119,-3.119,-3.0957,-3.083,-3.0793,-3.0516,-3.0349,-5.2509,-5.2307,-5.161,-4.9978,-4.6783,-4.3206,-3.9833,0.0,0.0,0.0,-2.7297,-2.5905,-2.4917,0.0,0.0,0.0,0.0,0.0,0.0,0.0,0.0,0.0,0.0,0.0,0.0,-3.9537,-3.9208,-3.8481,-3.8058,-3.7862,-3.7862,-3.6388,-3.5048,-3.3895,-3.34,-3.2966,-3.2559,-3.2859,-3.2873,-3.2646,-3.3202,-3.3484,-3.3493,-3.336,-3.315,-3.2847,-3.2079,-3.1593,-3.1332,-3.0881,-3.0597,-3.0495,-3.0433,-3.0586,-3.083,-3.0681,-3.0989,-3.1513,-3.1386,-3.1526,-3.1677,-3.125,-3.1201,-3.127,-3.1189,-3.127,-3.1355,-3.1149,-3.1424,-3.1888,-3.2151,-3.2538,-3.2943,-3.3336,-3.3448,-3.3496,-3.355,-3.3161,-3.2875,-3.3162,-3.2724,-3.224,-3.2068,-3.184,-3.1547,-3.1142,-3.1151,-3.119,-3.119,-3.119,-3.1055,-3.0717,-3.0608,-3.0417,-3.0082,-3.001,-2.9991,-3.0049,-3.0367,-3.0608,-3.0683,-3.1004,-3.119,-3.119,-3.119,-3.119,-3.119,-3.1072,-3.0955,-3.0834,-3.0597,-3.0384,-5.2692,-5.2362,-5.1298,-4.9444,-4.5957,-4.1997,-3.8237,-3.392,0.0,0.0,-2.5873,-2.4706,-2.4215,0.0,-2.6234,0.0,0.0,0.0,0.0,0.0,0.0,0.0,0.0,0.0,-3.8819,-3.8751,0.0,-3.7719,-3.6806,-3.6321,-3.6321,-3.4941,-3.3809,-3.3064,-3.2615,-3.2081,-3.1473,-3.1891,-3.1775,-3.1175,-3.2059,-3.2416,-3.2295,-3.2641,-3.277,-3.2637,-3.2006,-3.1682,-3.1597,-3.0895,-3.0601,-3.0548,-3.0441,-3.0764,-3.1222,-3.097,-3.1232,-3.1698,-3.1539,-3.1511,-3.1511,-3.1511,-3.1683,-3.1883,-3.1756,-3.1841,-3.189,-3.1512,-3.172,-3.2139,-3.2449,-3.2933,-3.3514,-3.4249,-3.4211,-3.4047,-3.4302,-3.3586,-3.2996,-3.3421,-3.3018,-3.2465,-3.2027,-3.195,-3.1708,-3.1012,-3.0975,-3.1052,-3.1052,-3.1052,-3.1052,-3.1052,-3.1012,-3.0955,-3.0935,-3.0855,-3.0851,-3.0935,-3.0955,-3.1015,-3.1151,-3.119,-3.119,-3.119,-3.119,-3.119,-3.1151,-3.1012,-3.0834,-3.0593,-3.0305,-3.0,-5.1683,-5.1518,-5.0325,-4.792,-4.4287,-4.0054,-3.5152,0.0,0.0,-2.5332,-2.4299,-2.3719,-2.2787,-2.3214,-2.3934,0.0,0.0,-2.8517,0.0,0.0,0.0,0.0,0.0,0.0,-3.8024,-3.8007,-3.7702,-3.6965,-3.5543,-3.4709,-3.4709,-3.3874,-3.3009,-3.2148,-3.1199,-3.0634,-3.045,-3.0196,-3.0295,-3.0757,-3.0371,-3.0782,-3.1847,-3.1657,-3.1813,-3.2247,-3.2185,-3.2003,-3.1779,-3.169,-3.156,-3.1402,-3.1374,-3.1419,-3.1478,-3.145,-3.148,-3.1511,-3.1511,-3.1511,-3.1511,-3.1511,-3.1524,-3.1539,-3.1539,-3.1655,-3.1855,-3.2046,-3.2305,-3.2617,-3.296,-3.3699,-3.4547,-3.5356,-3.4886,-3.4302,-3.4441,-3.3789,-3.3308,-3.3777,-3.3371,-3.2835,-3.251,-3.1896,-3.1264,-3.0647,-3.0568,-3.0551,-3.0551,-3.0551,-3.0551,-3.0551,-3.0773,-3.0871,-3.0733,-3.0609,-3.0589,-3.0712,-3.0834,-3.0952,-3.1015,-3.1131,-3.119,-3.119,-3.119,-3.1151,-3.1015,-3.0814,-3.0593,-3.033,-2.9951,-2.9681,-4.8489,-4.8819,-4.7975,-4.5553,-4.2268,-3.8444,-3.3854,0.0,-2.7461,-2.4739,-2.3662,-2.3024,-2.2445,-2.2917,-2.3509,0.0,0.0,0.0,0.0,0.0,0.0,0.0,0.0,0.0,0.0,0.0,-3.6721,-3.5526,-3.4844,-3.4078,-3.3119,-3.2626,-3.1929,-3.0948,-2.9868,-2.9394,-2.9579,-2.8895,-2.8812,-2.9383,-2.9528,-2.9794,-3.015,-3.0762,-3.1073,-3.1207,-3.1602,-3.1726,-3.1626,-3.1626,-3.1568,-3.1511,-3.1511,-3.1511,-3.1511,-3.1511,-3.1511,-3.1511,-3.1511,-3.1511,-3.1511,-3.1511,-3.1511,-3.1511,-3.1511,-3.1568,-3.1655,-3.1883,-3.2383,-3.2872,-3.3113,-3.3792,-3.4509,-3.4831,-3.4576,-3.4167,-3.3902,-3.3507,-3.3181,-3.3139,-3.3061,-3.2854,-3.2392,-3.2328,-3.2118,-3.1463,-3.109,-3.0903,-3.0903,-3.058,-3.0295,-3.021,-3.0359,-3.0464,-3.0401,-3.0215,-3.0156,-3.038,-3.0443,-3.0746,-3.1341,-3.142,-3.1658,-3.2088,-3.2109,-3.185,-3.1358,-3.1113,-3.0668,-2.9989,-2.9627,-2.9259,-4.4966,-4.5682,-4.515,-4.2948,-3.9978,-3.6472,0.0,0.0,-2.6287,-2.4152,-2.3158,-2.2592,-2.2352,-2.2733,-2.3071,0.0,0.0,-2.5321,0.0,0.0,0.0,0.0,0.0,-3.5656,-3.5318,-3.5769,-3.565,-3.4547,-3.4035,-3.3224,-3.2035,-3.1332,-3.0615,-2.9873,-2.8888,-2.8389,-2.839,-2.7827,-2.7752,-2.8114,-2.8676,-2.8931,-2.8975,-2.9988,-3.0453,-3.0537,-3.1212,-3.1511,-3.1511,-3.1511,-3.1511,-3.1511,-3.1511,-3.1511,-3.1511,-3.1511,-3.1511,-3.1511,-3.1511,-3.1511,-3.1511,-3.1511,-3.1511,-3.154,-3.1735,-3.1795,-3.1824,-3.2013,-3.2654,-3.3346,-3.3662,-3.4147,-3.4635,-3.4834,-3.4607,-3.4272,-3.3946,-3.3446,-3.2989,-3.281,-3.278,-3.2627,-3.2102,-3.2336,-3.2357,-3.1646,-3.1276,-3.1055,-3.1055,-3.0635,-3.0322,-3.0277,-3.0322,-3.0315,-3.0298,-3.0028,-2.9984,-3.0216,-3.0304,-3.0664,-3.1347,-3.1627,-3.2012,-3.2539,-3.2539,-3.227,-3.1687,-3.1246,-3.0626,-2.981,-2.93,-2.8811,-4.1479,-4.2359,-4.1957,-4.026,-3.7424,-3.3894,0.0,0.0,-2.5323,-2.3245,-2.2699,-2.2542,-2.2338,-2.2296,-2.2313,-2.2313,0.0,0.0,-2.3444,0.0,0.0,0.0,0.0,-3.3728,-3.4438,-3.4452,-3.442,-3.4386,-3.2933,-3.1892,-3.1629,-2.9974,-2.9016,-2.9016,-2.8414,-2.7671,-2.6739,-2.7034,-2.7216,-2.7216,-2.7622,-2.8162,-2.8826,-2.936,-2.9924,-3.0537,-3.1212,-3.1511,-3.1511,-3.1511,-3.1511,-3.1511,-3.1511,-3.1511,-3.1511,-3.1511,-3.1511,-3.1511,-3.1511,-3.1511,-3.1511,-3.1511,-3.1511,-3.163,-3.2273,-3.2497,-3.2527,-3.266,-3.326,-3.4076,-3.4805,-3.4987,-3.5169,-3.5823,-3.5301,-3.4755,-3.4956,-3.3774,-3.2807,-3.3127,-3.2649,-3.2087,-3.1696,-3.1626,-3.1404,-3.0808,-3.0699,-3.0725,-3.0725,-3.0709,-3.076,-3.087,-3.077,-3.0654,-3.0504,-3.0259,-3.0165,-3.0275,-3.0557,-3.0741,-3.0817,-3.1687,-3.2194,-3.2217,-3.2217,-3.2094,-3.1909,-3.1096,-3.044,-2.9885,-2.8957,-2.8326,-3.5917,-3.7283,-3.7601,-3.5367,-3.356,-3.1347,-2.7569,0.0,-2.4516,-2.3033,-2.2659,-2.2542,-2.2338,-2.2296,-2.2296,-2.2296,-2.2499,0.0,0.0,0.0,0.0,-2.879,-3.1159,-3.2933,-3.3677,-3.3693,-3.34,-3.2815,-3.2121,-3.1409,-3.0678,-2.9345,-2.8528,-2.8377,-2.7001,-2.6205,-2.61,-2.6114,-2.6344,-2.6796,-2.7385,-2.7755,-2.8006,-2.8618,-2.9265,-2.9909,-3.0552,-3.1077,-3.1511,-3.1511,-3.1511,-3.1511,-3.1511,-3.1511,-3.1511,-3.1511,-3.1511,-3.1511,-3.1511,-3.1511,-3.1511,-3.1511,-3.1511,-3.163,-3.2288,-3.2512,-3.2706,-3.3651,-3.4117,-3.4464,-3.5155,-3.5336,-3.5396,-3.5606,-3.5454,-3.5136,-3.4734,-3.4267,-3.3832,-3.3472,-3.3291,-3.3046,-3.2437,-3.2529,-3.2468,-3.182,-3.1409,-3.1184,-3.1184,-3.0752,-3.0444,-3.0495,-3.0839,-3.0985,-3.084,-3.0604,-3.0489,-3.0588,-3.0588,-3.0842,-3.1464,-3.176,-3.2127,-3.2586,-3.2602,-3.2355,-3.1826,-3.1479,-3.0865,-3.0017,-2.9576,-2.9319,0.0,-3.2655,-3.3022,-3.1414,-3.009,0.0,0.0,0.0,-2.3656,-2.2802,-2.2582,-2.2487,-2.2338,-2.2296,-2.2296,-2.2296,-2.2296,-2.2733,0.0,0.0,0.0,-2.9501,0.0,-3.2577,-3.3292,-3.2975,-3.2474,-3.1857,-3.1252,-3.0516,-2.9599,-2.841,-2.7553,-2.7114,-2.5939,-2.5236,-2.504,-2.5415,-2.5809,-2.6228,-2.7165,-2.76,-2.7615,-2.8278,-2.8966,-2.9636,-3.0238,-3.0896,0.0,-3.1511,-3.1511,-3.1511,-3.1511,-3.1511,-3.1511,-3.1511,-3.1511,-3.1511,-3.1511,-3.1511,-3.1511,-3.1511,-3.1839,-3.2318,-3.2766,-3.3051,-3.3484,-3.4562,-3.4861,-3.4966,-3.5385,-3.5504,-3.5504,-3.5504,-3.5504,-3.5385,-3.4966,-3.4698,-3.4384,-3.3948,-3.3741,-3.3502,-3.3081,-3.317,-3.3181,-3.2757,-3.2405,-3.2203,-3.2203,-3.1794,-3.1414,-3.1211,-3.1536,-3.1674,-3.1387,-3.0988,-3.0755,-3.0819,-3.0766,-3.1019,-3.1568,-3.1885,-3.2222,-3.2641,-3.2641,-3.2412,-3.1944,-3.1493,-3.0846,-2.9993,-2.9795,-2.9729,0.0,0.0,0.0,0.0,0.0,0.0,0.0,0.0,0.0,-2.2555,-2.2446,-2.2394,-2.231,-2.2296,-2.2296,-2.2296,-2.2296,-2.2581,0.0,-2.4847,0.0,0.0,-3.1715,-3.2452,-3.3068,-3.2269,-3.1618,-3.138,-3.0375,-2.9371,-2.8506,-2.7318,-2.6259,-2.5392,-2.5194,-2.4685,-2.3797,-2.4942,-2.5555,-2.563,-2.6926,-2.754,-2.7615,-2.8233,-2.8891,-2.9577,-3.0163,-3.0821,-3.1436,-3.1481,-3.1511,-3.1511,-3.1511,-3.1511,-3.1511,-3.1511,-3.1511,-3.1511,-3.1511,-3.1511,-3.1511,-3.1511,-3.2392,-3.3499,-3.3499,-3.3978,-3.4713,-3.5325,-3.5504,-3.5504,-3.5504,-3.5504,-3.5504,-3.5504,-3.5504,-3.5504,-3.5504,-3.4996,-3.4578,-3.4578,-3.4053,-3.3619,-3.3574,-3.3559,-3.3544,-3.3499,-3.3499,-3.3499,-3.3499,-3.3499,-3.3321,-3.2795,-3.2764,-3.2567,-3.209,-3.1422,-3.1043,-3.1043,-3.1165,-3.1204,-3.1204,-3.1937,-3.2342,-3.2342,-3.2342,-3.2259,-3.2135,-3.1261,-3.0533,-2.9934,-2.9783,-2.9756,-2.4312,0.0,-2.6415,-2.5702,-2.507,0.0,0.0,0.0,0.0,0.0,0.0,0.0,0.0,-2.2296,-2.2296,-2.2296,-2.2296,-2.275,-2.4068,-2.6539,0.0,-2.9416,-3.0591,-3.1352,-3.1456,-3.0979,-3.053,-3.0223,-2.9624,-2.8881,-2.8014,-2.6907,-2.5937,-2.5131,-2.4483,-2.3969,-2.3653,-2.4448,-2.5083,-2.5615,-2.6437,-2.7106,-2.76,-2.7764,-2.8214,-2.8861,-2.952,-3.0163,-3.0763,-3.1286,-3.1511,-3.1511,-3.1511,-3.1511,-3.1511,-3.1511,-3.1511,-3.1511,-3.1511,-3.1511,-3.1511,-3.1511,-3.2392,-3.3499,-3.3499,-3.4322,-3.5295,-3.5459,-3.5504,-3.5504,-3.5504,-3.5504,-3.5504,-3.5504,-3.5504,-3.5504,-3.5504,-3.5385,-3.5265,-3.5265,-3.5145,-3.4861,-3.4369,-3.4279,-3.4099,-3.3574,-3.3499,-3.3499,-3.3499,-3.3499,-3.3455,-3.3336,-3.3321,-3.3051,-3.2436,-3.1891,-3.1615,-3.1615,-3.1515,-3.1443,-3.1443,-3.1607,-3.1726,-3.1726,-3.1726,-3.1697,-3.1668,-3.1432,-3.1254,-3.1104,-3.1076,-3.1047,-2.2982,-2.3766,-2.4476,-2.391,-2.364,-2.3354,0.0,0.0,0.0,0.0,0.0,0.0,0.0,0.0,-2.2398,-2.275,-2.2801,-2.3562,0.0,0.0,-2.9154,-2.9829,-3.0468,-3.0814,-3.0634,-3.0288,-2.9778,-2.9079,-2.8638,-2.7873,-2.6667,-2.5938,-2.5212,-2.4463,-2.3978,-2.3674,-2.3595,-2.4261,-2.4933,-2.5615,-2.6273,-2.6956,-2.76,-2.76,-2.7974,-2.8637,-2.9295,-2.9924,-3.0552,-3.1212,-3.1511,-3.1511,-3.1511,-3.1511,-3.1511,-3.1511,-3.1511,-3.1511,-3.1511,-3.1705,-3.1959,-3.1959,-3.2871,-3.3948,-3.3948,-3.4681,-3.5504,-3.5504,-3.5504,-3.5504,-3.5504,-3.5504,-3.5504,-3.5504,-3.5504,-3.5504,-3.5504,-3.5504,-3.5504,-3.5504,-3.5504,-3.5385,-3.5011,-3.4951,-3.4831,-3.4472,-3.4412,-3.4412,-3.4412,-3.4412,-3.4292,-3.3978,-3.3948,-3.3679,-3.3021,-3.2736,-3.2315,-3.17,-3.1568,-3.1511,-3.1511,-3.1511,-3.1511,-3.1511,-3.1511,-3.1511,-3.1511,-3.1511,-3.1511,-3.1511,-3.1511,-3.1511,-2.2738,-2.285,-2.2957,-2.2803,-2.2712,-2.2619,0.0,0.0,0.0,0.0,0.0,0.0,0.0,-2.2381,0.0,0.0,0.0,0.0,-2.7283,-2.8393,-2.9431,-3.0656,-3.0707,-3.0481,-3.0119,-2.974,-2.9057,-2.7936,-2.754,-2.6718,-2.5214,-2.4902,-2.4453,-2.379,-2.3674,-2.3595,-2.3595,-2.4156,-2.4829,-2.5615,-2.6183,-2.6866,-2.76,-2.76,-2.7914,-2.8487,-2.925,-2.9879,-3.0417,-3.1182,-3.1511,-3.1511,-3.1511,-3.1511,-3.1511,-3.1511,-3.1511,-3.1511,-3.1615,-3.2079,-3.2662,-3.2662,-3.3484,-3.4503,-3.4503,-3.4966,-3.5504,-3.5504,-3.5504,-3.5504,-3.5504,-3.5504,-3.5504,-3.5504,-3.5504,-3.5504,-3.5504,-3.5504,-3.5504,-3.5504,-3.5504,-3.5504,-3.5504,-3.5504,-3.5504,-3.5504,-3.5504,-3.5504,-3.5504,-3.5504,-3.528,-3.4728,-3.4668,-3.4367,-3.3709,-3.3649,-3.3125,-3.1884,-3.1809,-3.1765,-3.166,-3.1555,-3.1511,-3.1511,-3.1511,-3.1511,-3.1511,-3.1511,-3.1511,-3.1511,-3.1511,-3.1511,-2.2474,-2.2487,-2.2528,-2.2605,-2.2542,-2.2432,0.0,0.0,0.0,0.0,0.0,0.0,0.0,-2.2818,-2.3274,0.0,0.0,-2.6336,-2.681,-2.8512,-2.9765,-2.9903,-3.0125,-2.9943,-2.9116,-2.8515,-2.7787,-2.6816,-2.6442,-2.5834,-2.4911,-2.4702,-2.4335,-2.3646,-2.3595,-2.3595,-2.3595,-2.3699,-2.4373,-2.5615,-2.5704,-2.6393,-2.76,-2.76,-2.766,-2.7824,-2.9067,-2.9666,-2.9846,-3.1002,-3.1511,-3.1511,-3.1511,-3.1511,-3.1511,-3.1511,-3.1511,-3.1585,-3.2138,-3.2796,-3.335,-3.335,-3.3858,-3.4503,-3.4503,-3.4966,-3.5504,-3.5504,-3.5504,-3.5504,-3.5504,-3.5504,-3.5504,-3.5504,-3.5504,-3.5504,-3.5504,-3.5504,-3.5504,-3.5504,-3.5504,-3.5504,-3.5504,-3.5504,-3.5504,-3.5504,-3.5504,-3.5504,-3.5504,-3.5504,-3.5459,-3.5355,-3.5355,-3.507,-3.4414,-3.4354,-3.4039,-3.3245,-3.3185,-3.2946,-3.2363,-3.1795,-3.1511,-3.1511,-3.1511,-3.1511,-3.1511,-3.1511,-3.1511,-3.1511,-3.1511,-3.1511,-2.2349,-2.2352,-2.2366,-2.2419,-2.2377,-2.2352,0.0,0.0,0.0,0.0,0.0,0.0,0.0,0.0,-2.3782,-2.4983,-2.6336,-2.7518,-2.8328,-2.9118,-2.9596,-2.9497,-2.9365,-2.8904,-2.7961,-2.7385,-2.6705,-2.576,-2.5491,-2.4987,-2.4176,-2.4081,-2.3924,-2.361,-2.3595,-2.3595,-2.3595,-2.3595,-2.4103,-2.5053,-2.5435,-2.6108,-2.7076,-2.7435,-2.76,-2.7645,-2.8622,-2.9277,-2.9681,-3.0597,-3.1167,-3.1511,-3.1511,-3.1511,-3.154,-3.1914,-3.2034,-3.2123,-3.2826,-3.3469,-3.4054,-3.4054,-3.4487,-3.504,-3.504,-3.525,-3.5504,-3.5504,-3.5504,-3.5504,-3.5504,-3.5504,-3.5504,-3.5504,-3.5504,-3.5504,-3.5504,-3.5504,-3.5504,-3.5504,-3.5504,-3.5504,-3.5504,-3.5504,-3.5504,-3.5504,-3.5504,-3.5504,-3.5504,-3.5504,-3.5504,-3.5504,-3.5504,-3.5385,-3.5055,-3.504,-3.4592,-3.3559,-3.3499,-3.3365,-3.3051,-3.2392,-3.2034,-3.2034,-3.169,-3.1511,-3.1511,-3.1511,-3.1511,-3.1511,-3.1511,-3.1511,-2.2296,-2.2296,-2.2296,-2.2296,0.0,0.0,0.0,0.0,0.0,0.0,0.0,0.0,0.0,-2.3038,0.0,-2.637,-2.7417,-2.8339,-2.9446,-2.9476,-2.9316,-2.9194,-2.8548,-2.7752,-2.6819,-2.6286,-2.5656,-2.4787,-2.4594,-2.4258,-2.3625,-2.3595,-2.3595,-2.3595,-2.3595,-2.3595,-2.3595,-2.3595,-2.3939,-2.4605,-2.5113,-2.5809,-2.6626,-2.7136,-2.745,-2.763,-2.8308,-2.8966,-2.9651,-3.0253,-3.0883,-3.1511,-3.1511,-3.1511,-3.1585,-3.2243,-3.2617,-3.2841,-3.3499,-3.4158,-3.4711,-3.4711,-3.507,-3.5504,-3.5504,-3.5504,-3.5504,-3.5504,-3.5504,-3.5504,-3.5504,-3.5504,-3.5504,-3.5504,-3.5504,-3.5504,-3.5504,-3.5504,-3.5504,-3.5504,-3.5504,-3.5504,-3.5504,-3.5504,-3.5504,-3.5504,-3.5504,-3.5504,-3.5504,-3.5504,-3.5504,-3.5504,-3.5504,-3.5504,-3.5504,-3.5504,-3.507,-3.4023,-3.3814,-3.3724,-3.3724,-3.3095,-3.2677,-3.2512,-3.1989,-3.166,-3.1511,-3.1511,-3.1511,-3.1511,-3.1511,-3.1467,-2.2296,-2.2296,-2.2296,-2.2296,-2.2296,0.0,0.0,0.0,0.0,0.0,0.0,0.0,0.0,-2.346,-2.4914,-2.6454,-2.7838,-2.8705,-2.8693,-2.9042,-2.9194,-2.8867,-2.7758,-2.6643,-2.5699,-2.519,-2.4647,-2.3939,-2.3771,-2.3676,-2.3595,-2.3595,-2.3595,-2.3595,-2.3595,-2.3595,-2.3595,-2.3595,-2.3939,-2.4605,-2.4649,-2.5337,-2.6587,-2.6632,-2.7016,-2.763,-2.8308,-2.8966,-2.9651,-3.0253,-3.0883,-3.1511,-3.1511,-3.1511,-3.1585,-3.2243,-3.2901,-3.3514,-3.4219,-3.4861,-3.5429,-3.5429,-3.5459,-3.5504,-3.5504,-3.5504,-3.5504,-3.5504,-3.5504,-3.5504,-3.5504,-3.5504,-3.5504,-3.5504,-3.5504,-3.5504,-3.5504,-3.5504,-3.5504,-3.5504,-3.5504,-3.5504,-3.5504,-3.5504,-3.5504,-3.5504,-3.5504,-3.5504,-3.5504,-3.5504,-3.5504,-3.5504,-3.5504,-3.5504,-3.5504,-3.5504,-3.5459,-3.537,-3.4756,-3.4444,-3.4444,-3.3769,-3.314,-3.2497,-3.2437,-3.2108,-3.1511,-3.1511,-3.1511,-3.1511,-3.1511,-3.1438,-2.2032,-2.2046,-2.2092,-2.2211,0.0,0.0,0.0,0.0,0.0,0.0,-2.3528,0.0,0.0,0.0,-2.4889,-2.6218,-2.7179,-2.7864,-2.8252,-2.8196,-2.789,-2.7254,-2.6104,-2.4999,-2.4153,-2.3339,-2.278,-2.2525,-2.2448,-2.2592,-2.3017,-2.2637,-2.2772,-2.3565,-2.3236,-2.3227,-2.3595,-2.3595,-2.3729,-2.3984,-2.4395,-2.4874,-2.5367,-2.6213,-2.6746,-2.7031,-2.7705,-2.8603,-2.9636,-2.9834,-3.0567,-3.1511,-3.1511,-3.1511,-3.163,-3.2736,-3.3275,-3.3649,-3.4741,-3.5295,-3.5504,-3.5504,-3.5504,-3.5504,-3.5504,-3.5504,-3.5504,-3.5504,-3.5504,-3.5504,-3.5504,-3.5504,-3.5504,-3.5504,-3.5504,-3.5504,-3.5504,-3.5504,-3.5504,-3.5504,-3.5504,-3.5504,-3.5504,-3.5504,-3.5504,-3.5504,-3.5504,-3.5504,-3.5504,-3.5504,-3.5504,-3.5504,-3.5504,-3.5504,-3.5504,-3.5504,-3.5504,-3.5504,-3.5265,-3.5115,-3.5115,-3.4488,-3.3978,-3.3739,-3.2931,-3.2392,-3.2108,-3.1705,-3.1467,-3.138,-3.138,-3.1234,-2.1764,-2.1794,-2.1871,0.0,0.0,0.0,0.0,0.0,0.0,0.0,-2.3949,0.0,-2.3961,0.0,0.0,-2.6095,-2.6675,-2.7145,-2.7539,-2.703,-2.6384,-2.5781,-2.4491,-2.3401,-2.2822,-2.2124,-2.1695,-2.1695,-2.1695,-2.1889,-2.2358,-2.1934,-2.2188,-2.3266,-2.2927,-2.3002,-2.3595,-2.3595,-2.3595,-2.361,-2.4066,-2.4395,-2.4649,-2.5779,-2.6393,-2.6632,-2.7315,-2.8364,-2.9606,-2.9606,-3.0357,-3.1511,-3.1511,-3.1511,-3.166,-3.3006,-3.3499,-3.3679,-3.504,-3.5504,-3.5504,-3.5504,-3.5504,-3.5504,-3.5504,-3.5504,-3.5504,-3.5504,-3.5504,-3.5504,-3.5504,-3.5504,-3.5504,-3.5504,-3.5504,-3.5504,-3.5504,-3.5504,-3.5504,-3.5504,-3.5504,-3.5504,-3.5504,-3.5504,-3.5504,-3.5504,-3.5504,-3.5504,-3.5504,-3.5504,-3.5504,-3.5504,-3.5504,-3.5504,-3.5504,-3.5504,-3.5504,-3.5504,-3.5504,-3.5504,-3.5504,-3.5055,-3.4728,-3.4503,-3.3589,-3.3036,-3.2826,-3.2273,-3.1961,-3.1842,-3.1722,-3.1437,-2.1477,-2.1586,-2.1694,0.0,0.0,0.0,0.0,0.0,0.0,0.0,0.0,-2.4697,-2.536,-2.538,-2.548,-2.6091,-2.651,-2.6717,-2.6498,-2.5556,-2.4811,-2.46,-2.3038,-2.194,-2.1807,-2.1724,-2.168,-2.168,-2.168,-2.168,-2.168,-2.168,-2.1999,-2.2673,-2.2688,-2.2987,-2.3595,-2.3595,-2.3595,-2.3595,-2.3595,-2.3954,-2.4619,-2.5277,-2.5959,-2.6641,-2.73,-2.8364,-2.9606,-2.9621,-3.0357,-3.1511,-3.1511,-3.1511,-3.166,-3.3006,-3.3499,-3.3679,-3.504,-3.5504,-3.5504,-3.5504,-3.5504,-3.5504,-3.5504,-3.5504,-3.5504,-3.5504,-3.5504,-3.5504,-3.5504,-3.5504,-3.5504,-3.5504,-3.5504,-3.5504,-3.5504,-3.5504,-3.5504,-3.5504,-3.5504,-3.5504,-3.5504,-3.5504,-3.5504,-3.5504,-3.5504,-3.5504,-3.5504,-3.5504,-3.5504,-3.5504,-3.5504,-3.5504,-3.5504,-3.5504,-3.5504,-3.5504,-3.5504,-3.5504,-3.5504,-3.5504,-3.5175,-3.4533,-3.4518,-3.4158,-3.3499,-3.3285,-3.3099,-3.2972,-3.2564,-3.2101,-2.0974,-2.1039,0.0,-2.1356,0.0,0.0,0.0,0.0,0.0,0.0,-2.4991,-2.5026,-2.4431,-2.4612,-2.4817,-2.4685,-2.5067,-2.5175,-2.4489,-2.3978,-2.3515,-2.2978,-2.1919,-2.1197,-2.1178,-2.0648,-2.0292,-2.0292,-2.0292,-2.0498,-2.0976,-2.0543,-2.1041,-2.2643,-2.2239,-2.2503,-2.3595,-2.3595,-2.3595,-2.3595,-2.3595,-2.3699,-2.3939,-2.5091,-2.5719,-2.5959,-2.7106,-2.8364,-2.9681,-3.0582,-3.1152,-3.1511,-3.1511,-3.1511,-3.166,-3.3006,-3.3499,-3.3679,-3.504,-3.5504,-3.5504,-3.5504,-3.5504,-3.5504,-3.5504,-3.5504,-3.5504,-3.5504,-3.5504,-3.5504,-3.5504,-3.5504,-3.5504,-3.5504,-3.5504,-3.5504,-3.5504,-3.5504,-3.5504,-3.5504,-3.5504,-3.5504,-3.5504,-3.5504,-3.5504,-3.5504,-3.5504,-3.5504,-3.5504,-3.5504,-3.5504,-3.5504,-3.5504,-3.5504,-3.5504,-3.5504,-3.5439,-3.5294,-3.5294,-3.5359,-3.5504,-3.5359,-3.5204,-3.4996,-3.4295,-3.3827,-3.3635,-3.2974,-3.2501,-3.2227,-3.1972,-3.1453,-2.0561,-2.0628,0.0,-2.0893,-2.0958,-2.1199,-2.2037,0.0,0.0,0.0,-2.5748,-2.5447,-2.4362,-2.4386,-2.4351,-2.3639,-2.373,-2.3678,-2.308,-2.2589,-2.2128,-2.1732,-2.0929,-2.0429,-2.0429,-1.9984,-1.9708,-1.9708,-1.9708,-1.9887,-2.0288,-1.9914,-2.0501,-2.2254,-2.1904,-2.2308,-2.3595,-2.3595,-2.3595,-2.3595,-2.3595,-2.3595,-2.364,-2.4694,-2.5337,-2.5704,-2.7585,-2.8858,-2.9711,-3.0957,-3.1511,-3.1511,-3.1511,-3.1511,-3.166,-3.3006,-3.3499,-3.3679,-3.504,-3.5504,-3.5504,-3.5504,-3.5504,-3.5504,-3.5504,-3.5504,-3.5504,-3.5504,-3.5504,-3.5504,-3.5504,-3.5504,-3.5504,-3.5504,-3.5504,-3.5504,-3.5504,-3.5504,-3.5504,-3.5504,-3.5504,-3.5504,-3.5504,-3.5504,-3.5504,-3.5504,-3.5504,-3.5504,-3.5504,-3.5504,-3.5504,-3.5504,-3.5504,-3.5504,-3.5504,-3.5439,-3.5294,-3.5082,-3.4949,-3.4916,-3.4935,-3.4983,-3.4916,-3.4754,-3.4159,-3.3823,-3.3723,-3.3068,-3.2597,-3.2342,-3.1894,-3.1364,-2.0252,0.0,0.0,-2.0376,-2.0443,0.0,-2.2524,-2.3402,-2.4348,-2.5909,0.0,-2.5767,-2.4809,-2.4414,-2.3903,-2.2886,-2.2549,-2.2358,-2.2106,-2.1383,-2.0858,-2.0798,-2.0152,-1.9708,-1.9708,-1.9708,-1.9708,-1.9708,-1.9708,-1.9708,-1.9708,-1.9708,-2.0322,-2.165,-2.1695,-2.2308,-2.3595,-2.3595,-2.3595,-2.3595,-2.3595,-2.3595,-2.3625,-2.4291,-2.4993,-2.5839,-2.8382,-2.9547,-2.9711,-3.0957,-3.1511,-3.1511,-3.1511,-3.1511,-3.166,-3.3006,-3.3499,-3.3679,-3.504,-3.5504,-3.5504,-3.5504,-3.5504,-3.5504,-3.5504,-3.5504,-3.5504,-3.5504,-3.5504,-3.5504,-3.5504,-3.5504,-3.5504,-3.5504,-3.5504,-3.5504,-3.5504,-3.5504,-3.5504,-3.5504,-3.5504,-3.5504,-3.5504,-3.5504,-3.5504,-3.5504,-3.5504,-3.5504,-3.5504,-3.5504,-3.5504,-3.5504,-3.5472,-3.5472,-3.5472,-3.5294,-3.5049,-3.4835,-3.4501,-3.4216,-3.3948,-3.4366,-3.4399,-3.4051,-3.3968,-3.3831,-3.3644,-3.329,-3.3009,-3.2832,-3.2064,-3.1529,-1.9887,-1.9922,0.0,0.0,-2.0325,-2.0763,-2.175,-2.2217,-2.3086,-2.5293,-2.5352,-2.4839,-2.4273,-2.3504,-2.282,-2.2244,-2.2056,-2.1719,-2.1106,-2.0854,-2.055,-2.001,-1.9816,-1.9708,-1.9708,-1.9708,-1.9708,-1.9708,-1.9708,-1.9708,-1.9708,-1.9708,-2.0322,-2.165,-2.1695,-2.2308,-2.3595,-2.3595,-2.3595,-2.3595,-2.3595,-2.3595,-2.3625,-2.4291,-2.5247,-2.6467,-2.8113,-2.9101,-2.9711,-3.0957,-3.1511,-3.1511,-3.1511,-3.1511,-3.166,-3.3006,-3.3499,-3.3679,-3.504,-3.5504,-3.5504,-3.5504,-3.5504,-3.5504,-3.5504,-3.5504,-3.5504,-3.5504,-3.5504,-3.5504,-3.5504,-3.5504,-3.5504,-3.5504,-3.5504,-3.5504,-3.5504,-3.5504,-3.5504,-3.5504,-3.5504,-3.5504,-3.5504,-3.5504,-3.5504,-3.5504,-3.5504,-3.5504,-3.5504,-3.5504,-3.5504,-3.5504,-3.5359,-3.5261,-3.5261,-3.4983,-3.465,-3.4283,-3.3914,-3.3416,-3.2797,-3.3304,-3.3548,-3.3479,-3.2832,-3.2511,-3.2475,-3.2064,-3.1773,-3.1589,-3.1283,-3.096,-1.9744,0.0,0.0,-1.9871,0.0,-2.0371,-2.1175,-2.1526,-2.2112,-2.3679,-2.3898,-2.3599,-2.2933,-2.2318,-2.1704,-2.1064,-2.0892,-2.0696,-2.0292,-2.0228,-2.0094,-1.9753,-1.9708,-1.9708,-1.9708,-1.9708,-1.9708,-1.9708,-1.9708,-1.9708,-1.9708,-1.9708,-2.0322,-2.165,-2.1695,-2.2308,-2.3595,-2.3595,-2.3595,-2.3595,-2.3595,-2.3595,-2.3625,-2.4291,-2.5158,-2.6198,-2.753,-2.8667,-2.9654,-3.0642,-3.1212,-3.1511,-3.1511,-3.1705,-3.2093,-3.3125,-3.3694,-3.4113,-3.5145,-3.5504,-3.5504,-3.5504,-3.5504,-3.5504,-3.5504,-3.5504,-3.5504,-3.5504,-3.5504,-3.5504,-3.5504,-3.5504,-3.5504,-3.5504,-3.5504,-3.5504,-3.5504,-3.5504,-3.5504,-3.5504,-3.5504,-3.5504,-3.5504,-3.5504,-3.5504,-3.5504,-3.5439,-3.5359,-3.5359,-3.5261,-3.5213,-3.5213,-3.5063,-3.4931,-3.4817,-3.4385,-3.3962,-3.3597,-3.303,-3.2484,-3.2019,-3.2019,-3.2114,-3.2282,-3.1896,-3.1653,-3.1556,-3.1259,-3.106,-3.096,-3.0672,-3.0457,0.0,0.0,-1.9708,-1.9708,-1.9744,0.0,-2.064,-2.0944,-2.1224,-2.1793,-2.2235,-2.2319,-2.1556,-2.1172,-2.0697,-1.9906,-1.978,-1.9762,-1.9708,-1.9708,-1.9708,-1.9708,-1.9708,-1.9708,-1.9708,-1.9708,-1.9708,-1.9708,-1.9708,-1.9708,-1.9708,-1.9708,-2.0322,-2.165,-2.1695,-2.2308,-2.3595,-2.3595,-2.3595,-2.3595,-2.3595,-2.3595,-2.3625,-2.4171,-2.4859,-2.5674,-2.6911,-2.8259,-2.9651,-3.0253,-3.0883,-3.1511,-3.1511,-3.1839,-3.2407,-3.3215,-3.3844,-3.4459,-3.5235,-3.5504,-3.5504,-3.5504,-3.5504,-3.5504,-3.5504,-3.5504,-3.5504,-3.5504,-3.5504,-3.5504,-3.5504,-3.5504,-3.5504,-3.5504,-3.5504,-3.5504,-3.5504,-3.5504,-3.5504,-3.5504,-3.5504,-3.5504,-3.5439,-3.5439,-3.5439,-3.5374,-3.5228,-3.5082,-3.5082,-3.4902,-3.4754,-3.4754,-3.4568,-3.438,-3.423,-3.3638,-3.3136,-3.2797,-3.2064,-3.1566,-3.1408,-3.0874,-3.0723,-3.0934,-3.0972,-3.0947,-3.0836,-3.066,-3.0546,-3.0546,-3.0203,-3.0049,0.0,0.0,-1.9708,0.0,-1.9744,-1.9827,0.0,0.0,-2.021,0.0,-2.0942,-2.142,-2.1124,-2.0488,-1.9921,-1.9741,-1.9708,-1.9708,-1.9708,-1.9708,-1.9708,-1.9708,-1.9708,-1.9708,-1.9708,-1.9708,-1.9708,-1.9708,-1.9708,-1.9708,-1.9708,-1.9708,-2.0322,-2.165,-2.1695,-2.2308,-2.3595,-2.3595,-2.3595,-2.3595,-2.3595,-2.3595,-2.3595,-2.3684,-2.4418,-2.5644,-2.6393,-2.7814,-2.9651,-3.0253,-3.0883,-3.1511,-3.1511,-3.1555,-3.1795,-3.3036,-3.3559,-3.3799,-3.507,-3.5504,-3.5504,-3.5504,-3.5504,-3.5504,-3.5504,-3.5504,-3.5504,-3.5504,-3.5504,-3.5504,-3.5504,-3.5504,-3.5504,-3.5504,-3.5504,-3.5504,-3.5504,-3.5504,-3.5504,-3.5504,-3.5504,-3.5439,-3.5261,-3.5261,-3.5129,-3.4831,-3.4798,-3.4683,-3.4515,-3.4337,-3.4221,-3.4221,-3.3791,-3.3479,-3.3444,-3.2725,-3.2187,-3.1978,-3.1431,-3.0936,-3.0596,-3.0305,-3.0126,-2.9972,-3.0152,-3.0228,-3.0228,-3.0023,-2.9908,-2.9908,-2.9869,-2.983,-1.9614,-1.9672,-1.9708,0.0,-1.9726,-1.9744,-1.9744,-1.978,-1.983,-1.983,-2.0131,-2.04,-2.0343,-2.0011,-1.9726,-1.9708,-1.9708,-1.9708,-1.9708,-1.9708,-1.9708,-1.9708,-1.9708,-1.9708,-1.9708,-1.9708,-1.9708,-1.9708,-1.9708,-1.9708,-1.9708,-1.9708,-2.0142,-2.1111,-2.15,-2.2143,-2.3092,-2.343,-2.3595,-2.3595,-2.3595,-2.3595,-2.3595,-2.3595,-2.4328,-2.563,-2.5914,-2.7171,-2.9086,-2.9729,-3.0372,-3.0972,-3.1346,-3.1735,-3.2123,-3.2736,-3.3185,-3.3634,-3.4592,-3.4936,-3.4996,-3.5385,-3.5504,-3.5504,-3.5504,-3.5504,-3.5504,-3.5504,-3.5504,-3.5504,-3.5504,-3.5504,-3.5472,-3.5359,-3.5326,-3.5294,-3.5096,-3.5309,-3.5472,-3.5359,-3.5326,-3.5228,-3.4964,-3.4817,-3.4668,-3.4385,-3.4113,-3.3874,-3.3805,-3.35,-3.3325,-3.3325,-3.2903,-3.2583,-3.2461,-3.1873,-3.1408,-3.1222,-3.0748,-3.0419,-3.0228,-3.0049,-2.9908,-2.9792,-2.9908,-2.9934,-2.9934,-2.983,-2.9792,-2.9792,-2.9792,-2.9702,0.0,0.0,-1.9617,-1.9654,-1.9672,-1.9672,0.0,0.0,-1.9708,-1.9708,-1.9708,-1.9726,-1.9762,-1.9726,-1.9708,-1.9708,-1.9708,-1.9708,-1.9708,-1.9708,-1.9708,-1.9708,-1.9708,-1.969,-1.9687,-1.9672,-1.9654,-1.9599,-1.9599,-1.9599,-1.9599,-1.9599,-1.993,-2.062,-2.1296,-2.1989,-2.2688,-2.3295,-2.3595,-2.3595,-2.3595,-2.3595,-2.3595,-2.3595,-2.4328,-2.5615,-2.5615,-2.6752,-2.8652,-2.931,-2.9953,-3.0567,-3.1241,-3.1809,-3.2258,-3.2452,-3.2826,-3.3335,-3.3993,-3.4369,-3.4593,-3.507,-3.537,-3.5504,-3.5439,-3.5439,-3.5407,-3.5309,-3.5309,-3.5261,-3.5228,-3.5228,-3.5195,-3.5016,-3.4968,-3.4868,-3.4731,-3.4964,-3.5162,-3.5016,-3.4949,-3.4802,-3.4467,-3.423,-3.4011,-3.3638,-3.3255,-3.2952,-3.2868,-3.2547,-3.2331,-3.2331,-3.1982,-3.169,-3.1529,-3.1073,-3.0723,-3.0546,-3.0241,-3.0011,-3.0011,-2.9869,-2.9792,-2.9792,-2.9792,-2.9792,-2.9792,-2.9792,-2.9792,-2.9792,-2.974,-2.956,0.0,-1.9321,0.0,-1.9556,0.0,0.0,0.0,0.0,-1.9708,-1.9708,-1.9708,-1.9708,-1.9708,-1.9708,-1.9708,-1.9708,-1.9708,-1.9708,-1.9708,-1.9708,-1.9708,-1.9708,-1.9708,-1.9687,-1.9611,-1.9611,-1.9538,-1.9339,-1.9321,-1.9321,-1.9321,-1.9321,-1.9693,-2.0499,-2.1164,-2.1893,-2.2688,-2.3295,-2.3595,-2.3595,-2.3595,-2.3595,-2.3595,-2.3595,-2.4328,-2.5615,-2.5615,-2.6752,-2.8652,-2.931,-2.9953,-3.0567,-3.1241,-3.1525,-3.163,-3.2258,-3.2512,-3.2662,-3.332,-3.3979,-3.4518,-3.4548,-3.4966,-3.5472,-3.5261,-3.5213,-3.5148,-3.4831,-3.4731,-3.4698,-3.4515,-3.4448,-3.4448,-3.4448,-3.4317,-3.4269,-3.4616,-3.4563,-3.4448,-3.4448,-3.4283,-3.4036,-3.3644,-3.3465,-3.3094,-3.2309,-3.2164,-3.2005,-3.1663,-3.1405,-3.127,-3.127,-3.0973,-3.0773,-3.0773,-3.0381,-3.0152,-3.0113,-2.9934,-2.983,-2.983,-2.9792,-2.9792,-2.9792,-2.9792,-2.9792,-2.9792,-2.9792,-2.9792,-2.9792,-2.956,-2.9314,0.0,0.0,0.0,-1.9246,-1.9376,-1.9487,-1.9596,-1.9672,-1.9708,-1.9708,-1.9708,-1.9708,-1.9708,-1.9708,-1.9708,-1.9708,-1.9708,-1.9708,-1.9708,-1.9654,-1.9647,-1.9647,-1.9523,-1.9417,-1.9413,-1.9246,-1.912,-1.9045,-1.9007,-1.9007,-1.9045,-1.912,-1.9353,-1.9775,-2.0897,-2.2066,-2.3266,-2.349,-2.3595,-2.3595,-2.3595,-2.3595,-2.3595,-2.3595,-2.4328,-2.5615,-2.5615,-2.6497,-2.8049,-2.9157,-2.9741,-3.0028,-3.1077,-3.1511,-3.1525,-3.1765,-3.1854,-3.1944,-3.2647,-3.3305,-3.3918,-3.4196,-3.476,-3.5261,-3.4964,-3.4798,-3.4635,-3.4385,-3.4235,-3.4099,-3.4016,-3.4016,-3.3962,-3.377,-3.322,-3.2868,-3.3009,-3.3534,-3.3962,-3.3736,-3.3652,-3.336,-3.2725,-3.2461,-3.216,-3.1589,-3.1334,-3.1161,-3.1011,-3.081,-3.0684,-3.0684,-3.0444,-3.0305,-3.0305,-3.0049,-2.9895,-2.9895,-2.983,-2.9792,-2.9792,-2.9792,-2.9792,-2.9792,-2.965,-2.956,-2.956,-2.956,-2.9404,-2.917,-2.9079,-2.8752,0.0,0.0,0.0,0.0,0.0,-1.9246,-1.9395,-1.9468,-1.9493,-1.9493,-1.9493,-1.9493,-1.9493,-1.9493,-1.953,-1.969,-1.9708,-1.9708,-1.9708,-1.9632,-1.9574,-1.9538,-1.9358,-1.9176,-1.9082,-1.8879,-1.8707,-1.8553,-1.8481,-1.8481,-1.8519,-1.8702,-1.9171,-1.999,-2.1203,-2.2393,-2.3595,-2.3595,-2.3595,-2.3595,-2.3595,-2.3595,-2.3595,-2.3595,-2.4208,-2.5277,-2.551,-2.6363,-2.769,-2.8786,-2.9412,-2.9711,-3.0761,-3.1301,-3.1511,-3.1511,-3.1511,-3.157,-3.1974,-3.2527,-3.3153,-3.3574,-3.4097,-3.4556,-3.4361,-3.4147,-3.3942,-3.352,-3.3346,-3.3206,-3.3073,-3.3038,-3.2946,-3.2676,-3.2187,-3.18,-3.1726,-3.2426,-3.2981,-3.2747,-3.2654,-3.2403,-3.185,-3.1579,-3.1307,-3.091,-3.0634,-3.047,-3.0394,-3.0267,-3.019,-3.019,-3.0075,-3.0011,-3.0011,-2.9869,-2.9792,-2.9792,-2.9792,-2.9792,-2.9792,-2.9792,-2.9753,-2.9663,-2.9431,-2.9197,-2.8988,-2.9067,-2.8922,-2.8605,-2.8355,-2.781,0.0,0.0,0.0,0.0,0.0,0.0,-1.9045,-1.9082,-1.9082,-1.9082,-1.9082,-1.9082,-1.9082,-1.9082,-1.9232,-1.9603,-1.969,-1.969,-1.969,-1.9614,-1.9538,-1.9395,-1.9176,-1.8936,-1.8611,-1.85,-1.8285,-1.7808,-1.7767,-1.7767,-1.7787,-1.8069,-1.9154,-2.1152,-2.2055,-2.2861,-2.3595,-2.361,-2.3595,-2.3595,-2.3595,-2.3595,-2.3595,-2.3595,-2.3984,-2.4664,-2.5307,-2.6363,-2.7645,-2.8308,-2.8981,-2.9636,-3.0253,-3.0883,-3.1481,-3.1496,-3.1511,-3.1467,-3.1322,-3.1723,-3.2316,-3.2566,-3.2987,-3.3396,-3.3431,-3.3332,-3.3094,-3.2309,-3.2055,-3.1982,-3.1589,-3.1479,-3.1442,-3.122,-3.1196,-3.1121,-3.1011,-3.1209,-3.1442,-3.1479,-3.1331,-3.1121,-3.1024,-3.0811,-3.0546,-3.0152,-3.0075,-3.0011,-2.983,-2.9792,-2.9792,-2.9792,-2.9792,-2.9792,-2.9792,-2.9792,-2.9792,-2.9792,-2.9792,-2.9792,-2.9792,-2.9792,-2.965,-2.938,-2.9157,-2.8776,-2.8179,-2.8391,-2.8351,-2.8127,-2.7429,-2.6528,-1.7199,0.0,0.0,0.0,0.0,0.0,-1.863,-1.8784,-1.8879,-1.8879,-1.8879,-1.8879,-1.8879,-1.8879,-1.8917,-1.903,-1.9161,-1.9269,-1.9269,-1.9105,-1.8969,-1.8841,-1.8519,-1.8226,-1.8028,-1.7828,-1.7659,-1.7516,-1.7413,-1.7434,-1.7578,-1.8535,-1.9856,-2.1585,-2.2002,-2.2633,-2.3516,-2.3538,-2.356,-2.3595,-2.3595,-2.3595,-2.3595,-2.3595,-2.4238,-2.5322,-2.5516,-2.6363,-2.7645,-2.8308,-2.8712,-2.8981,-3.0073,-3.0612,-3.0823,-3.123,-3.1351,-3.1322,-3.1029,-3.1276,-3.168,-3.1415,-3.1946,-3.2574,-3.2055,-3.2047,-3.2101,-3.1589,-3.1394,-3.1272,-3.1161,-3.1048,-3.0911,-3.0861,-3.0634,-3.0406,-3.0343,-3.0305,-3.0406,-3.0823,-3.0874,-3.071,-3.0419,-3.0305,-3.0203,-2.9934,-2.9869,-2.9869,-2.9792,-2.9792,-2.9792,-2.9792,-2.9792,-2.9792,-2.9792,-2.9792,-2.9792,-2.9792,-2.9792,-2.9702,-2.9509,-2.9509,-2.9353,-2.8949,-2.8645,-2.8127,-2.747,-2.7684,-2.7429,-2.6723,-2.5935,-2.5263,0.0,0.0,0.0,0.0,0.0,0.0,-1.8048,-1.8167,-1.8266,-1.8266,-1.8266,-1.8266,-1.8266,-1.8266,-1.8266,-1.8266,-1.8364,-1.8572,-1.8917,-1.8803,-1.863,-1.8481,-1.8108,-1.7821,-1.7652,-1.7385,-1.7199,-1.7115,-1.7044,-1.7211,-1.7721,-1.8827,-2.0089,-2.1554,-2.2068,-2.2651,-2.3319,-2.3385,-2.3451,-2.3545,-2.3588,-2.3595,-2.3595,-2.3595,-2.4156,-2.5118,-2.5386,-2.6102,-2.7065,-2.775,-2.8248,-2.8682,-2.9361,-2.9961,-3.0455,-3.0642,-3.0851,-3.0955,-3.0538,-3.0512,-3.0656,-3.0367,-3.0632,-3.1013,-3.0872,-3.089,-3.0916,-3.0794,-3.0621,-3.0508,-3.0508,-3.0394,-3.0318,-3.0318,-3.0164,-2.9972,-2.9972,-2.9869,-2.9908,-3.0241,-3.0318,-3.0241,-3.0011,-2.9972,-2.9934,-2.983,-2.9792,-2.9792,-2.9792,-2.9792,-2.9792,-2.9792,-2.9792,-2.9792,-2.9792,-2.9792,-2.974,-2.965,-2.965,-2.9482,-2.9145,-2.9079,-2.8803,-2.8275,-2.7874,-2.7174,-2.6227,-2.664,-2.631,-2.5359,-2.4818,-2.4433,0.0,0.0,0.0,0.0,-1.7261,0.0,-1.7434,-1.7455,-1.7475,-1.7475,-1.7475,-1.7475,-1.7475,-1.7475,-1.7475,-1.7475,-1.7475,-1.776,-1.8553,-1.85,-1.8324,-1.8187,-1.7828,-1.7529,-1.7342,-1.7099,-1.6876,-1.6697,-1.6697,-1.7127,-1.8131,-1.8995,-2.0029,-2.1274,-2.2087,-2.2669,-2.3016,-2.315,-2.3319,-2.3466,-2.3523,-2.3551,-2.3573,-2.3551,-2.3881,-2.4496,-2.5112,-2.5706,-2.6306,-2.6905,-2.765,-2.845,-2.8378,-2.9055,-3.0095,-2.987,-3.0089,-3.0417,-2.9839,-2.956,-2.9425,-2.9315,-2.9201,-2.9173,-2.9738,-2.9826,-2.9786,-2.9986,-2.9934,-2.9792,-2.9792,-2.9792,-2.9792,-2.9792,-2.9792,-2.9792,-2.9792,-2.9792,-2.9792,-2.9792,-2.9792,-2.9792,-2.9792,-2.9792,-2.9792,-2.9792,-2.9792,-2.9792,-2.9792,-2.9792,-2.9792,-2.9792,-2.9792,-2.9792,-2.9792,-2.9792,-2.965,-2.938,-2.9302,-2.9106,-2.8673,-2.8459,-2.8018,-2.7348,-2.6887,-2.6019,-2.4775,-2.5401,-2.5147,-2.411,-2.4067,-2.3851,0.0,0.0,0.0,0.0,-1.6939,0.0,-1.7094,-1.7178,-1.7261,-1.7261,-1.7261,-1.7261,-1.7261,-1.7261,-1.7261,-1.7261,-1.7261,-1.7372,-1.772,-1.7679,-1.7557,-1.7434,-1.7199,-1.7002,-1.6846,-1.6684,-1.6586,-1.6543,-1.6654,-1.7259,-1.8588,-1.9041,-1.9906,-2.1325,-2.1762,-2.2147,-2.2532,-2.2709,-2.2934,-2.3172,-2.3194,-2.326,-2.3348,-2.326,-2.3818,-2.4877,-2.5033,-2.5662,-2.6614,-2.673,-2.7044,-2.7495,-2.7853,-2.8378,-2.8926,-2.9057,-2.9405,-2.9716,-2.898,-2.8675,-2.8463,-2.802,-2.8075,-2.8378,-2.8651,-2.9017,-2.9401,-2.9782,-2.983,-2.9792,-2.9792,-2.9792,-2.9792,-2.9792,-2.9792,-2.9792,-2.9792,-2.9792,-2.9792,-2.9792,-2.9792,-2.9792,-2.9792,-2.9792,-2.9792,-2.9792,-2.9792,-2.9792,-2.9792,-2.9792,-2.9792,-2.9792,-2.9792,-2.9792,-2.9792,-2.9599,-2.9392,-2.917,-2.8855,-2.8407,-2.7805,-2.7551,-2.7062,-2.6227,-2.5379,-2.4669,-2.4003,-2.4133,-2.4003,-2.3634,-2.3406,-2.3276,0.0,0.0,0.0,-1.6599,-1.6684,0.0,0.0,-1.6799,-1.6863,-1.6863,-1.6863,-1.6863,-1.6863,-1.6863,-1.6863,-1.6863,-1.6863,-1.6892,-1.6997,-1.7136,-1.7178,-1.7115,-1.6918,-1.6761,-1.6697,-1.6577,-1.65,-1.65,-1.6543,-1.7188,-1.8536,-1.8786,-1.9541,-2.0955,-2.1264,-2.1592,-2.1996,-2.2226,-2.2495,-2.2746,-2.2777,-2.2844,-2.2904,-2.314,-2.375,-2.4614,-2.4844,-2.5429,-2.619,-2.6095,-2.6149,-2.6353,-2.6816,-2.7292,-2.7698,-2.7783,-2.8094,-2.8455,-2.8128,-2.7908,-2.7709,-2.7255,-2.7246,-2.7455,-2.7746,-2.8419,-2.9088,-2.9277,-2.9566,-2.9792,-2.9792,-2.9792,-2.9792,-2.9792,-2.9792,-2.9792,-2.9792,-2.9792,-2.9792,-2.9792,-2.9792,-2.9792,-2.9792,-2.9792,-2.9792,-2.9792,-2.9792,-2.9792,-2.9792,-2.9792,-2.9792,-2.9792,-2.9792,-2.9753,-2.9599,-2.9404,-2.9079,-2.8697,-2.8247,-2.7644,-2.6899,-2.6517,-2.5946,-2.5073,-2.4348,-2.3874,-2.3667,-2.3537,-2.3406,-2.3319,-2.3144,-2.3091,0.0,0.0,-1.65,-1.65,-1.65,-1.65,0.0,0.0,0.0,-1.65,-1.65,-1.65,-1.65,-1.65,-1.65,-1.65,-1.65,-1.65,-1.65,-1.6735,-1.6897,-1.6897,-1.6748,-1.6654,-1.6654,-1.6543,-1.65,-1.65,-1.65,-1.7055,-1.8316,-1.8484,-1.9162,-2.0471,-2.0747,-2.1082,-2.1434,-2.1698,-2.1996,-2.2254,-2.2273,-2.2376,-2.255,-2.2974,-2.3576,-2.4247,-2.4584,-2.5022,-2.5495,-2.53,-2.5203,-2.5231,-2.5715,-2.6162,-2.6565,-2.6405,-2.672,-2.7227,-2.7196,-2.7178,-2.7134,-2.6794,-2.6721,-2.6864,-2.7213,-2.8059,-2.8888,-2.8888,-2.934,-2.9792,-2.9792,-2.9792,-2.9792,-2.9792,-2.9792,-2.9792,-2.9792,-2.9792,-2.9792,-2.9792,-2.9792,-2.9792,-2.9792,-2.9792,-2.9792,-2.9792,-2.9792,-2.9792,-2.9792,-2.9792,-2.9792,-2.9792,-2.974,-2.9611,-2.9353,-2.9079,-2.8657,-2.8059,-2.747,-2.6816,-2.5977,-2.5401,-2.4775,-2.4077,-2.3634,-2.3416,-2.3416,-2.3188,-2.3091,-2.3091,-2.3091,-2.3091,0.0,-1.65,-1.65,-1.65,-1.65,-1.65,-1.65,0.0,-1.65,-1.65,0.0,-1.65,-1.65,0.0,0.0,-1.65,-1.65,-1.65,-1.65,-1.6543,-1.6565,-1.6565,-1.6543,-1.6522,-1.6522,-1.65,-1.65,-1.65,-1.65,-1.7055,-1.8316,-1.8403,-1.8971,-2.022,-2.0397,-2.0585,-2.0894,-2.1166,-2.1423,-2.1688,-2.1578,-2.1928,-2.266,-2.2503,-2.311,-2.4284,-2.4164,-2.4407,-2.4892,-2.4694,-2.4538,-2.4465,-2.4935,-2.5373,-2.567,-2.5246,-2.5707,-2.6453,-2.6184,-2.6375,-2.676,-2.6602,-2.6861,-2.7228,-2.7304,-2.8059,-2.8888,-2.8888,-2.934,-2.9792,-2.9792,-2.9792,-2.9792,-2.9792,-2.9792,-2.9792,-2.9792,-2.9792,-2.9792,-2.9792,-2.9792,-2.9792,-2.9792,-2.9792,-2.9792,-2.9792,-2.9792,-2.9792,-2.9792,-2.9792,-2.9792,-2.9792,-2.9611,-2.9353,-2.917,-2.8618,-2.8007,-2.7348,-2.6517,-2.5768,-2.5073,-2.4186,-2.3667,-2.359,-2.3276,-2.3144,-2.3144,-2.3091,-2.3091,-2.3091,-2.3091,-2.3091,-1.65,-1.65,-1.65,-1.65,-1.65,-1.65,-1.65,-1.65,-1.65,-1.65,0.0,0.0,0.0,0.0,0.0,0.0,-1.65,-1.65,-1.65,-1.6479,-1.6457,-1.65,-1.65,-1.65,-1.65,-1.65,-1.65,-1.65,-1.65,-1.7033,-1.8212,-1.8275,-1.8791,-1.9927,-2.0105,-2.0258,-2.0447,-2.0648,-2.1007,-2.1539,-2.1488,-2.1807,-2.2471,-2.2711,-2.3136,-2.3683,-2.3861,-2.4079,-2.4245,-2.4057,-2.3927,-2.391,-2.4028,-2.4288,-2.461,-2.4516,-2.4948,-2.5614,-2.5684,-2.611,-2.6555,-2.6521,-2.665,-2.6839,-2.6839,-2.757,-2.8448,-2.8448,-2.9101,-2.9792,-2.9792,-2.9792,-2.9792,-2.9792,-2.9792,-2.9792,-2.9792,-2.9792,-2.9792,-2.9792,-2.965,-2.956,-2.956,-2.9702,-2.9792,-2.9792,-2.9663,-2.956,-2.956,-2.9365,-2.9209,-2.9209,-2.9013,-2.8724,-2.8383,-2.7914,-2.7267,-2.6475,-2.5348,-2.4519,-2.41,-2.358,-2.3276,-2.3276,-2.3144,-2.3091,-2.3091,-2.3091,-2.3091,-2.3091,-2.3091,-2.3091,-1.65,-1.65,-1.65,-1.65,-1.65,-1.65,-1.65,-1.65,-1.65,-1.65,-1.65,0.0,0.0,0.0,0.0,0.0,0.0,-1.6414,-1.6414,-1.6349,-1.6349,-1.6457,-1.6436,-1.6436,-1.6479,-1.6479,-1.6479,-1.65,-1.65,-1.6989,-1.8141,-1.8204,-1.8694,-1.9773,-1.9888,-2.0003,-2.0131,-2.0412,-2.0836,-2.1381,-2.151,-2.1847,-2.2457,-2.2844,-2.3145,-2.3342,-2.3638,-2.3772,-2.3743,-2.3539,-2.3467,-2.3437,-2.336,-2.3552,-2.3966,-2.4088,-2.4476,-2.5019,-2.5443,-2.6009,-2.6499,-2.6499,-2.6499,-2.6499,-2.6499,-2.7165,-2.7908,-2.8059,-2.8699,-2.9365,-2.9515,-2.944,-2.9327,-2.9251,-2.9251,-2.9251,-2.9162,-2.9287,-2.9399,-2.9399,-2.9305,-2.9223,-2.9145,-2.9365,-2.9546,-2.9546,-2.9326,-2.9145,-2.9067,-2.8843,-2.8593,-2.8554,-2.8287,-2.7966,-2.7609,-2.7051,-2.631,-2.539,-2.4305,-2.3624,-2.3406,-2.3188,-2.3091,-2.3091,-2.3091,-2.3091,-2.3091,-2.3091,-2.3091,-2.3091,-2.3091,-2.3091,-1.65,-1.65,-1.65,-1.65,-1.65,-1.65,-1.65,-1.65,-1.65,-1.65,-1.65,-1.65,-1.65,0.0,0.0,0.0,0.0,0.0,0.0,-1.61,-1.611,-1.6371,-1.6297,-1.6253,-1.6392,-1.6392,-1.6436,-1.65,-1.65,-1.6989,-1.8141,-1.8204,-1.8694,-1.9773,-1.9798,-1.9862,-2.0016,-2.06,-2.0971,-2.1117,-2.1506,-2.2082,-2.2786,-2.2668,-2.2974,-2.3573,-2.348,-2.3433,-2.3403,-2.3198,-2.3108,-2.3108,-2.3108,-2.3477,-2.401,-2.3991,-2.4356,-2.4895,-2.5423,-2.6009,-2.6499,-2.6499,-2.6499,-2.6499,-2.6499,-2.6889,-2.7419,-2.7959,-2.8134,-2.8285,-2.8775,-2.8561,-2.8123,-2.7927,-2.7841,-2.7804,-2.7607,-2.8001,-2.8356,-2.8356,-2.8607,-2.8764,-2.8538,-2.8697,-2.8843,-2.8843,-2.8657,-2.8471,-2.8259,-2.8219,-2.8115,-2.7851,-2.7499,-2.7144,-2.6928,-2.606,-2.5062,-2.3927,-2.3634,-2.3406,-2.3135,-2.3091,-2.3091,-2.3091,-2.3091,-2.3091,-2.3091,-2.3091,-2.3091,-2.3091,-2.3091,-2.3091,-1.65,-1.65,-1.65,-1.65,-1.65,-1.65,-1.65,-1.6479,-1.6436,-1.6436,-1.6306,-1.6197,-1.6297,0.0,0.0,0.0,0.0,0.0,0.0,-1.558,-1.5367,-1.5299,-1.5734,-1.6088,-1.6132,-1.6231,-1.6275,-1.6297,-1.6371,-1.6923,-1.7998,-1.8144,-1.8694,-1.9773,-1.9798,-1.9837,-1.9862,-2.0468,-2.0974,-2.1367,-2.1854,-2.2409,-2.301,-2.2951,-2.3051,-2.3258,-2.3228,-2.3198,-2.321,-2.3138,-2.3108,-2.3145,-2.3521,-2.3828,-2.4004,-2.4004,-2.4569,-2.541,-2.5975,-2.6336,-2.6499,-2.6499,-2.6499,-2.6499,-2.6499,-2.6876,-2.7318,-2.7507,-2.7821,-2.8147,-2.8335,-2.8125,-2.7865,-2.7668,-2.7533,-2.7409,-2.7211,-2.7548,-2.7873,-2.7743,-2.785,-2.7874,-2.7672,-2.7214,-2.7162,-2.8011,-2.7862,-2.7644,-2.7551,-2.701,-2.664,-2.6547,-2.6144,-2.5821,-2.5611,-2.485,-2.4133,-2.3624,-2.3363,-2.3188,-2.3091,-2.3091,-2.3091,-2.3091,-2.3091,-2.3091,-2.3091,-2.3091,-2.3091,-2.3091,-2.3091,-2.3091,-1.6741,-1.6713,-1.6685,-1.6507,-1.6479,-1.65,-1.65,-1.6457,-1.6392,-1.634,-1.611,-1.5957,-1.6035,0.0,0.0,0.0,0.0,0.0,0.0,-1.504,-1.4834,-1.4559,-1.5175,-1.5635,-1.568,-1.5846,-1.5969,-1.6035,-1.6231,-1.6811,-1.7951,-1.812,-1.8694,-1.9773,-1.9798,-1.9798,-1.9798,-2.0603,-2.1169,-2.1493,-2.2246,-2.2757,-2.3108,-2.3108,-2.3108,-2.3108,-2.3108,-2.3108,-2.3108,-2.3108,-2.3233,-2.3446,-2.3853,-2.423,-2.4569,-2.4569,-2.5134,-2.5996,-2.6361,-2.6499,-2.6499,-2.6499,-2.6499,-2.6499,-2.6499,-2.6738,-2.703,-2.7147,-2.7287,-2.7426,-2.7468,-2.726,-2.6918,-2.6603,-2.6395,-2.6199,-2.5951,-2.6229,-2.6526,-2.6558,-2.6605,-2.6683,-2.6618,-2.6019,-2.5893,-2.6946,-2.6753,-2.6475,-2.6393,-2.5893,-2.5527,-2.5432,-2.5073,-2.4733,-2.4433,-2.397,-2.358,-2.3363,-2.3188,-2.3091,-2.3091,-2.3091,-2.3091,-2.3091,-2.3091,-2.3091,-2.3091,-2.3091,-2.3091,-2.3091,-2.3091,-2.3091]},{"header":{"parameterUnit":"m.s-1","parameterCategory":1,"la1":30.6,"la2":29.2853,"lo1":-89.7004,"lo2":-87.6739,"dy":0.0162,"dx":0.0183,"nx":112,"ny":82,"refTime":"2023-10-16T18:00:00:Z","depth":0,"parameterNumber":3,"parameterNumberName":"V-component_of_WINDS"},"data":[0.0,0.0,0.0,0.0,0.0,0.0,0.0,0.0,0.0,0.0,0.0,0.0,0.0,0.0,0.0,0.0,0.0,0.0,0.0,0.0,0.0,0.0,0.0,0.0,0.0,0.0,0.0,0.0,0.0,0.0,0.0,0.0,0.0,0.0,0.0,0.0,0.0,0.0,0.0,0.0,0.0,0.0,0.0,0.0,0.0,0.0,0.0,0.0,0.0,0.0,0.0,0.0,0.0,0.0,0.0,0.0,0.0,0.0,0.0,0.0,0.0,0.0,0.0,0.0,0.0,0.0,0.0,0.0,0.0,0.0,0.0,0.0,0.0,0.0,0.0,0.0,0.0,0.0,0.0,0.0,0.0,0.0,0.0,0.0,0.0,0.0,0.0,0.0,0.0,0.0,0.74,0.7775,0.8666,0.9339,0.9621,0.9414,0.9221,0.9075,0.0,0.0,0.0,0.0,0.0,0.0,0.0,0.0,0.0,0.0,0.0,0.0,0.0,0.0,0.0,0.0,0.0,0.0,0.0,0.0,0.0,0.0,0.0,0.0,0.0,0.0,0.0,0.0,0.0,0.0,0.0,0.0,0.0,0.0,0.0,0.0,0.0,0.0,0.0,0.0,0.0,0.0,0.0,0.0,0.0,0.0,0.0,0.0,0.0,0.0,0.0,0.0,0.0,0.0,0.0,0.0,0.0,0.0,0.0,0.0,0.0,0.0,0.0,0.0,0.0,0.0,0.0,0.0,0.0,0.0,0.0,0.0,0.0,0.0,0.0,0.0,0.0,0.0,0.0,0.0,0.0,0.0,0.0,0.0,0.0,0.0,0.0,0.0,0.0,0.0,0.0,0.0,0.0,0.0,0.0,0.0,0.0,0.0,0.0,0.0,0.0,0.0,0.0,0.0,0.779,0.8702,0.9131,0.939,0.9438,0.9563,0.954,0.9356,0.0,0.0,0.0,0.0,0.0,0.0,0.0,0.0,0.0,0.0,0.0,0.0,0.0,0.0,0.0,0.0,0.0,0.0,0.0,0.0,0.0,0.0,0.0,0.0,0.0,0.0,0.0,0.0,0.0,0.0,0.0,0.0,0.0,0.0,0.0,0.0,0.0,0.0,0.0,0.0,0.0,0.0,0.0,0.0,0.0,0.0,0.0,0.0,0.0,0.0,0.0,0.0,0.0,0.0,0.0,0.0,0.0,0.0,0.0,0.0,0.0,0.0,0.0,0.0,0.0,0.0,0.0,0.0,0.0,0.0,0.0,0.0,0.0,0.0,0.0,0.0,0.0,0.0,0.0,0.0,0.0,0.0,0.0,0.0,0.0,0.0,0.0,0.0,0.0,0.0,0.0,0.0,0.0,0.0,0.0,0.0,0.0,0.0,0.0,0.0,0.0,0.0,0.0,0.7737,0.8266,0.9028,0.9153,0.9275,0.9549,0.962,0.9676,0.9714,0.9681,0.0,0.0,0.0,0.0,0.0,0.0,0.0,0.0,0.0,0.0,0.0,0.0,0.0,0.0,0.0,0.0,0.0,0.0,0.0,0.0,0.0,0.0,0.0,0.0,0.0,0.0,0.0,0.0,0.0,0.0,0.0,0.0,0.0,0.0,0.0,0.0,0.0,0.0,0.0,0.0,0.0,0.0,0.0,0.0,0.0,0.0,0.0,0.0,0.0,0.0,0.0,0.0,0.0,0.0,0.0,0.0,0.0,0.0,0.0,0.0,0.0,0.0,0.0,0.0,0.0,0.0,0.0,0.0,0.0,0.0,0.0,0.0,0.0,0.0,0.0,0.0,0.0,0.0,0.0,0.0,0.0,0.0,0.0,0.0,0.0,0.0,0.0,0.0,0.0,0.0,0.0,0.0,0.0,0.0,0.0,0.0,0.0,0.0,0.0,0.0,0.0,0.0,0.8237,0.8596,0.9105,0.9118,0.9283,0.973,0.9787,0.9932,1.0231,1.0352,0.0,0.0,0.0,0.0,0.0,0.0,0.0,0.0,0.0,0.0,0.0,0.0,0.0,0.0,0.0,0.0,0.0,0.0,0.0,0.0,0.0,0.0,0.0,0.0,0.0,0.0,0.0,0.0,0.0,0.0,0.0,0.0,0.0,0.0,0.0,0.0,0.0,0.0,0.0,0.0,0.0,0.0,0.0,0.0,0.0,0.0,0.0,0.0,0.0,0.0,0.0,0.0,0.0,0.0,0.0,0.0,0.0,0.0,0.0,0.0,0.0,0.0,0.0,0.0,0.0,0.0,0.0,0.0,0.0,0.0,0.0,0.0,0.0,0.0,0.0,0.0,0.0,0.0,0.0,0.0,0.0,0.0,0.0,0.0,0.0,0.0,0.0,0.0,0.0,0.0,0.0,0.0,0.0,0.0,0.0,0.0,0.0,0.0,0.0,0.0,0.0,0.0,0.8389,0.8567,0.8982,0.9218,0.955,0.9947,1.0257,1.059,1.0998,1.1023,0.0,0.0,0.0,0.0,0.0,0.0,0.0,0.0,0.0,0.0,0.0,0.0,0.0,0.0,0.0,0.0,0.0,0.0,0.0,0.0,0.0,0.0,0.0,0.0,0.0,0.0,0.0,0.0,0.0,0.0,0.0,0.0,0.0,0.0,0.0,0.0,0.0,0.0,0.0,0.0,0.0,0.0,0.0,0.0,0.0,0.0,0.0,0.0,0.0,0.0,0.0,0.0,0.0,0.0,0.0,0.0,0.0,0.0,0.0,0.0,0.0,0.0,0.0,0.0,0.0,0.0,0.0,0.0,0.0,0.0,0.0,0.0,0.0,0.0,0.0,0.0,0.0,0.0,0.0,0.0,0.0,0.0,0.0,0.0,0.0,0.0,0.0,0.0,0.0,0.0,0.0,0.0,0.0,0.0,0.0,0.0,0.0,0.0,0.0,0.0,0.0,0.0,0.883,0.9085,0.9223,0.955,0.9798,0.9872,1.0294,1.058,1.0662,0.0,0.0,0.0,0.0,0.0,0.0,0.0,0.0,0.0,0.0,0.0,0.0,0.0,0.0,0.0,0.0,0.0,0.0,0.0,0.0,0.0,0.0,0.0,0.0,0.0,0.0,0.0,0.0,0.0,0.0,0.0,0.0,0.0,0.0,0.0,0.0,0.0,0.0,0.0,0.0,0.0,0.0,0.0,0.0,0.0,0.0,0.0,0.0,0.0,0.0,0.0,0.0,0.0,0.0,0.0,0.0,0.0,0.0,0.0,0.0,0.0,0.0,0.0,0.0,0.0,0.0,0.0,0.0,0.0,0.0,0.0,0.0,0.0,0.0,0.0,0.0,0.0,0.0,0.0,0.0,0.0,0.0,0.0,0.0,0.0,0.0,0.0,0.0,0.0,0.0,0.0,0.0,0.0,0.0,0.0,0.0,0.0,0.0,0.0,0.0,0.0,0.0,0.8931,0.9284,0.9569,0.9647,0.9991,1.0185,1.0108,1.0526,1.076,1.0656,0.0,0.0,0.0,0.0,0.0,0.0,0.0,0.0,0.0,0.0,0.0,0.0,0.0,0.0,0.0,0.0,0.0,0.0,0.0,0.0,0.0,0.0,0.0,0.0,0.0,0.0,0.0,0.0,0.0,0.0,0.0,0.0,0.0,0.0,0.0,0.0,0.0,0.0,0.0,0.0,0.0,0.0,0.0,0.0,0.0,0.0,0.0,0.0,0.0,0.0,0.0,0.0,0.0,0.0,0.0,0.0,0.0,0.0,0.0,0.0,0.0,0.0,0.0,0.0,0.0,0.0,0.0,0.0,0.0,0.0,0.0,0.0,0.0,0.0,0.0,0.0,0.0,0.0,0.0,0.0,0.0,0.0,0.0,0.0,0.0,0.0,0.0,0.0,0.0,0.0,0.0,0.0,0.0,0.0,0.0,0.0,0.0,0.0,0.0,0.0,0.0,0.0,0.9562,0.9718,0.9925,1.0172,1.0514,1.0722,1.08,1.1051,1.1195,0.0,0.0,0.0,0.0,0.0,0.0,0.0,0.0,0.0,0.0,0.0,0.0,0.0,0.0,0.0,0.0,0.0,0.0,0.0,0.0,0.0,0.0,0.0,0.0,0.0,0.0,0.0,0.0,0.0,0.0,0.0,0.0,0.0,0.0,0.0,0.0,0.0,0.0,0.0,0.0,0.0,0.0,0.0,0.0,0.0,0.0,0.0,0.0,0.0,0.0,0.0,0.0,0.0,0.0,0.0,0.0,0.0,0.0,0.0,0.0,0.0,0.0,0.0,0.0,0.0,0.0,0.0,0.0,0.0,0.0,0.0,0.0,0.0,0.0,0.0,0.0,0.0,0.0,0.0,0.0,0.0,0.0,0.0,0.0,0.0,0.0,0.0,0.0,0.0,0.0,0.0,0.0,0.0,0.0,0.0,0.0,0.0,0.0,0.0,0.0,0.0,0.0,0.0,0.984,1.0216,1.0531,1.0812,1.0838,1.08,1.0674,1.0641,1.0594,1.043,0.0,0.0,0.0,0.0,0.0,0.0,0.0,0.0,0.0,0.0,0.0,0.0,0.0,0.0,0.0,0.0,0.0,0.0,0.0,0.0,0.0,0.0,0.0,0.0,0.0,0.0,0.0,0.0,0.0,0.0,0.0,0.0,0.0,0.0,0.0,0.0,0.0,0.0,0.0,0.0,0.0,0.0,0.0,0.0,0.0,0.0,0.0,0.0,0.0,0.0,0.0,0.0,0.0,0.0,0.0,0.0,0.0,0.0,0.0,0.0,0.0,0.0,0.0,0.0,0.0,0.0,0.0,0.0,0.0,0.0,0.0,0.0,0.0,0.0,0.0,0.0,0.0,0.0,0.0,0.0,0.0,0.0,0.0,0.0,0.0,0.0,0.0,0.0,0.0,0.0,0.0,0.0,0.0,0.0,0.0,0.0,0.0,0.0,0.0,0.0,0.0,0.0,1.0208,1.0659,1.1049,1.1318,1.1162,1.0974,1.0777,1.0597,1.0386,1.0186,0.0,0.0,0.0,0.0,0.0,0.0,0.0,0.0,0.0,0.0,0.0,0.0,0.0,0.0,0.0,0.0,0.0,0.0,0.0,0.0,0.0,0.0,0.0,0.0,0.0,0.0,0.0,0.0,0.0,0.0,0.0,0.0,0.0,0.0,0.0,0.0,0.0,0.0,0.0,0.0,0.0,0.0,0.0,0.0,0.0,0.0,0.0,0.0,0.0,0.0,0.0,0.0,0.0,0.0,0.0,0.0,0.0,0.0,0.0,0.0,0.0,0.0,0.0,0.0,0.0,0.0,0.0,0.0,0.0,0.0,0.0,0.0,0.0,0.0,0.0,0.0,0.0,0.0,0.0,0.0,0.0,0.0,0.0,0.0,0.0,0.0,0.0,0.0,0.0,0.0,0.0,0.0,0.0,0.0,0.0,0.0,0.0,0.0,0.0,0.0,0.0,0.0,1.0641,1.1074,1.1452,1.1728,1.1474,1.1232,1.1046,1.074,1.047,1.0303,0.0,0.0,0.0,0.0,0.0,0.0,0.0,0.0,0.0,0.0,0.0,0.0,0.0,0.0,0.0,0.0,0.0,0.0,0.0,0.0,0.0,0.0,0.0,0.0,0.0,0.0,0.0,0.0,0.0,0.0,0.0,0.0,0.0,0.0,0.0,0.0,0.0,0.0,0.0,0.0,0.0,0.0,0.0,0.0,0.0,0.0,0.0,0.0,0.0,0.0,0.0,0.0,0.0,0.0,0.0,0.0,0.0,0.0,0.0,0.0,1.2553,1.2323,0.0,0.0,0.0,0.0,0.0,0.0,0.0,0.0,0.0,0.0,0.0,0.0,0.0,0.0,0.0,0.0,0.0,0.0,0.0,0.0,0.0,0.0,0.0,0.0,0.0,0.0,0.0,0.0,0.0,0.0,0.0,0.0,0.0,0.0,0.0,0.0,0.0,0.0,0.0,0.0,1.0769,1.1301,1.1753,1.2126,1.1603,1.1248,1.1315,1.0622,1.0234,1.0293,1.1126,0.0,0.0,0.0,0.0,0.0,0.0,0.0,0.0,0.0,0.0,0.0,0.0,0.0,0.0,0.0,0.0,0.0,0.0,0.0,0.0,0.0,0.0,0.0,0.0,0.0,0.0,0.0,0.0,0.0,0.0,0.0,0.0,0.0,0.0,0.0,0.0,0.0,0.0,0.0,0.0,0.0,0.0,0.0,0.0,0.0,0.0,0.0,0.0,0.0,0.0,0.0,0.0,0.0,0.0,0.0,0.0,0.0,0.0,0.0,1.3568,1.3116,0.0,0.0,0.0,0.0,0.0,0.0,0.0,0.0,0.0,0.0,0.0,0.0,0.0,0.0,0.0,0.0,0.0,0.0,0.0,0.0,0.0,0.0,0.0,0.0,0.0,0.0,0.0,0.0,0.0,0.0,0.0,0.0,0.0,0.0,0.0,0.0,0.0,0.0,0.0,0.0,1.1023,1.1553,1.2026,1.2357,1.169,1.1255,1.1394,1.0607,1.0244,1.0566,1.1222,0.0,0.0,0.0,0.0,0.0,0.0,0.0,0.0,0.0,0.0,0.0,0.0,0.0,0.0,0.0,0.0,0.0,0.0,0.0,0.0,0.0,0.0,0.0,0.0,0.0,0.0,0.0,0.0,0.0,0.0,0.0,0.0,0.0,0.0,0.0,0.0,0.0,0.0,0.0,0.0,0.0,0.0,0.0,0.0,0.0,0.0,0.0,0.0,0.0,0.0,0.0,0.0,0.0,1.5424,1.5697,1.6483,1.5998,1.5846,1.5898,1.5002,1.4255,1.3721,1.3643,0.0,0.0,0.0,0.0,0.0,0.0,0.0,0.0,0.0,0.0,0.0,0.0,0.0,0.0,0.0,0.0,0.0,0.0,0.0,0.0,0.0,0.0,1.2905,1.2905,1.2905,1.2905,1.2905,0.0,0.0,0.0,0.0,0.0,0.0,0.0,0.0,0.0,0.0,0.0,1.1251,1.1803,1.2249,1.2505,1.1849,1.1414,1.1522,1.0821,1.0544,1.0975,1.1457,1.1846,0.0,0.0,0.0,0.0,0.0,0.0,0.0,0.0,0.0,0.0,0.0,0.0,0.0,0.0,0.0,0.0,0.0,0.0,0.0,0.0,0.0,0.0,0.0,0.0,0.0,0.0,0.0,0.0,0.0,0.0,0.0,0.0,1.5176,1.4746,0.0,0.0,0.0,0.0,0.0,0.0,0.0,0.0,0.0,0.0,0.0,0.0,0.0,1.5195,1.6169,1.6421,1.7035,1.7979,1.7921,1.8228,1.8848,1.8383,1.8178,1.813,1.7324,0.0,1.459,1.4182,0.0,0.0,0.0,0.0,0.0,0.0,0.0,0.0,0.0,0.0,0.0,0.0,0.0,0.0,0.0,0.0,0.0,0.0,0.0,0.0,0.0,0.0,1.2905,1.2905,1.2905,1.2905,1.2905,1.2905,1.2856,1.27,1.2431,1.2076,0.0,0.0,0.0,0.0,0.0,0.0,1.1427,1.1952,1.2382,1.2627,1.2314,1.2079,1.2102,1.1658,1.1438,1.1496,1.1895,1.2145,1.2203,1.2646,0.0,0.0,0.0,0.0,0.0,0.0,0.0,0.0,0.0,0.0,0.0,0.0,0.0,0.0,0.0,0.0,0.0,0.0,0.0,0.0,0.0,0.0,0.0,0.0,0.0,0.0,0.0,0.0,0.0,1.5781,1.5801,1.5869,1.5439,1.5156,0.0,0.0,0.0,0.0,0.0,0.0,0.0,0.0,0.0,1.6182,1.6702,1.7369,1.8156,1.8491,1.902,1.9802,1.9571,1.9762,2.0361,1.9922,1.959,1.9299,1.8965,1.7969,1.6504,1.5303,1.46,1.418,0.0,0.0,0.0,0.0,1.3558,1.3558,1.3558,1.3558,1.3545,1.3311,0.0,0.0,0.0,0.0,0.0,0.0,0.0,1.3281,1.3525,1.3558,1.3558,1.3558,1.3558,1.3516,1.3281,1.3232,1.3139,1.2773,1.2529,1.2283,1.1803,1.1444,0.0,0.0,0.0,1.1477,1.1803,1.2249,1.2603,1.2774,1.2443,1.2203,1.2203,1.1839,1.1692,1.1924,1.2096,1.232,1.2588,1.2783,1.2905,0.0,0.0,0.0,0.0,0.0,0.0,0.0,0.0,0.0,0.0,0.0,0.0,0.0,0.0,0.0,0.0,0.0,0.0,0.0,0.0,0.0,0.0,0.0,0.0,0.0,0.0,0.0,0.0,1.6193,1.6396,1.6814,1.6318,1.6084,0.0,0.0,0.0,0.0,0.0,0.0,1.6714,1.7163,1.7663,1.8192,1.8806,1.9364,1.9936,2.03,2.0753,2.1289,2.102,2.1138,2.1668,2.1269,2.083,2.041,2.0176,1.9473,1.8359,1.6631,1.5596,1.5097,1.4629,1.4436,1.4436,1.4436,1.4436,1.4436,1.4436,1.4367,1.4221,1.3936,1.376,1.3613,1.3301,0.0,0.0,0.0,0.0,1.3714,1.4026,1.4104,1.4104,1.4104,1.4104,1.4026,1.3714,1.3636,1.3455,1.288,1.2627,1.2455,1.2101,1.1852,0.0,1.1528,1.1703,1.1952,1.2175,1.2505,1.2749,1.2881,1.2588,1.2369,1.2369,1.2113,1.2064,1.235,1.2369,1.2549,1.2895,1.2905,1.2905,1.2905,0.0,0.0,0.0,0.0,0.0,0.0,0.0,0.0,0.0,0.0,0.0,0.0,0.0,0.0,0.0,0.0,0.0,0.0,0.0,0.0,0.0,0.0,0.0,0.0,0.0,0.0,0.0,0.0,0.0,1.7305,1.7314,0.0,0.0,0.0,0.0,1.8373,1.8356,1.8617,1.9446,1.9363,1.9649,2.0427,2.0644,2.0986,2.1399,2.1663,2.2031,2.2399,2.2389,2.2594,2.2984,2.2607,2.2187,2.1738,2.0938,2.0302,1.9687,1.7988,1.6809,1.5987,1.5518,1.5313,1.5313,1.5313,1.5313,1.5313,1.5313,1.5088,1.4746,1.4727,1.4443,1.4075,1.4055,1.4046,0.0,0.0,1.4075,1.4075,1.4104,1.4104,1.4104,1.4104,1.4104,1.4104,1.4075,1.4075,1.3831,1.3037,1.2783,1.2627,1.2505,0.0,1.22,1.2076,1.2175,1.2323,1.2455,1.2603,1.2749,1.2881,1.2886,1.2866,1.2866,1.2856,1.2846,1.2866,1.2866,1.2886,1.2905,1.2905,1.2905,1.2905,1.2905,0.0,0.0,0.0,0.0,0.0,0.0,0.0,0.0,0.0,0.0,0.0,0.0,0.0,0.0,0.0,0.0,0.0,0.0,0.0,0.0,0.0,0.0,0.0,0.0,0.0,0.0,0.0,0.0,1.8926,1.9014,0.0,1.9609,1.9268,1.9375,2.0206,2.0489,2.0907,2.1481,2.1428,2.1649,2.2177,2.202,2.212,2.2537,2.26,2.2721,2.2877,2.2877,2.2955,2.3091,2.2945,2.2539,2.1865,2.1553,2.084,1.9844,1.8965,1.8096,1.7246,1.6502,1.6229,1.6229,1.6229,1.6229,1.6229,1.6229,1.6132,1.5937,1.5371,1.5078,1.4874,1.4639,1.4746,1.501,1.5293,1.5176,1.5019,1.5303,1.5166,1.4933,1.4933,1.4933,1.4855,1.4609,1.4551,1.4385,1.3799,1.3416,1.3093,1.27,1.2578,1.2505,1.2382,1.248,1.2578,1.2627,1.2759,1.2856,1.2881,1.2905,1.2905,1.2905,1.2905,1.2905,1.2905,1.2905,1.2905,1.2905,1.2905,1.2905,1.2905,1.2905,1.2588,0.0,0.0,0.0,0.0,0.0,0.0,0.0,0.0,0.0,0.0,0.0,0.0,0.0,0.0,0.0,0.0,0.0,0.0,0.0,0.0,0.0,0.0,0.0,0.0,0.0,1.8662,1.9609,2.0478,2.0703,2.0957,2.1396,2.1045,2.1152,2.2031,2.2363,2.2715,2.3135,2.3018,2.3076,2.3305,2.2906,2.2818,2.3091,2.3091,2.3091,2.3091,2.3091,2.3091,2.3091,2.2945,2.2549,2.1875,2.1728,2.1084,2.0088,1.9521,1.8955,1.8359,1.7467,1.7126,1.7126,1.7126,1.7126,1.7116,1.697,1.6953,1.6794,1.6063,1.5829,1.5801,1.5527,1.5635,1.5888,1.6211,1.5977,1.5693,1.6016,1.5732,1.541,1.541,1.541,1.5342,1.5059,1.5,1.4863,1.4406,1.3987,1.3558,1.3064,1.2962,1.2889,1.2671,1.27,1.2783,1.2783,1.2856,1.2905,1.2905,1.2905,1.2905,1.2905,1.2905,1.2905,1.2905,1.2905,1.2905,1.2905,1.2905,1.2905,1.2905,1.2734,1.252,1.2203,0.0,0.0,0.0,0.0,0.0,0.0,0.0,0.0,0.0,0.0,0.0,0.0,0.0,0.0,0.0,0.0,0.0,0.0,0.0,0.0,0.0,0.0,0.0,1.8724,1.9824,2.1016,2.1855,2.2324,2.2744,2.314,2.2779,2.293,2.3789,2.3838,2.4014,2.4434,2.4043,2.3809,2.3809,2.3335,2.3091,2.3091,2.3091,2.3091,2.3091,2.3091,2.3091,2.3062,2.2705,2.2275,2.1846,2.1416,2.0967,2.0517,1.9639,1.9277,1.918,1.834,1.8008,1.8008,1.8008,1.8008,1.7949,1.7539,1.7435,1.7334,1.6863,1.6726,1.6736,1.6726,1.6726,1.6746,1.6746,1.6436,1.6114,1.6114,1.5752,1.541,1.541,1.541,1.541,1.541,1.541,1.5293,1.4883,1.4436,1.4007,1.3558,1.3506,1.3359,1.2964,1.2905,0.0,1.2905,1.2905,1.2905,1.2905,1.2905,1.2905,1.2905,1.2905,1.2905,1.2905,1.2905,1.2905,1.2905,1.2905,1.2905,1.2905,1.2437,1.2223,1.2223,0.0,0.0,0.0,0.0,0.0,0.0,0.0,0.0,0.0,0.0,0.0,0.0,0.0,0.0,0.0,0.0,0.0,0.0,0.0,0.0,0.0,1.9502,2.0204,2.0049,2.1416,2.2754,2.3613,2.3818,2.4189,2.4904,2.429,2.4258,2.5089,2.4902,2.4912,2.5304,2.4658,2.4248,2.4248,2.3481,2.3091,2.3091,2.3091,2.3091,2.3091,2.3091,2.2935,2.2643,2.2568,2.2068,2.1406,2.1249,2.0761,2.0049,1.9512,1.9102,1.8724,1.8223,1.8008,1.8008,1.8008,1.8008,1.7988,1.7881,1.7842,1.7773,1.7344,1.7412,1.7607,1.7295,1.7412,1.7623,1.7623,1.7129,1.6553,1.6553,1.5986,1.541,1.541,1.541,1.541,1.541,1.541,1.5381,1.5264,1.5137,1.4699,1.3691,1.3506,1.3359,1.2964,1.2905,1.2905,1.2905,1.2905,1.2905,1.2905,1.2905,1.2905,1.2905,1.2905,1.2905,1.2905,1.2905,1.2905,1.2905,1.2905,1.2905,1.2905,1.2764,1.2705,0.0,0.0,0.0,0.0,0.0,0.0,0.0,0.0,0.0,0.0,0.0,0.0,0.0,0.0,0.0,0.0,0.0,0.0,0.0,0.0,0.0,0.0,2.1269,2.2236,2.2464,2.331,2.4199,2.4836,2.5137,2.5449,2.5957,2.5547,2.5459,2.5967,2.5771,2.5654,2.5684,2.4855,2.4414,2.4414,2.3539,2.3091,2.3091,2.3091,2.3003,2.2838,2.2838,2.2656,2.2246,2.206,2.1668,2.1171,2.08,2.0352,1.9863,1.9258,1.8867,1.8559,0.0,0.0,0.0,0.0,1.8008,1.8008,1.8008,1.8008,1.7969,1.7725,1.7812,1.7969,1.7715,1.7812,1.7978,1.7803,1.7223,1.6658,1.6494,1.5937,1.541,1.541,1.541,1.541,1.541,1.541,1.541,1.541,1.541,0.0,1.4199,1.3896,1.3597,1.3203,1.3023,1.2905,1.2905,1.2905,1.2905,1.2905,1.2905,1.2905,1.2905,1.2905,0.0,0.0,0.0,1.2905,1.2905,1.2905,0.0,0.0,0.0,1.2905,1.2905,1.2905,0.0,0.0,1.25,1.2637,0.0,0.0,0.0,0.0,0.0,0.0,0.0,0.0,0.0,0.0,0.0,0.0,0.0,0.0,0.0,0.0,2.3179,2.4678,2.5262,2.5331,2.5439,2.5781,2.6143,2.6357,2.6455,2.6367,2.6338,2.6387,2.6338,2.6143,2.5703,2.4855,0.0,0.0,0.0,2.3071,2.3023,2.3023,2.2818,2.2441,2.2441,2.2217,2.1797,2.1375,2.1171,2.1073,2.0273,1.9883,1.9785,1.8929,1.8568,1.849,1.812,1.8008,1.8008,1.8008,1.8008,1.8008,1.8008,0.0,0.0,1.8008,1.8008,1.8008,1.8008,1.8008,1.793,1.75,1.707,1.6599,1.6212,1.5732,1.541,1.541,1.541,1.541,1.541,1.541,1.541,1.541,1.541,1.5293,1.4922,1.4492,1.4026,1.3574,1.3193,1.2954,1.2915,1.2905,1.2905,1.2905,1.2905,0.0,1.2905,1.2905,1.2905,1.2905,1.2905,1.2905,1.2905,1.2905,1.2925,1.2974,1.2974,1.2993,1.3052,1.3052,1.3052,1.3042,1.2954,1.2905,0.0,0.0,0.0,0.0,0.0,0.0,0.0,0.0,0.0,0.0,0.0,0.0,0.0,0.0,0.0,2.3477,2.4443,2.5342,2.6475,2.6641,2.667,2.6758,2.623,2.6133,2.6826,2.6269,2.6006,2.6367,2.6064,2.5781,2.5693,2.4855,2.4414,2.4414,2.3539,2.2925,2.2637,2.2637,2.2422,2.2012,2.2012,0.0,2.1317,2.1239,2.1035,2.0703,2.0146,1.9727,1.9365,1.8812,1.8403,1.8125,1.8047,1.8008,1.8008,1.8008,1.8008,1.8008,1.8008,1.8008,1.8008,1.8008,1.8008,1.8008,1.8008,1.8008,0.0,1.75,1.707,1.6599,1.6212,1.5732,1.541,1.541,1.541,1.541,1.541,1.541,1.541,1.541,1.541,1.5381,1.5303,1.4941,1.4394,1.3623,1.3437,1.3262,1.2954,1.2905,1.2905,1.2905,1.2905,1.2905,1.2905,1.2905,1.2905,1.2905,1.2905,1.2905,1.2905,1.2905,1.3037,1.3379,1.3389,1.3555,1.386,1.386,1.386,1.3851,1.3193,1.2905,0.0,0.0,0.0,0.0,0.0,0.0,0.0,0.0,0.0,0.0,0.0,2.0294,0.0,0.0,2.3344,2.5127,2.5762,2.6269,2.6924,2.6836,2.6699,2.6699,2.6328,2.623,2.666,2.6318,2.6152,2.6367,2.6182,2.5869,2.543,2.4775,2.4316,2.4111,2.3271,2.2682,2.251,2.2305,2.1982,2.1562,2.1562,2.1328,2.0898,2.0898,2.0654,2.0215,1.9785,1.9355,1.8926,1.8461,1.8159,1.8008,1.8008,1.8008,1.8008,1.8008,1.8008,1.8008,1.8008,1.8008,1.8008,1.8008,1.8008,1.8008,1.8008,1.7861,1.7607,1.7178,1.6738,1.6299,1.585,1.5576,1.541,1.541,1.541,1.541,1.541,1.541,1.541,1.541,1.541,1.541,1.541,1.5234,1.4883,1.4248,1.3965,1.3636,1.3252,1.3193,1.3115,1.2925,1.2905,1.2905,1.2905,1.2905,1.2905,1.2905,1.2905,1.3003,1.3184,1.3193,1.3389,1.3792,1.3792,1.3899,1.4104,1.4104,1.4104,1.4094,1.3701,1.3506,0.0,0.0,0.0,0.0,0.0,0.0,0.0,0.0,2.0265,2.0508,2.124,2.2282,2.3887,2.4512,2.5205,2.6435,2.6855,2.7012,2.7012,2.6582,2.623,2.6143,2.6211,2.626,2.626,2.626,2.626,2.626,2.6182,2.582,2.5155,2.457,2.4102,2.3682,2.291,2.2432,2.2266,2.1924,2.1543,2.1064,2.0976,2.0791,2.0478,2.039,2.0127,1.9775,1.9346,1.8916,1.8451,1.812,1.8008,1.8008,1.8008,1.8008,1.8008,1.8008,1.8008,1.8008,1.8008,1.8008,1.8008,1.8008,1.8008,1.8008,1.8008,1.7773,1.7393,1.6843,1.6475,1.6105,1.5547,1.541,1.541,1.541,1.541,1.541,1.541,1.541,1.541,1.541,1.541,1.541,1.541,1.541,1.5264,1.4844,1.4482,1.4085,1.3656,1.3633,1.3496,1.3164,1.3125,1.3125,1.3125,1.3125,1.3125,1.3125,1.3125,1.3271,1.3588,1.3633,1.3802,1.4221,1.4231,1.427,1.4358,1.4358,1.4358,1.4358,1.4358,1.426,1.2323,1.3676,1.5145,1.5834,1.7278,1.8757,0.0,0.0,2.1627,2.2604,2.3477,2.4355,2.5294,2.5869,2.6465,2.7373,2.7236,2.7012,2.7012,2.6269,2.5664,2.5311,2.5566,2.5762,2.5762,2.5762,2.5762,2.5762,2.5439,2.5213,2.5125,2.4297,2.3672,2.3296,2.2764,2.2148,2.1346,2.1288,2.1084,2.0674,2.0244,2.0039,1.9971,1.96,1.9404,1.9336,1.8896,1.8432,1.8076,1.8027,1.8008,1.8008,1.8008,1.8008,1.8008,1.8008,1.8008,1.8008,1.8008,1.8008,1.8008,1.8008,1.8008,1.8008,1.8008,1.7978,1.7773,1.6931,1.6668,1.6434,1.5595,1.541,1.541,1.541,1.541,1.541,1.541,1.541,1.541,1.541,1.541,1.541,1.541,1.541,1.5264,1.4844,1.4774,1.4551,1.4094,1.4036,1.4026,1.3968,1.3968,1.3968,1.3968,1.3968,1.3968,1.3968,1.3968,1.3987,1.4036,1.4036,1.4241,1.4697,1.4717,1.4893,1.5235,1.5235,1.5235,1.5235,1.5235,1.4835,1.2713,1.3772,1.5051,0.0,1.7977,1.9227,2.044,2.173,2.299,2.3886,2.4672,2.5401,2.6318,2.6435,2.6582,0.0,2.6924,2.6562,2.6259,2.5742,2.5098,2.4404,2.4492,2.4697,2.4894,2.4923,2.4923,2.4923,2.4795,2.458,2.4336,2.3984,2.3486,2.2803,2.2373,2.1855,2.12,2.0977,2.0625,2.0185,2.0,1.9785,1.9541,1.9365,1.915,1.8887,1.8422,1.8174,1.8008,1.8008,1.8008,1.8008,1.8008,1.8008,1.8008,1.8008,1.8008,1.8008,1.8008,1.8008,1.8008,1.8008,1.8008,1.8008,1.8008,1.7842,1.7568,1.7207,1.6892,1.6551,1.5957,1.5821,1.5723,1.5469,1.541,1.541,1.541,1.541,1.541,1.541,1.541,1.541,1.541,1.541,1.5352,1.5176,1.5146,1.499,1.457,1.4512,1.4387,1.4133,1.4104,1.4104,1.4104,1.4104,1.4104,1.4104,1.4104,1.4221,1.4502,1.4512,1.4717,1.5146,1.5146,1.5234,1.541,1.541,1.541,1.541,1.541,1.5186,1.3036,0.0,0.0,1.7028,1.836,1.9609,2.1021,2.2436,2.372,2.4603,2.5179,2.583,2.6493,2.6416,2.6348,2.6777,2.6484,2.6103,2.5732,2.5146,2.4489,2.3701,2.3408,2.3389,2.3682,2.4043,2.4248,2.4248,2.4248,2.4111,2.3809,2.3682,2.3223,2.2363,2.2041,2.1621,2.1055,2.0605,2.0225,1.9912,1.9678,1.9404,1.9102,1.8994,1.876,1.8412,1.8144,1.8008,1.8008,1.8008,1.8008,1.8008,1.8008,1.8008,1.8008,1.8008,1.8008,1.8008,1.8008,1.8008,1.8008,1.8008,1.8008,1.8008,1.8008,1.7803,1.7529,1.7422,1.7158,1.6807,1.6367,1.6281,1.6172,1.585,1.5674,1.5586,1.5586,1.5498,1.541,1.541,1.541,1.541,1.541,1.541,1.541,1.541,1.541,1.5303,1.5,1.4961,1.4834,1.4494,1.4465,1.4465,1.4465,1.4465,1.4465,1.4465,1.4465,1.4601,1.4941,1.4961,1.5098,1.5371,1.541,1.541,1.541,1.541,1.541,1.541,1.541,1.541,0.0,0.0,1.6007,1.7052,1.848,1.9944,2.1363,2.2442,2.3435,2.4632,2.5128,2.5391,2.5674,2.5713,2.5849,2.6338,2.6045,2.5703,2.5693,2.4639,2.3662,2.3276,2.2494,2.1953,0.0,2.3076,2.3809,2.3809,2.3809,2.3799,2.3789,2.3389,2.273,2.1934,2.1894,2.1505,2.0635,2.0146,1.9922,1.9902,1.9036,1.8637,1.8607,1.8232,1.8037,1.8027,1.8018,1.8008,1.8008,1.8008,1.8008,1.8008,1.8008,1.8008,1.8008,1.8008,1.8008,1.8008,1.8008,1.8008,1.8008,1.8008,1.8008,1.8008,1.8008,1.7998,1.791,1.75,1.7406,1.7266,1.6794,1.6677,1.6677,1.6668,1.6357,1.6075,1.6075,1.5703,1.541,1.541,1.541,1.541,1.541,1.541,1.541,1.541,1.541,1.541,1.5391,1.5391,1.5391,1.5342,1.5371,1.5371,1.5371,1.5371,1.5371,1.5371,1.5371,1.5381,1.5391,1.5391,1.54,1.541,1.541,1.541,1.541,1.541,1.541,1.541,1.541,1.541,1.4145,0.0,1.6348,1.7642,1.881,1.9903,2.1146,2.2156,2.2941,2.3651,2.3795,2.3847,2.3799,2.3654,2.374,2.416,2.4355,2.4443,2.4443,2.4062,2.3428,2.2432,2.206,0.0,0.0,0.0,2.2939,2.2939,2.3193,2.3359,2.3359,2.3169,2.2711,2.1914,2.1885,2.1465,2.0615,2.0127,1.9775,1.9482,1.8633,1.8188,1.8213,1.8076,1.8008,1.8008,1.8008,1.8008,1.8008,1.8008,1.8008,1.8008,1.8008,1.8008,1.8008,1.8008,1.8076,1.8178,1.8042,1.8008,1.8008,1.8008,1.8008,1.8008,1.8008,1.8008,1.7978,1.7842,1.7803,1.7705,1.7275,1.7168,1.709,1.6775,1.659,1.6514,1.6514,1.6152,1.587,1.587,1.5605,1.541,1.541,1.541,1.541,1.541,1.541,1.541,1.541,1.541,1.541,1.541,1.541,1.541,1.541,1.541,1.541,1.541,1.541,1.541,1.541,1.541,1.541,1.541,1.541,1.541,1.541,1.541,1.541,1.541,1.541,1.541,1.4933,1.5872,1.6845,1.8049,1.8862,1.9605,2.0465,2.1159,2.1731,2.2005,2.198,2.1919,2.1742,2.1613,2.1777,2.2321,2.2949,2.3389,2.3535,2.3564,2.3203,2.2227,2.1982,2.166,0.0,0.0,0.0,2.2305,2.2676,2.2935,2.3091,2.3091,2.2711,2.1914,2.1885,2.1465,2.0615,1.998,1.9394,1.8828,1.8271,1.8008,1.8008,1.8008,1.8008,1.8008,1.8008,1.8008,1.8008,1.8008,1.8008,1.8008,1.8076,1.811,1.811,1.8245,1.8381,1.8438,1.8202,1.8144,1.8178,1.8178,1.8178,1.8178,1.8245,1.8245,1.8178,1.8279,1.8212,1.8051,1.7809,1.7674,1.7539,1.7223,1.7038,1.6963,1.6963,1.6621,1.6299,1.6299,1.6074,1.5849,1.5849,1.5849,1.5849,1.5849,1.5849,1.5742,1.5449,1.541,1.541,1.541,1.541,1.541,1.541,1.541,1.541,1.541,1.541,1.5488,1.5635,1.5644,1.5723,1.5849,1.5849,1.5849,1.5849,1.5723,1.5644,1.5644,1.5488,1.541,1.5665,1.6547,1.7459,1.8298,1.869,1.9014,1.9405,1.9656,1.9765,1.9819,1.9787,1.9719,0.0,0.0,2.0107,2.0956,2.1834,2.2555,2.3003,2.3144,2.2998,0.0,0.0,0.0,0.0,0.0,0.0,2.1953,2.2305,2.2715,2.3071,2.3071,2.2734,2.1914,2.1865,2.1476,2.0615,1.9774,1.8896,1.8076,1.8076,1.8076,1.8076,1.8047,1.8037,1.8037,1.8018,1.8042,1.8042,1.8042,1.8042,1.8076,1.8269,1.8337,1.8405,1.8707,1.8852,1.8872,1.8536,1.8492,1.8516,1.8516,1.8549,1.8583,1.8774,1.8674,1.8573,1.8774,1.8573,1.8337,1.8337,1.8178,1.8008,1.8008,1.7705,1.7422,1.7422,1.707,1.6736,1.6736,1.6716,1.6697,1.6697,1.6697,1.6697,1.6697,1.6697,1.6395,1.5556,1.5478,1.5469,1.5449,1.5449,1.5439,1.541,1.541,1.541,1.541,1.543,1.5635,1.6075,1.6114,1.6299,1.6697,1.6697,1.6697,1.6697,1.6339,1.6124,1.6114,1.5674,1.5478,1.6683,1.7468,1.8238,1.8447,1.853,1.8598,1.8464,1.8264,1.8067,1.7792,1.7778,1.7724,0.0,0.0,0.0,1.9639,2.0781,0.0,2.2568,2.2949,0.0,2.2568,0.0,2.2227,2.1914,2.1982,0.0,2.2334,2.2744,2.2984,2.3091,2.2799,2.2432,2.1904,2.1572,2.1133,2.0615,2.0019,1.9482,1.8965,1.8965,1.8965,1.8955,1.8623,1.8546,1.8656,1.834,1.8381,1.8617,1.8617,1.8674,1.8808,1.8875,1.8965,1.9044,1.9144,1.9663,2.0363,2.0263,1.9681,1.8942,1.8942,1.9021,1.9121,1.9144,1.9154,1.9121,1.9144,1.8921,1.8674,1.8674,1.8438,1.8202,1.8202,1.8021,1.7852,1.7852,1.7519,1.7217,1.7217,1.6921,1.6697,1.6697,1.6697,1.6697,1.6697,1.6697,1.6619,1.6395,1.6365,1.6269,1.5958,1.5928,1.5762,1.5439,1.541,1.541,1.541,1.5723,1.5977,1.6085,1.6387,1.659,1.6697,1.6697,1.6697,1.6697,1.659,1.6562,1.6531,1.6414,1.6365,1.7628,1.8196,1.8684,1.8684,1.8366,1.8018,1.7592,1.6965,1.6485,1.6397,1.6297,0.0,1.6174,1.6866,0.0,0.0,0.0,0.0,2.2119,2.2754,2.3013,0.0,2.274,0.0,2.2461,2.2441,2.2539,2.2773,2.2789,2.2818,2.2818,2.2637,2.2227,2.1621,2.1327,2.084,2.0048,1.9941,1.9646,1.9183,1.9344,1.9532,1.9703,1.9417,1.9404,1.9571,1.9219,1.9151,1.931,1.9191,1.9208,1.9341,1.9495,1.9744,2.0037,2.038,2.1019,2.1745,2.1913,2.152,2.0897,2.0572,2.0494,2.0618,2.0796,2.0718,2.0541,2.0401,1.9925,1.9476,1.9365,1.8992,1.8744,1.8968,1.8844,1.874,1.8799,1.8587,1.8291,1.8148,1.7721,1.735,1.7295,1.7262,1.7262,1.7262,1.7262,1.7262,1.7262,1.6931,1.6609,1.6387,1.6357,1.626,1.5976,1.5966,1.5966,1.5966,1.6221,1.6476,1.6672,1.6885,1.71,1.7262,1.7262,1.7262,1.7262,1.7077,1.7044,1.7098,1.6902,1.6918,1.8404,1.8731,1.8905,1.8824,1.8103,1.7271,1.6739,1.5821,1.5079,1.5197,0.0,1.4956,1.5263,1.5975,1.6804,1.7705,0.0,2.0742,2.1582,2.249,2.3013,2.3013,2.3062,2.3091,2.3091,2.3091,2.3071,2.3013,2.2715,2.251,2.251,2.2402,2.1953,2.1044,2.0966,2.043,1.9297,1.9648,1.9639,1.9208,1.9623,2.004,2.0452,2.0427,2.0514,2.0728,2.0386,2.0268,2.0339,2.0112,2.0051,2.0117,2.0424,2.0842,2.1353,2.1974,2.2563,2.3106,2.341,2.358,2.3514,2.2628,2.2377,2.2446,2.2798,2.2628,2.2287,2.1967,2.1274,2.0529,2.0279,1.9806,1.9475,1.9874,1.9821,1.9677,1.9883,1.9811,1.9567,1.9188,1.8735,1.8325,1.813,1.8047,1.8008,1.8008,1.8008,1.8008,1.8008,1.733,1.6843,1.6794,1.6785,1.6765,1.6707,1.6697,1.6697,1.6697,1.6755,1.6992,1.7363,1.7432,1.7637,1.8008,1.8008,1.8008,1.8008,1.768,1.7583,1.7684,1.7382,1.7403,1.8818,1.8885,1.8804,1.8268,1.7341,1.6303,1.5354,1.4696,0.0,0.0,1.379,1.4183,1.3904,1.484,1.5898,1.6775,0.0,0.0,0.0,0.0,2.2617,0.0,0.0,0.0,2.3091,2.3091,0.0,2.2646,2.2549,2.251,2.251,2.1836,2.1015,2.0138,1.9805,1.9512,1.9287,1.9521,1.9843,2.0233,2.0655,2.116,2.1774,2.1523,2.1645,2.1984,2.1577,2.1739,2.2309,2.2263,2.2398,2.2654,2.2721,2.2913,2.3162,2.3273,2.3853,2.4536,2.4592,2.4986,2.5192,2.3609,2.3225,2.337,2.3437,2.3303,2.3078,2.284,2.223,2.1601,2.1381,2.0787,2.0287,2.0395,2.0119,1.9883,2.0088,2.0124,2.0032,1.9792,1.9289,1.8815,1.8535,1.8208,1.8008,1.8008,1.8008,1.8008,1.8008,1.7881,1.7656,1.7305,1.7275,1.7119,1.6726,1.6697,1.6697,1.6697,1.707,1.7305,1.7416,1.7715,1.7939,1.8008,1.8008,1.8008,1.8008,1.8099,1.816,1.8184,1.8381,1.8507,1.9112,1.9038,1.8784,1.8129,1.7027,1.5833,1.5042,0.0,0.0,0.0,1.3314,1.3557,1.3705,0.0,0.0,0.0,0.0,0.0,0.0,0.0,0.0,0.0,0.0,0.0,0.0,2.2769,2.2637,2.2217,2.1973,2.1804,2.1804,2.1115,2.0388,1.9767,1.9723,1.9613,1.9419,1.9792,2.0145,2.04,2.1203,2.1953,2.2644,2.2874,2.3212,2.3538,2.32,2.3271,2.3556,2.3376,2.3425,2.3559,2.367,2.395,2.4304,2.446,2.4982,2.5576,2.5701,2.593,2.6055,2.5249,2.4874,2.4818,2.492,2.4818,2.4552,2.4118,2.3465,2.2798,2.246,2.1895,2.1496,2.1752,2.1722,2.1649,2.1528,2.1483,2.1349,2.0974,2.0349,1.9757,1.9174,1.8755,1.8444,1.8207,1.8076,1.8008,1.8008,1.8008,1.793,1.7734,1.7805,1.7783,1.7543,1.7589,1.7622,1.7524,1.7754,1.7805,1.7715,1.79,1.8008,1.8008,1.8008,1.8008,1.8008,1.8212,1.8371,1.8573,1.8888,1.9264,1.9178,1.9058,1.8671,1.7996,1.6727,1.5442,1.4678,1.349,0.0,0.0,1.2935,1.3067,1.3561,0.0,1.5146,0.0,0.0,0.0,0.0,0.0,0.0,0.0,0.0,0.0,2.2412,2.2373,0.0,2.1777,2.125,2.0917,2.0917,2.0377,1.9915,1.9525,1.9743,1.9756,1.9476,2.0024,2.0389,2.0488,2.1522,2.2488,2.3302,2.3988,2.447,2.4874,2.467,2.4642,2.4687,2.441,2.4341,2.4408,2.4541,2.4857,2.5283,2.553,2.5918,2.6305,2.6465,2.6499,2.6499,2.6499,2.6292,2.605,2.6236,2.6131,2.5824,2.5235,2.456,2.3945,2.3522,2.3113,2.2926,2.3374,2.3567,2.3564,2.3191,2.3029,2.2784,2.2226,2.1596,2.0832,1.9916,1.9483,1.9052,1.8542,1.8337,1.8245,1.8245,1.8245,1.8245,1.8245,1.8313,1.8371,1.8405,1.8539,1.8583,1.8405,1.8371,1.8269,1.8076,1.8008,1.8008,1.8008,1.8008,1.8008,1.8076,1.8313,1.8573,1.8931,1.9353,1.9857,1.8811,1.8751,1.8317,1.7501,1.6174,1.4727,1.3449,0.0,0.0,1.1947,1.2281,1.2678,1.2794,1.3268,1.3818,0.0,0.0,1.6506,0.0,0.0,0.0,0.0,0.0,0.0,2.1953,2.1943,2.1768,2.1288,2.0469,2.0039,2.0039,1.9804,1.9541,1.9269,1.9213,1.9235,1.9306,1.9844,2.0435,2.104,2.1763,2.2725,2.3944,2.4291,2.4855,2.5535,2.5487,2.5685,2.6022,2.6008,2.6074,2.6233,2.6267,2.6305,2.6355,2.6389,2.6414,2.6499,2.6499,2.6499,2.6499,2.6499,2.6452,2.6465,2.6465,2.6327,2.6084,2.5662,2.524,2.4803,2.4445,2.4427,2.4585,2.493,2.4884,2.4694,2.4566,2.4269,2.3868,2.3268,2.2615,2.1836,2.0761,2.0271,1.9774,1.9104,1.9008,1.8998,1.8998,1.8998,1.8998,1.8998,1.8674,1.8549,1.8741,1.8942,1.8975,1.8774,1.8573,1.8414,1.8269,1.811,1.8008,1.8008,1.8008,1.8076,1.8269,1.8607,1.8931,1.9276,1.9966,2.0399,1.7649,1.7829,1.7521,1.658,1.5384,1.4183,1.3123,0.0,1.1834,1.1966,1.2154,1.2404,1.2763,1.3198,1.3539,0.0,0.0,0.0,0.0,0.0,0.0,0.0,0.0,0.0,0.0,0.0,2.1201,2.0459,2.0117,1.9725,1.9315,1.9459,1.9518,1.9432,1.9489,1.978,2.0376,2.0468,2.0885,2.1594,2.2251,2.2965,2.3715,2.4579,2.5219,2.5611,2.5993,2.6211,2.6361,2.6361,2.643,2.6499,2.6499,2.6499,2.6499,2.6499,2.6499,2.6499,2.6499,2.6499,2.6499,2.6499,2.6499,2.6499,2.6499,2.643,2.6327,2.605,2.599,2.5972,2.5697,2.5871,2.6123,2.6247,2.6292,2.6217,2.5663,2.5537,2.5288,2.4465,2.391,2.3327,2.2523,2.1857,2.1258,2.0726,2.019,1.983,1.983,1.9575,1.944,1.9572,1.9341,1.9175,1.9274,1.9528,1.9584,1.9308,1.9208,1.9166,1.9206,1.9113,1.9211,1.9519,1.9484,1.9422,1.9216,1.9536,1.9727,1.9802,2.041,2.0967,1.6366,1.6683,1.6489,1.5685,1.465,1.3546,0.0,0.0,1.1498,1.2009,1.2152,1.2298,1.2808,1.3125,1.332,0.0,0.0,1.4619,0.0,0.0,0.0,0.0,0.0,2.0586,2.0391,2.0703,2.0635,2.0046,1.9799,1.9522,1.9154,1.9295,1.941,1.9446,1.9761,2.0203,2.0769,2.0969,2.1295,2.1817,2.2556,2.3116,2.3621,2.4665,2.5328,2.5624,2.6248,2.6499,2.6499,2.6499,2.6499,2.6499,2.6499,2.6499,2.6499,2.6499,2.6499,2.6499,2.6499,2.6499,2.6499,2.6499,2.6499,2.6524,2.6688,2.6738,2.6703,2.6507,2.668,2.6943,2.6956,2.7162,2.7427,2.7585,2.7651,2.7506,2.6881,2.6664,2.6359,2.5577,2.504,2.4531,2.3863,2.3279,2.2709,2.2262,2.1596,2.1194,2.1194,2.0908,2.0743,2.0809,2.0743,2.0544,2.0149,2.0446,2.0511,2.0237,2.0105,2.0056,2.0115,2.0149,2.0345,2.068,2.068,2.0558,2.0382,2.0486,2.0609,2.0728,2.1044,2.1514,1.5097,1.5418,1.5323,1.4903,1.3899,1.2799,0.0,0.0,1.1407,1.1812,1.2101,1.2431,1.2832,1.2905,1.2915,1.2915,0.0,0.0,1.3535,0.0,0.0,0.0,0.0,1.9473,1.9883,2.0092,2.0224,2.0205,1.9593,1.9353,1.9668,1.9326,1.9114,1.9114,1.9896,2.0197,2.0012,2.1074,2.16,2.16,2.2468,2.3164,2.371,2.4473,2.5109,2.5624,2.6248,2.6499,2.6499,2.6499,2.6499,2.6499,2.6499,2.6499,2.6499,2.6499,2.6499,2.6499,2.6499,2.6499,2.6499,2.6499,2.6499,2.66,2.714,2.7268,2.7233,2.7042,2.7235,2.7594,2.8122,2.8269,2.8416,2.8944,2.8842,2.8523,2.8307,2.7594,2.6864,2.6468,2.597,2.5296,2.4431,2.4267,2.4043,2.3374,2.3292,2.3258,2.3258,2.3246,2.3179,2.2999,2.3134,2.2734,2.1508,2.1684,2.1815,2.1695,2.1297,2.1029,2.0884,2.1023,2.1107,2.1072,2.1072,2.1293,2.1675,2.1272,2.1463,2.2164,2.1969,2.218,1.3073,1.3662,1.3872,1.3267,1.2799,1.2348,1.1631,0.0,1.1432,1.1926,1.2175,1.2431,1.2832,1.2905,1.2905,1.2905,1.3023,0.0,0.0,0.0,0.0,1.658,1.7944,1.9014,1.9443,1.9649,1.9723,1.9523,1.954,1.9579,1.9638,1.9608,1.9698,1.9916,1.9889,2.0199,2.0807,2.1288,2.1716,2.2089,2.2725,2.3135,2.3292,2.396,2.4556,2.5096,2.5636,2.6135,2.6499,2.6499,2.6499,2.6499,2.6499,2.6499,2.6499,2.6499,2.6499,2.6499,2.6499,2.6499,2.6499,2.6499,2.6499,2.66,2.7153,2.7281,2.7444,2.8111,2.8375,2.86,2.9173,2.9323,2.9373,2.9548,2.9487,2.9288,2.8824,2.85,2.8138,2.7654,2.7321,2.688,2.6267,2.5933,2.5538,2.4972,2.4484,2.42,2.42,2.3865,2.3625,2.3559,2.404,2.3883,2.2613,2.2801,2.2923,2.2789,2.2789,2.2874,2.3017,2.3075,2.3235,2.3567,2.3578,2.3453,2.3283,2.3293,2.3364,2.3505,2.3684,2.3848,0.0,1.2209,1.2511,1.2177,1.1967,0.0,0.0,0.0,1.1602,1.2156,1.2357,1.2529,1.2832,1.2905,1.2905,1.2905,1.2905,1.3125,0.0,0.0,0.0,1.6989,0.0,1.8809,1.9367,1.9521,1.9561,1.9522,1.9719,1.9818,1.9684,1.98,1.9927,2.0064,1.9904,2.0074,2.0595,2.1184,2.1656,2.2008,2.2744,2.3108,2.312,2.3728,2.4305,2.4813,2.5372,2.5925,0.0,2.6499,2.6499,2.6499,2.6499,2.6499,2.6499,2.6499,2.6499,2.6499,2.6499,2.6499,2.6499,2.6499,2.6776,2.7178,2.7494,2.7733,2.8097,2.9001,2.9252,2.934,2.9691,2.9792,2.9792,2.9792,2.9792,2.9691,2.934,2.9051,2.8787,2.8486,2.8125,2.7801,2.7452,2.7222,2.693,2.6585,2.6182,2.5903,2.5903,2.5632,2.5326,2.5049,2.5424,2.5251,2.4193,2.4102,2.4083,2.397,2.4037,2.4126,2.4278,2.4411,2.4613,2.4933,2.4933,2.4814,2.4622,2.4661,2.4536,2.4288,2.4561,2.4671,0.0,0.0,0.0,0.0,0.0,0.0,0.0,0.0,0.0,1.2406,1.2603,1.2735,1.2881,1.2905,1.2905,1.2905,1.2905,1.3037,0.0,1.4346,0.0,0.0,1.8311,1.8831,1.9479,1.9485,1.9613,1.9991,2.0105,2.0092,1.9867,1.9985,1.9968,1.9749,1.9906,1.9856,1.9617,2.0836,2.1443,2.1506,2.2543,2.3058,2.312,2.369,2.4243,2.4763,2.531,2.5862,2.6436,2.6474,2.6499,2.6499,2.6499,2.6499,2.6499,2.6499,2.6499,2.6499,2.6499,2.6499,2.6499,2.6499,2.7241,2.8109,2.8109,2.8511,2.9063,2.9641,2.9792,2.9792,2.9792,2.9792,2.9792,2.9792,2.9792,2.9792,2.9792,2.9365,2.895,2.895,2.8574,2.821,2.8172,2.816,2.8147,2.8109,2.8109,2.8109,2.8109,2.8109,2.7836,2.7155,2.7069,2.6787,2.6044,2.5502,2.5194,2.5194,2.5012,2.4932,2.4932,2.5234,2.5382,2.5382,2.5382,2.5488,2.5676,2.5484,2.517,2.473,2.4881,2.4913,1.1176,0.0,1.1349,1.1276,1.1491,0.0,0.0,0.0,0.0,0.0,0.0,0.0,0.0,1.2905,1.2905,1.2905,1.2905,1.3135,1.386,1.5284,0.0,1.6941,1.7795,1.8468,1.8714,1.9124,1.9544,2.0051,2.0551,2.0791,2.0588,2.06,2.0447,2.008,1.9826,1.9715,1.9759,2.0514,2.1094,2.1493,2.2184,2.2694,2.3108,2.3246,2.3622,2.4217,2.477,2.531,2.5871,2.6311,2.6499,2.6499,2.6499,2.6499,2.6499,2.6499,2.6499,2.6499,2.6499,2.6499,2.6499,2.6499,2.7241,2.8109,2.8109,2.88,2.9616,2.9754,2.9792,2.9792,2.9792,2.9792,2.9792,2.9792,2.9792,2.9792,2.9792,2.9691,2.9591,2.9591,2.949,2.9252,2.8775,2.87,2.8549,2.8172,2.8109,2.8109,2.8109,2.8109,2.801,2.7848,2.7836,2.761,2.7037,2.6348,2.5946,2.5946,2.6037,2.6093,2.6093,2.6171,2.6211,2.6211,2.6211,2.6245,2.628,2.6258,2.6167,2.6042,2.6076,2.6109,1.1553,1.1464,1.1381,1.1436,1.1722,1.2028,0.0,0.0,0.0,0.0,0.0,0.0,0.0,0.0,1.2964,1.3135,1.3164,1.3603,0.0,0.0,1.7002,1.7396,1.8082,1.8607,1.8865,1.9342,1.9803,2.0172,2.0759,2.0909,2.0462,2.054,2.0416,1.9943,1.9766,1.9734,1.9798,2.0402,2.0968,2.1493,2.2046,2.2569,2.3108,2.3108,2.3421,2.4029,2.4582,2.5109,2.5636,2.6248,2.6499,2.6499,2.6499,2.6499,2.6499,2.6499,2.6499,2.6499,2.6499,2.6663,2.6876,2.6876,2.7582,2.8486,2.8486,2.9101,2.9792,2.9792,2.9792,2.9792,2.9792,2.9792,2.9792,2.9792,2.9792,2.9792,2.9792,2.9792,2.9792,2.9792,2.9792,2.9691,2.9377,2.9327,2.9227,2.8925,2.8875,2.8875,2.8875,2.8875,2.8775,2.8511,2.8486,2.826,2.7708,2.7287,2.6876,2.6364,2.643,2.6499,2.6499,2.6499,2.6499,2.6499,2.6499,2.6499,2.6499,2.6499,2.6499,2.6499,2.6499,2.6499,1.2026,1.1769,1.1603,1.1902,1.2076,1.2249,0.0,0.0,0.0,0.0,0.0,0.0,0.0,1.2954,0.0,0.0,0.0,0.0,1.5791,1.6641,1.738,1.8148,1.8633,1.9,1.928,1.9825,2.0204,2.0297,2.08,2.078,2.0101,2.0301,2.0202,1.9655,1.9734,1.9798,1.9798,2.0314,2.088,2.1493,2.197,2.2493,2.3108,2.3108,2.3371,2.3904,2.4544,2.5071,2.5523,2.6223,2.6499,2.6499,2.6499,2.6499,2.6499,2.6499,2.6499,2.6499,2.6587,2.6977,2.7406,2.7406,2.8097,2.8888,2.8888,2.934,2.9792,2.9792,2.9792,2.9792,2.9792,2.9792,2.9792,2.9792,2.9792,2.9792,2.9792,2.9792,2.9792,2.9792,2.9792,2.9792,2.9792,2.9792,2.9792,2.9792,2.9792,2.9792,2.9792,2.9792,2.9603,2.9076,2.9026,2.8837,2.8285,2.8235,2.7795,2.6813,2.6751,2.6713,2.6625,2.6537,2.6499,2.6499,2.6499,2.6499,2.6499,2.6499,2.6499,2.6499,2.6499,2.6499,1.2554,1.2529,1.2455,1.2274,1.2431,1.2627,0.0,0.0,0.0,0.0,0.0,0.0,0.0,1.3174,1.3437,0.0,0.0,1.5205,1.5478,1.6669,1.7621,1.7923,1.887,1.9445,1.9317,2.0059,2.0468,2.0299,2.0752,2.0827,2.0353,2.0544,2.0374,1.9798,1.9798,1.9798,1.9798,1.9886,2.0451,2.1493,2.1568,2.2146,2.3108,2.3108,2.3158,2.3296,2.4336,2.4838,2.4988,2.6072,2.6499,2.6499,2.6499,2.6499,2.6499,2.6499,2.6499,2.6562,2.7027,2.7519,2.7984,2.7984,2.8411,2.8888,2.8888,2.934,2.9792,2.9792,2.9792,2.9792,2.9792,2.9792,2.9792,2.9792,2.9792,2.9792,2.9792,2.9792,2.9792,2.9792,2.9792,2.9792,2.9792,2.9792,2.9792,2.9792,2.9792,2.9792,2.9792,2.9792,2.9754,2.9666,2.9666,2.9428,2.8813,2.8762,2.8499,2.7896,2.7846,2.7645,2.7216,2.6738,2.6499,2.6499,2.6499,2.6499,2.6499,2.6499,2.6499,2.6499,2.6499,2.6499,1.2774,1.2808,1.2783,1.2652,1.2725,1.2808,0.0,0.0,0.0,0.0,0.0,0.0,0.0,0.0,1.373,1.4424,1.5282,1.6048,1.652,1.741,1.8092,1.8253,1.9116,1.9634,1.9488,2.0125,2.0445,2.0262,2.0505,2.0506,2.0107,2.0161,2.0075,1.9811,1.9798,1.9798,1.9798,1.9798,2.0225,2.1069,2.1343,2.1907,2.2669,2.297,2.3108,2.3145,2.4017,2.4512,2.485,2.5674,2.621,2.6499,2.6499,2.6499,2.6524,2.6839,2.6939,2.7014,2.7544,2.8084,2.8512,2.8512,2.8938,2.9402,2.9402,2.9578,2.9792,2.9792,2.9792,2.9792,2.9792,2.9792,2.9792,2.9792,2.9792,2.9792,2.9792,2.9792,2.9792,2.9792,2.9792,2.9792,2.9792,2.9792,2.9792,2.9792,2.9792,2.9792,2.9792,2.9792,2.9792,2.9792,2.9792,2.9691,2.9415,2.9402,2.9026,2.816,2.8109,2.7996,2.7733,2.7241,2.6939,2.6939,2.665,2.6499,2.6499,2.6499,2.6499,2.6499,2.6499,2.6499,1.2905,1.2905,1.2905,1.2905,0.0,0.0,0.0,0.0,0.0,0.0,0.0,0.0,0.0,1.3301,0.0,1.5225,1.5989,1.6693,1.7432,1.8063,1.8542,1.8733,1.9392,1.975,1.9575,2.0125,2.0362,2.0072,2.0184,2.0131,1.9823,1.9798,1.9798,1.9798,1.9798,1.9798,1.9798,1.9798,2.0087,2.0691,2.1119,2.1656,2.2293,2.2719,2.2982,2.3133,2.3753,2.4305,2.4825,2.5385,2.5971,2.6499,2.6499,2.6499,2.6562,2.7115,2.7369,2.7557,2.8109,2.8662,2.9126,2.9126,2.9428,2.9792,2.9792,2.9792,2.9792,2.9792,2.9792,2.9792,2.9792,2.9792,2.9792,2.9792,2.9792,2.9792,2.9792,2.9792,2.9792,2.9792,2.9792,2.9792,2.9792,2.9792,2.9792,2.9792,2.9792,2.9792,2.9792,2.9792,2.9792,2.9792,2.9792,2.9792,2.9792,2.9792,2.9428,2.8549,2.8373,2.8298,2.8298,2.777,2.7419,2.7281,2.6901,2.6625,2.6499,2.6499,2.6499,2.6499,2.6499,2.6521,1.2905,1.2905,1.2905,1.2905,1.2905,0.0,0.0,0.0,0.0,0.0,0.0,0.0,0.0,1.3545,1.4348,1.5235,1.6275,1.7035,1.7283,1.8059,1.8733,1.9198,1.9572,1.9715,1.9542,2.0037,2.0182,1.969,1.977,1.9823,1.9798,1.9798,1.9798,1.9798,1.9798,1.9798,1.9798,1.9798,2.0087,2.0691,2.0729,2.1307,2.2309,2.2347,2.2619,2.3133,2.3753,2.4305,2.4825,2.5385,2.5971,2.6499,2.6499,2.6499,2.6562,2.7115,2.7607,2.8122,2.865,2.9252,2.9729,2.9729,2.9754,2.9792,2.9792,2.9792,2.9792,2.9792,2.9792,2.9792,2.9792,2.9792,2.9792,2.9792,2.9792,2.9792,2.9792,2.9792,2.9792,2.9792,2.9792,2.9792,2.9792,2.9792,2.9792,2.9792,2.9792,2.9792,2.9792,2.9792,2.9792,2.9792,2.9792,2.9792,2.9792,2.9792,2.9754,2.9679,2.9164,2.8838,2.8838,2.8335,2.7808,2.7329,2.7278,2.7002,2.6499,2.6499,2.6499,2.6499,2.6499,2.6555,1.3238,1.3214,1.3176,1.3051,0.0,0.0,0.0,0.0,0.0,0.0,1.3584,0.0,0.0,0.0,1.4624,1.5676,1.6615,1.7327,1.7739,1.8442,1.8901,1.8863,1.9097,1.9139,1.8828,1.8942,1.8946,1.8734,1.8795,1.8957,1.9271,1.8995,1.9108,1.9773,1.9497,1.9447,1.9798,1.9798,1.9911,2.0125,2.0515,2.0918,2.1333,2.1995,2.2393,2.2631,2.3195,2.3948,2.4813,2.5034,2.5649,2.6499,2.6499,2.6499,2.66,2.7469,2.7921,2.8235,2.9151,2.9616,2.9792,2.9792,2.9792,2.9792,2.9792,2.9792,2.9792,2.9792,2.9792,2.9792,2.9792,2.9792,2.9792,2.9792,2.9792,2.9792,2.9792,2.9792,2.9792,2.9792,2.9792,2.9792,2.9792,2.9792,2.9792,2.9792,2.9792,2.9792,2.9792,2.9792,2.9792,2.9792,2.9792,2.9792,2.9792,2.9792,2.9792,2.9792,2.9591,2.9465,2.9465,2.8875,2.8511,2.831,2.7632,2.718,2.7002,2.6663,2.6521,2.6624,2.6624,2.6794,1.36,1.3552,1.3501,0.0,0.0,0.0,0.0,0.0,0.0,0.0,1.3792,0.0,1.4044,0.0,0.0,1.5991,1.6871,1.7586,1.8055,1.8534,1.8776,1.8645,1.8581,1.8489,1.8276,1.8238,1.8204,1.8204,1.8204,1.8367,1.8719,1.8405,1.8618,1.9522,1.9196,1.9259,1.9798,1.9798,1.9798,1.9811,2.0239,2.0515,2.0729,2.1631,2.2146,2.2347,2.2869,2.3747,2.4788,2.4788,2.5473,2.6499,2.6499,2.6499,2.6625,2.7695,2.8109,2.826,2.9402,2.9792,2.9792,2.9792,2.9792,2.9792,2.9792,2.9792,2.9792,2.9792,2.9792,2.9792,2.9792,2.9792,2.9792,2.9792,2.9792,2.9792,2.9792,2.9792,2.9792,2.9792,2.9792,2.9792,2.9792,2.9792,2.9792,2.9792,2.9792,2.9792,2.9792,2.9792,2.9792,2.9792,2.9792,2.9792,2.9792,2.9792,2.9792,2.9792,2.9792,2.9792,2.9792,2.9415,2.9076,2.8888,2.8185,2.772,2.7544,2.7261,2.7177,2.7316,2.7455,2.7752,1.4014,1.3918,1.3821,0.0,0.0,0.0,0.0,0.0,0.0,0.0,0.0,1.4294,1.4901,1.5137,1.5462,1.6185,1.7093,1.781,1.8169,1.8187,1.8317,1.8664,1.8162,1.7846,1.7977,1.8108,1.8191,1.8191,1.8191,1.8191,1.8191,1.8191,1.8418,1.8983,1.8995,1.9246,1.9798,1.9798,1.9798,1.9798,1.9798,2.01,2.0704,2.1257,2.1782,2.2305,2.2857,2.3747,2.4788,2.48,2.5473,2.6499,2.6499,2.6499,2.6625,2.7695,2.8109,2.826,2.9402,2.9792,2.9792,2.9792,2.9792,2.9792,2.9792,2.9792,2.9792,2.9792,2.9792,2.9792,2.9792,2.9792,2.9792,2.9792,2.9792,2.9792,2.9792,2.9792,2.9792,2.9792,2.9792,2.9792,2.9792,2.9792,2.9792,2.9792,2.9792,2.9792,2.9792,2.9792,2.9792,2.9792,2.9792,2.9792,2.9792,2.9792,2.9792,2.9792,2.9792,2.9792,2.9792,2.9792,2.9515,2.8913,2.89,2.8662,2.8109,2.8303,2.852,2.8726,2.9129,2.9609,1.4823,1.4731,0.0,1.4303,0.0,0.0,0.0,0.0,0.0,0.0,1.4758,1.4815,1.5081,1.5529,1.6078,1.6807,1.7593,1.8082,1.7997,1.8192,1.8249,1.7953,1.7592,1.7396,1.7419,1.7172,1.6989,1.6989,1.6989,1.72,1.7601,1.7237,1.7616,1.8958,1.8619,1.8882,1.9798,1.9798,1.9798,1.9798,1.9798,1.9886,2.0087,2.1054,2.1581,2.1782,2.2694,2.3747,2.485,2.5661,2.6197,2.6499,2.6499,2.6499,2.6625,2.7695,2.8109,2.826,2.9402,2.9792,2.9792,2.9792,2.9792,2.9792,2.9792,2.9792,2.9792,2.9792,2.9792,2.9792,2.9792,2.9792,2.9792,2.9792,2.9792,2.9792,2.9792,2.9792,2.9792,2.9792,2.9792,2.9792,2.9792,2.9792,2.9792,2.9792,2.9792,2.9792,2.9792,2.9792,2.9792,2.9792,2.9792,2.9792,2.9792,2.9792,2.9869,3.0011,3.0011,2.9934,2.9792,2.9934,2.9935,2.9758,2.9616,2.947,2.9303,2.9109,2.92,2.9531,2.9749,3.0241,1.5424,1.5334,0.0,1.4937,1.4846,1.4843,1.4829,0.0,0.0,0.0,1.5548,1.5517,1.5595,1.5988,1.6464,1.694,1.7479,1.7843,1.779,1.7848,1.7799,1.7481,1.7138,1.6916,1.6916,1.6657,1.65,1.65,1.65,1.6651,1.7024,1.671,1.7165,1.8632,1.838,1.8719,1.9798,1.9798,1.9798,1.9798,1.9798,1.9798,1.9836,2.0767,2.1307,2.1568,2.3095,2.4161,2.4876,2.6034,2.6499,2.6499,2.6499,2.6499,2.6625,2.7695,2.8109,2.826,2.9402,2.9792,2.9792,2.9792,2.9792,2.9792,2.9792,2.9792,2.9792,2.9792,2.9792,2.9792,2.9792,2.9792,2.9792,2.9792,2.9792,2.9792,2.9792,2.9792,2.9792,2.9792,2.9792,2.9792,2.9792,2.9792,2.9792,2.9792,2.9792,2.9792,2.9792,2.9792,2.9792,2.9792,2.9792,2.9792,2.9792,2.9869,3.0011,3.0228,3.0381,3.0419,3.0368,3.0343,3.0419,3.0545,3.0422,3.0388,3.0498,3.0434,3.0597,3.0894,3.1273,3.1777,1.5859,0.0,0.0,1.5635,1.558,0.0,1.6215,1.56,1.5141,1.6033,0.0,1.6297,1.6304,1.6545,1.6737,1.6781,1.7069,1.7351,1.7545,1.7354,1.7194,1.7144,1.676,1.65,1.65,1.65,1.65,1.65,1.65,1.65,1.65,1.65,1.7014,1.8166,1.8204,1.8719,1.9798,1.9798,1.9798,1.9798,1.9798,1.9798,1.9823,2.0427,2.1018,2.1681,2.3816,2.4738,2.4876,2.6034,2.6499,2.6499,2.6499,2.6499,2.6625,2.7695,2.8109,2.826,2.9402,2.9792,2.9792,2.9792,2.9792,2.9792,2.9792,2.9792,2.9792,2.9792,2.9792,2.9792,2.9792,2.9792,2.9792,2.9792,2.9792,2.9792,2.9792,2.9792,2.9792,2.9792,2.9792,2.9792,2.9792,2.9792,2.9792,2.9792,2.9792,2.9792,2.9792,2.9792,2.9792,2.9792,2.983,2.983,2.983,3.0011,3.0267,3.0482,3.0861,3.1147,3.1381,3.1011,3.0973,3.127,3.1331,3.1479,3.1649,3.2078,3.2367,3.2547,3.3276,3.3811,1.6284,1.6241,0.0,0.0,1.5702,1.561,1.5984,1.5738,1.5719,1.6741,1.6582,1.6402,1.6957,1.696,1.7002,1.7497,1.7702,1.7745,1.7476,1.7382,1.7167,1.6717,1.6554,1.65,1.65,1.65,1.65,1.65,1.65,1.65,1.65,1.65,1.7014,1.8166,1.8204,1.8719,1.9798,1.9798,1.9798,1.9798,1.9798,1.9798,1.9823,2.0427,2.1232,2.2209,2.359,2.4418,2.4876,2.6034,2.6499,2.6499,2.6499,2.6499,2.6625,2.7695,2.8109,2.826,2.9402,2.9792,2.9792,2.9792,2.9792,2.9792,2.9792,2.9792,2.9792,2.9792,2.9792,2.9792,2.9792,2.9792,2.9792,2.9792,2.9792,2.9792,2.9792,2.9792,2.9792,2.9792,2.9792,2.9792,2.9792,2.9792,2.9792,2.9792,2.9792,2.9792,2.9792,2.9792,2.9792,2.9792,2.9934,3.0049,3.0049,3.0343,3.0723,3.1073,3.1418,3.1919,3.2583,3.2092,3.1836,3.1909,3.2547,3.2868,3.2903,3.3276,3.3555,3.3728,3.4065,3.4385,1.6457,0.0,0.0,1.6272,0.0,1.6023,1.6358,1.6221,1.625,1.7085,1.6811,1.6524,1.6815,1.6856,1.6919,1.7096,1.7184,1.7175,1.6989,1.6974,1.6861,1.6538,1.65,1.65,1.65,1.65,1.65,1.65,1.65,1.65,1.65,1.65,1.7014,1.8166,1.8204,1.8719,1.9798,1.9798,1.9798,1.9798,1.9798,1.9798,1.9823,2.0427,2.1157,2.1983,2.31,2.4054,2.4883,2.5711,2.6248,2.6499,2.6499,2.6663,2.6989,2.7795,2.8273,2.8624,2.949,2.9792,2.9792,2.9792,2.9792,2.9792,2.9792,2.9792,2.9792,2.9792,2.9792,2.9792,2.9792,2.9792,2.9792,2.9792,2.9792,2.9792,2.9792,2.9792,2.9792,2.9792,2.9792,2.9792,2.9792,2.9792,2.9792,2.9792,2.9869,2.9934,2.9934,3.0049,3.0075,3.0075,3.0279,3.0432,3.0533,3.096,3.1394,3.1813,3.2318,3.284,3.3374,3.3374,3.3255,3.3066,3.3465,3.3722,3.3839,3.4113,3.4269,3.4385,3.4668,3.4883,0.0,0.0,1.65,1.65,1.6457,0.0,1.6751,1.6622,1.6582,1.7027,1.687,1.6628,1.6503,1.6616,1.6649,1.6445,1.6414,1.6436,1.65,1.65,1.65,1.65,1.65,1.65,1.65,1.65,1.65,1.65,1.65,1.65,1.65,1.65,1.7014,1.8166,1.8204,1.8719,1.9798,1.9798,1.9798,1.9798,1.9798,1.9798,1.9823,2.0327,2.0905,2.1543,2.2531,2.3659,2.4825,2.5385,2.5971,2.6499,2.6499,2.6776,2.7253,2.7871,2.8398,2.885,2.9566,2.9792,2.9792,2.9792,2.9792,2.9792,2.9792,2.9792,2.9792,2.9792,2.9792,2.9792,2.9792,2.9792,2.9792,2.9792,2.9792,2.9792,2.9792,2.9792,2.9792,2.9792,2.9792,2.9792,2.9869,2.9869,2.9869,2.9946,3.0088,3.0228,3.0228,3.0406,3.0545,3.0545,3.0785,3.1024,3.1161,3.1713,3.2209,3.2583,3.3276,3.3776,3.3977,3.4515,3.465,3.4356,3.4322,3.437,3.4549,3.4731,3.4831,3.4831,3.5129,3.5261,0.0,0.0,1.65,0.0,1.6457,1.6417,0.0,0.0,1.6257,0.0,1.6435,1.6585,1.6803,1.6628,1.6458,1.6491,1.65,1.65,1.65,1.65,1.65,1.65,1.65,1.65,1.65,1.65,1.65,1.65,1.65,1.65,1.65,1.65,1.7014,1.8166,1.8204,1.8719,1.9798,1.9798,1.9798,1.9798,1.9798,1.9798,1.9798,1.9874,2.0489,2.1518,2.2146,2.3339,2.4825,2.5385,2.5971,2.6499,2.6499,2.6537,2.6738,2.772,2.816,2.836,2.9428,2.9792,2.9792,2.9792,2.9792,2.9792,2.9792,2.9792,2.9792,2.9792,2.9792,2.9792,2.9792,2.9792,2.9792,2.9792,2.9792,2.9792,2.9792,2.9792,2.9792,2.9792,2.9792,2.9869,3.0049,3.0049,3.0203,3.0546,3.0584,3.0685,3.0874,3.0985,3.1084,3.1084,3.1579,3.1909,3.1946,3.2654,3.3185,3.3332,3.3928,3.4433,3.4735,3.5016,3.5195,3.5326,3.5148,3.5082,3.5082,3.5309,3.5407,3.5407,3.5439,3.5472,1.6641,1.6543,1.65,0.0,1.6479,1.6457,1.6457,1.6414,1.6383,1.6383,1.6448,1.652,1.6621,1.6533,1.6479,1.65,1.65,1.65,1.65,1.65,1.65,1.65,1.65,1.65,1.65,1.65,1.65,1.65,1.65,1.65,1.65,1.65,1.6864,1.7714,1.8041,1.8581,1.9334,1.966,1.9798,1.9798,1.9798,1.9798,1.9798,1.9798,2.0413,2.1506,2.1744,2.2799,2.4406,2.4946,2.5485,2.6047,2.6361,2.6688,2.7014,2.7469,2.7846,2.8222,2.9026,2.9315,2.9365,2.9691,2.9792,2.9792,2.9792,2.9792,2.9792,2.9792,2.9792,2.9792,2.9792,2.9792,2.983,2.9934,2.9972,3.0011,3.0241,3.0023,2.983,2.9934,2.9972,3.0088,3.0394,3.0533,3.0672,3.096,3.1259,3.1519,3.1593,3.1859,3.2042,3.2042,3.2475,3.2797,3.2889,3.3514,3.3977,3.4147,3.4601,3.4916,3.5082,3.5261,3.5407,3.5504,3.5407,3.5359,3.5359,3.5472,3.5504,3.5504,3.5504,3.5554,0.0,0.0,1.6607,1.6565,1.6543,1.6543,0.0,0.0,1.65,1.65,1.65,1.6479,1.6436,1.6479,1.65,1.65,1.65,1.65,1.65,1.65,1.65,1.65,1.65,1.6522,1.6556,1.6543,1.6565,1.6629,1.6629,1.6629,1.6629,1.6629,1.6872,1.7418,1.7949,1.8492,1.8995,1.9547,1.9798,1.9798,1.9798,1.9798,1.9798,1.9798,2.0413,2.1493,2.1493,2.2447,2.4042,2.4594,2.5134,2.5649,2.6273,2.6751,2.7128,2.7231,2.7544,2.7971,2.8524,2.8775,2.8963,2.9428,2.9679,2.9792,2.9869,2.9869,2.9908,3.0023,3.0023,3.0049,3.0088,3.0088,3.0126,3.0305,3.033,3.0444,3.066,3.0394,3.0164,3.0305,3.0381,3.052,3.0898,3.1161,3.1371,3.1713,3.2114,3.2453,3.2511,3.2832,3.3044,3.3044,3.3409,3.3687,3.3811,3.4283,3.465,3.4831,3.5096,3.5294,3.5294,3.5439,3.5504,3.5504,3.5504,3.5504,3.5504,3.5504,3.5504,3.5504,3.5522,3.5621,0.0,1.6981,0.0,1.674,0.0,0.0,0.0,0.0,1.65,1.65,1.65,1.65,1.65,1.65,1.65,1.65,1.65,1.65,1.65,1.65,1.65,1.65,1.65,1.6556,1.6675,1.6675,1.6761,1.696,1.6981,1.6981,1.6981,1.6981,1.7119,1.747,1.8075,1.8575,1.8995,1.9547,1.9798,1.9798,1.9798,1.9798,1.9798,1.9798,2.0413,2.1493,2.1493,2.2447,2.4042,2.4594,2.5134,2.5649,2.6273,2.6512,2.66,2.7128,2.7341,2.7406,2.7959,2.8449,2.89,2.8925,2.934,2.983,3.0049,3.0075,3.0152,3.0546,3.066,3.0698,3.0874,3.0949,3.0949,3.0949,3.1035,3.106,3.0761,3.0849,3.0949,3.0949,3.1073,3.1257,3.1649,3.1896,3.2309,3.3094,3.3234,3.336,3.3659,3.3899,3.4051,3.4051,3.4399,3.4631,3.4631,3.4949,3.5148,3.518,3.5359,3.5472,3.5472,3.5504,3.5504,3.5504,3.5504,3.5504,3.5504,3.5504,3.5504,3.5504,3.5621,3.5799,0.0,0.0,0.0,1.7065,1.6918,1.6791,1.6663,1.6543,1.65,1.65,1.65,1.65,1.65,1.65,1.65,1.65,1.65,1.65,1.65,1.6565,1.6633,1.6633,1.6748,1.6842,1.6876,1.7065,1.7178,1.7261,1.7303,1.7303,1.7261,1.7178,1.7122,1.7114,1.7966,1.8763,1.9522,1.971,1.9798,1.9798,1.9798,1.9798,1.9798,1.9798,2.0413,2.1493,2.1493,2.2234,2.3484,2.4412,2.4901,2.5197,2.6135,2.6499,2.6512,2.6713,2.6788,2.6864,2.7394,2.7946,2.8461,2.8949,2.9492,3.0049,3.0394,3.0584,3.071,3.096,3.1097,3.1246,3.1307,3.1307,3.1394,3.1629,3.2151,3.2511,3.2367,3.1823,3.1394,3.1666,3.1726,3.2005,3.2654,3.2889,3.3157,3.3728,3.4045,3.423,3.4366,3.452,3.4606,3.4606,3.4868,3.5016,3.5016,3.5261,3.5392,3.5392,3.5472,3.5504,3.5504,3.5504,3.5504,3.5504,3.5572,3.5621,3.5621,3.5621,3.575,3.5941,3.599,3.6227,0.0,0.0,0.0,0.0,0.0,1.7065,1.6897,1.6812,1.6723,1.6723,1.6723,1.6723,1.6723,1.6723,1.668,1.6522,1.65,1.65,1.65,1.662,1.6718,1.6761,1.6939,1.7115,1.722,1.7413,1.7598,1.776,1.7808,1.7808,1.7767,1.7632,1.7529,1.7492,1.827,1.9041,1.9798,1.9798,1.9798,1.9798,1.9798,1.9798,1.9798,1.9798,2.0313,2.1257,2.1405,2.2121,2.3183,2.4155,2.4625,2.4876,2.5812,2.6323,2.6499,2.6499,2.6499,2.6549,2.6949,2.7475,2.8066,2.8866,2.9575,3.0238,3.0871,3.1222,3.1445,3.1809,3.1992,3.2137,3.2218,3.2254,3.2376,3.2676,3.3185,3.3583,3.3652,3.2925,3.234,3.2605,3.2725,3.2974,3.3563,3.3791,3.4016,3.4404,3.4702,3.4898,3.4964,3.5049,3.5115,3.5115,3.5213,3.5294,3.5294,3.5439,3.5504,3.5504,3.5504,3.5504,3.5504,3.5504,3.5537,3.5587,3.5703,3.5894,3.6038,3.5975,3.6116,3.6367,3.6538,3.6906,0.0,0.0,0.0,0.0,0.0,0.0,1.7261,1.722,1.722,1.722,1.722,1.722,1.722,1.722,1.7052,1.6595,1.6522,1.6522,1.6522,1.6641,1.6761,1.6897,1.7115,1.7352,1.77,1.7787,1.8008,1.8481,1.8519,1.8519,1.85,1.8307,1.8376,1.8714,1.9046,1.9396,1.9798,1.9811,1.9798,1.9798,1.9798,1.9798,1.9798,1.9798,2.0125,2.0742,2.1282,2.2121,2.3145,2.3753,2.4318,2.4813,2.5385,2.5971,2.6474,2.6487,2.6499,2.6521,2.6692,2.7094,2.7783,2.8686,2.9506,3.0335,3.1449,3.1978,3.2309,3.3094,3.3339,3.3409,3.3728,3.3831,3.3865,3.407,3.4119,3.4187,3.4366,3.4133,3.3865,3.3831,3.3968,3.4187,3.438,3.4597,3.4831,3.5148,3.5213,3.5294,3.5472,3.5504,3.5504,3.5504,3.5504,3.5504,3.5504,3.5504,3.5504,3.5504,3.5504,3.5504,3.5504,3.5504,3.5572,3.572,3.5926,3.6258,3.6723,3.6585,3.6616,3.6739,3.7238,3.7886,1.9101,0.0,0.0,0.0,0.0,0.0,1.7679,1.7516,1.7413,1.7413,1.7413,1.7413,1.7413,1.7413,1.7372,1.7248,1.7102,1.701,1.701,1.7165,1.7344,1.7455,1.7767,1.8068,1.8266,1.8461,1.8649,1.8784,1.8879,1.886,1.8726,1.8616,1.8884,1.9606,1.9551,1.9631,1.9952,1.9926,1.9901,1.9798,1.9798,1.9798,1.9798,1.9798,2.0338,2.1295,2.1458,2.2121,2.3145,2.3753,2.4092,2.4318,2.5234,2.5686,2.5921,2.6438,2.6658,2.6692,2.7032,2.755,2.8213,2.8913,2.992,3.1047,3.1916,3.2612,3.3241,3.3728,3.3962,3.4128,3.423,3.4332,3.4481,3.4501,3.4702,3.4902,3.4983,3.5016,3.4902,3.4534,3.4515,3.4635,3.4916,3.5016,3.5129,3.5359,3.5439,3.5439,3.5504,3.5504,3.5504,3.5504,3.5504,3.5504,3.5504,3.5504,3.5504,3.5504,3.5504,3.5554,3.5638,3.5638,3.5767,3.607,3.6336,3.6739,3.7208,3.7074,3.7238,3.7725,3.827,3.8717,0.0,0.0,0.0,0.0,0.0,0.0,1.8246,1.8127,1.8028,1.8028,1.8028,1.8028,1.8028,1.8028,1.8028,1.8028,1.7928,1.774,1.7372,1.7496,1.7679,1.7808,1.8187,1.8495,1.8683,1.8931,1.9101,1.9176,1.9265,1.9326,1.9339,1.9369,1.9656,2.0187,2.0178,2.0173,2.0182,2.0105,2.0029,1.9888,1.9837,1.9798,1.9798,1.9798,2.0314,2.1264,2.1491,2.2097,2.3014,2.3596,2.3914,2.4067,2.4746,2.5307,2.5782,2.6345,2.676,2.7087,2.7556,2.802,2.8525,2.9454,3.03,3.1217,3.239,3.3125,3.3739,3.4351,3.4687,3.4865,3.4865,3.4964,3.503,3.503,3.5162,3.5326,3.5326,3.5439,3.5407,3.5096,3.503,3.5096,3.5294,3.5326,3.5359,3.5472,3.5504,3.5504,3.5504,3.5504,3.5504,3.5504,3.5504,3.5504,3.5504,3.5504,3.5522,3.5572,3.5572,3.5686,3.5911,3.599,3.6211,3.66,3.6906,3.7401,3.8071,3.7783,3.8014,3.8678,3.905,3.9292,0.0,0.0,0.0,0.0,1.9045,0.0,1.886,1.8841,1.8822,1.8822,1.8822,1.8822,1.8822,1.8822,1.8822,1.8822,1.8822,1.8553,1.776,1.7787,1.7968,1.8108,1.8461,1.8798,1.905,1.9242,1.9413,1.9593,1.9593,1.979,2.018,2.0369,2.0516,2.0679,2.096,2.0909,2.0498,2.0346,2.0182,2.0042,1.9914,1.985,1.9824,1.985,2.0307,2.106,2.1542,2.2199,2.2968,2.344,2.3773,2.3978,2.4184,2.4925,2.5932,2.6369,2.6974,2.7689,2.8254,2.8546,2.8853,3.0093,3.0637,3.1147,3.2883,3.3565,3.3965,3.4955,3.5359,3.5504,3.5504,3.5504,3.5504,3.5504,3.5504,3.5504,3.5504,3.5504,3.5504,3.5504,3.5504,3.5504,3.5504,3.5504,3.5504,3.5504,3.5504,3.5504,3.5504,3.5504,3.5504,3.5504,3.5504,3.5504,3.5504,3.5504,3.5572,3.572,3.5784,3.5943,3.629,3.6507,3.6846,3.7298,3.7608,3.8214,3.9077,3.865,3.8816,3.9537,3.9563,3.9694,0.0,0.0,0.0,0.0,1.9358,0.0,1.9195,1.912,1.9045,1.9045,1.9045,1.9045,1.9045,1.9045,1.9045,1.9045,1.9045,1.8917,1.8592,1.863,1.8745,1.886,1.9101,1.9302,1.9465,1.9578,1.9636,1.9672,1.9629,1.9986,2.0872,2.0779,2.1068,2.1843,2.1714,2.1434,2.1057,2.0809,2.056,2.0321,2.0296,2.022,2.0118,2.022,2.0888,2.1961,2.205,2.2754,2.3858,2.3962,2.3874,2.3743,2.4373,2.5107,2.5931,2.686,2.7662,2.8384,2.9107,2.9435,2.9668,3.0379,3.1043,3.1795,3.296,3.3676,3.4273,3.518,3.5472,3.5504,3.5504,3.5504,3.5504,3.5504,3.5504,3.5504,3.5504,3.5504,3.5504,3.5504,3.5504,3.5504,3.5504,3.5504,3.5504,3.5504,3.5504,3.5504,3.5504,3.5504,3.5504,3.5504,3.5504,3.5504,3.5504,3.5589,3.5735,3.5941,3.6195,3.6523,3.6983,3.7148,3.7506,3.8071,3.8618,3.9098,3.9556,3.9478,3.9556,3.9824,3.9935,4.0011,0.0,0.0,0.0,1.965,1.9578,0.0,0.0,1.9453,1.9398,1.9398,1.9398,1.9398,1.9398,1.9398,1.9398,1.9398,1.9398,1.9347,1.9254,1.9157,1.912,1.9176,1.9376,1.9538,1.9593,1.9669,1.9708,1.9708,1.9672,2.0124,2.123,2.114,2.1513,2.2521,2.231,2.202,2.1616,2.1323,2.1068,2.0797,2.0734,2.066,2.0623,2.0973,2.1667,2.2604,2.3016,2.3764,2.4637,2.4709,2.4652,2.452,2.4681,2.5173,2.5942,2.7124,2.8033,2.883,2.9771,3.019,3.0372,3.0807,3.1205,3.1722,3.263,3.357,3.4437,3.4891,3.5235,3.5504,3.5504,3.5504,3.5504,3.5504,3.5504,3.5504,3.5504,3.5504,3.5504,3.5504,3.5504,3.5504,3.5504,3.5504,3.5504,3.5504,3.5504,3.5504,3.5504,3.5504,3.5504,3.5504,3.5504,3.5537,3.5589,3.575,3.599,3.632,3.6646,3.7104,3.7623,3.787,3.8286,3.8887,3.9345,3.9635,3.9781,3.9858,3.9935,3.9986,4.0087,4.0096,0.0,0.0,1.9708,1.9708,1.9708,1.9708,0.0,0.0,0.0,1.9708,1.9708,1.9708,1.9708,1.9708,1.9708,1.9708,1.9708,1.9708,1.9708,1.9508,1.9395,1.9395,1.9523,1.9629,1.9629,1.9672,1.9708,1.9708,1.9708,2.0236,2.1446,2.1405,2.185,2.2935,2.2791,2.2509,2.2147,2.1888,2.1616,2.135,2.1275,2.128,2.1352,2.1897,2.2569,2.3364,2.4054,2.4751,2.5384,2.5522,2.5591,2.5563,2.516,2.543,2.6162,2.7284,2.828,2.9197,3.0205,3.0719,3.094,3.1234,3.1425,3.1663,3.2288,3.344,3.4503,3.4503,3.4966,3.5504,3.5504,3.5504,3.5504,3.5504,3.5504,3.5504,3.5504,3.5504,3.5504,3.5504,3.5504,3.5504,3.5504,3.5504,3.5504,3.5504,3.5504,3.5504,3.5504,3.5504,3.5504,3.5504,3.5522,3.5604,3.5767,3.599,3.6352,3.6816,3.7208,3.7682,3.8242,3.865,3.9077,3.958,3.9824,3.9952,3.9952,4.0062,4.0096,4.0096,4.0096,4.0096,0.0,1.9708,1.9708,1.9708,1.9708,1.9708,1.9708,0.0,1.9708,1.9708,0.0,1.9708,1.9708,0.0,0.0,1.9708,1.9708,1.9708,1.9708,1.9672,1.9654,1.9654,1.9672,1.969,1.969,1.9708,1.9708,1.9708,1.9708,2.0236,2.1446,2.15,2.2017,2.3209,2.3105,2.2912,2.2603,2.2402,2.2184,2.1926,2.2006,2.2265,2.2611,2.285,2.3568,2.4604,2.4805,2.533,2.6002,2.6136,2.6256,2.6351,2.5934,2.6217,2.6933,2.7491,2.855,2.9769,3.0187,3.0745,3.1263,3.1424,3.187,3.2378,3.2467,3.344,3.4503,3.4503,3.4966,3.5504,3.5504,3.5504,3.5504,3.5504,3.5504,3.5504,3.5504,3.5504,3.5504,3.5504,3.5504,3.5504,3.5504,3.5504,3.5504,3.5504,3.5504,3.5504,3.5504,3.5504,3.5504,3.5504,3.5604,3.5767,3.5941,3.6383,3.6831,3.7298,3.787,3.8383,3.8887,3.9468,3.9781,3.9849,4.0011,4.0087,4.0087,4.0096,4.0096,4.0096,4.0096,4.0096,1.9708,1.9708,1.9708,1.9708,1.9708,1.9708,1.9708,1.9708,1.9708,1.9708,0.0,0.0,0.0,0.0,0.0,0.0,1.9708,1.9708,1.9708,1.9726,1.9744,1.9708,1.9708,1.9708,1.9708,1.9708,1.9708,1.9708,1.9708,2.0255,2.156,2.1635,2.2196,2.3435,2.3385,2.3253,2.3061,2.2881,2.2925,2.3098,2.3145,2.3488,2.4044,2.4461,2.4919,2.5397,2.5925,2.6335,2.6633,2.6777,2.6867,2.6907,2.6803,2.6857,2.7093,2.7832,2.87,2.9596,3.0205,3.0842,3.1438,3.1467,3.169,3.1914,3.1914,3.2856,3.3903,3.3903,3.4681,3.5504,3.5504,3.5504,3.5504,3.5504,3.5504,3.5504,3.5504,3.5504,3.5504,3.5504,3.5572,3.5621,3.5621,3.5554,3.5504,3.5504,3.5587,3.5621,3.5621,3.5782,3.591,3.591,3.6068,3.6274,3.6492,3.6876,3.7358,3.7899,3.8662,3.9239,3.952,3.9833,4.0011,4.0011,4.0087,4.0096,4.0096,4.0096,4.0096,4.0096,4.0096,4.0096,1.9708,1.9708,1.9708,1.9708,1.9708,1.9708,1.9708,1.9708,1.9708,1.9708,1.9708,0.0,0.0,0.0,0.0,0.0,0.0,1.978,1.978,1.9833,1.9833,1.9744,1.9762,1.9762,1.9726,1.9726,1.9726,1.9708,1.9708,2.0292,2.162,2.1695,2.2278,2.3565,2.3545,2.3473,2.3363,2.343,2.3655,2.4008,2.4206,2.4639,2.5272,2.5764,2.6046,2.621,2.6836,2.7107,2.7133,2.7258,2.7295,2.7321,2.7412,2.7454,2.7509,2.8203,2.8848,2.9488,3.0255,3.0928,3.1511,3.1511,3.1511,3.1511,3.1511,3.2303,3.326,3.344,3.4203,3.4996,3.5175,3.5085,3.4951,3.5015,3.5015,3.5015,3.5063,3.5213,3.5349,3.5349,3.5629,3.5847,3.5911,3.5782,3.5683,3.5683,3.5814,3.5911,3.5975,3.6179,3.6352,3.6383,3.6616,3.6861,3.7057,3.749,3.8014,3.8634,3.9372,3.9807,3.9935,4.0062,4.0096,4.0096,4.0096,4.0096,4.0096,4.0096,4.0096,4.0096,4.0096,4.0096,1.9708,1.9708,1.9708,1.9708,1.9708,1.9708,1.9708,1.9708,1.9708,1.9708,1.9708,1.9708,1.9708,0.0,0.0,0.0,0.0,0.0,0.0,2.0061,2.0028,1.9815,1.9902,1.9937,1.9797,1.9797,1.9762,1.9708,1.9708,2.0292,2.162,2.1695,2.2278,2.3565,2.3595,2.3566,2.3487,2.4119,2.4392,2.4292,2.5014,2.5627,2.6154,2.6308,2.6663,2.7178,2.731,2.7376,2.7401,2.7524,2.76,2.76,2.76,2.7979,2.8551,2.8592,2.9026,2.9669,3.0298,3.0928,3.1511,3.1511,3.1511,3.1511,3.1511,3.1974,3.2677,3.332,3.3529,3.3709,3.4369,3.4038,3.359,3.3728,3.3774,3.3804,3.394,3.4501,3.5017,3.5017,3.5643,3.6242,3.6445,3.632,3.6179,3.6179,3.6352,3.6523,3.6662,3.6693,3.6723,3.6875,3.7163,3.7447,3.7578,3.8185,3.8871,3.9625,3.9824,3.9935,4.007,4.0096,4.0096,4.0096,4.0096,4.0096,4.0096,4.0096,4.0096,4.0096,4.0096,4.0096,1.9708,1.9708,1.9708,1.9708,1.9708,1.9708,1.9708,1.9726,1.9762,1.9762,1.9869,1.9957,1.9902,0.0,0.0,0.0,0.0,0.0,0.0,2.0443,2.0579,2.0581,2.0275,2.0045,2.001,1.9955,1.9919,1.9902,1.9815,2.0347,2.1688,2.1719,2.2278,2.3565,2.3595,2.3588,2.3566,2.4231,2.4775,2.5184,2.5872,2.6529,2.712,2.717,2.729,2.7473,2.7499,2.7524,2.7539,2.7575,2.76,2.7645,2.8094,2.8397,2.8607,2.8607,2.928,3.0283,3.0956,3.1316,3.1511,3.1511,3.1511,3.1511,3.1511,3.1959,3.2557,3.2781,3.3155,3.3544,3.3769,3.3741,3.3653,3.3789,3.3925,3.4075,3.4208,3.4788,3.5278,3.543,3.6213,3.6906,3.7058,3.7371,3.7385,3.6753,3.6891,3.7104,3.7148,3.7519,3.7783,3.7825,3.8128,3.8371,3.8511,3.9007,3.9478,3.9807,3.9961,4.0062,4.0096,4.0096,4.0096,4.0096,4.0096,4.0096,4.0096,4.0096,4.0096,4.0096,4.0096,4.0096,2.0219,2.014,2.0062,1.9804,1.9726,1.9708,1.9708,1.9744,1.9797,1.9866,2.0028,2.015,2.0113,0.0,0.0,0.0,0.0,0.0,0.0,2.0844,2.099,2.1135,2.0697,2.0376,2.0342,2.0237,2.0166,2.0113,1.9955,2.0439,2.1728,2.1739,2.2278,2.3565,2.3595,2.3595,2.3595,2.45,2.5173,2.5615,2.6512,2.718,2.76,2.76,2.76,2.76,2.76,2.76,2.76,2.76,2.775,2.8004,2.8427,2.8876,2.928,2.928,2.9953,3.0913,3.1346,3.1511,3.1511,3.1511,3.1511,3.1511,3.1511,3.1795,3.2213,3.2496,3.2736,3.2976,3.3321,3.329,3.3241,3.3444,3.3633,3.3836,3.405,3.4649,3.5281,3.5647,3.6535,3.7322,3.7751,3.8214,3.8298,3.7517,3.7679,3.7899,3.7956,3.8298,3.8567,3.8606,3.8887,3.9104,3.9292,3.9599,3.9833,3.9961,4.0062,4.0096,4.0096,4.0096,4.0096,4.0096,4.0096,4.0096,4.0096,4.0096,4.0096,4.0096,4.0096,4.0096]}]]